[[{"header":{"parameterUnit":"m.s-1","parameterCategory":1,"la1":30.6,"la2":28.766,"lo1":-90.7593,"lo2":-88.6598,"dy":0.0162,"dx":0.0183,"nx":116,"ny":114,"refTime":"2023-11-09T06:00:00:Z","depth":0,"parameterNumber":2,"parameterNumberName":"U-component_of_WINDS"},"data":[0.0,0.0,0.0,0.0,0.0,0.0,0.0,0.0,0.0,0.0,0.0,0.0,0.0,0.0,0.0,0.0,0.0,0.0,0.0,0.0,0.0,0.0,0.0,0.0,0.0,0.0,0.0,0.0,0.0,0.0,0.0,0.0,0.0,0.0,0.0,0.0,0.0,0.0,0.0,0.0,0.0,0.0,0.0,0.0,0.0,0.0,0.0,0.0,0.0,0.0,0.0,0.0,0.0,0.0,0.0,0.0,0.0,0.0,0.0,0.0,0.0,0.0,0.0,0.0,0.0,0.0,0.0,0.0,0.0,0.0,0.0,0.0,0.0,0.0,0.0,0.0,0.0,0.0,0.0,0.0,0.0,0.0,0.0,0.0,0.0,0.0,0.0,0.0,0.0,0.0,0.0,0.0,0.0,0.0,0.0,0.0,0.0,0.0,0.0,0.0,0.0,0.0,0.0,0.0,0.0,0.0,0.0,0.0,0.0,0.0,0.0,0.0,0.0,0.0,0.0,0.0,0.0,0.0,0.0,0.0,0.0,0.0,0.0,0.0,0.0,0.0,0.0,0.0,0.0,0.0,0.0,0.0,0.0,0.0,0.0,0.0,0.0,0.0,0.0,0.0,0.0,0.0,0.0,0.0,0.0,0.0,0.0,0.0,0.0,0.0,0.0,0.0,0.0,0.0,0.0,0.0,0.0,0.0,0.0,0.0,0.0,0.0,0.0,0.0,0.0,0.0,0.0,0.0,0.0,0.0,0.0,0.0,0.0,0.0,0.0,0.0,0.0,0.0,0.0,0.0,0.0,0.0,0.0,0.0,0.0,0.0,0.0,0.0,0.0,0.0,0.0,0.0,0.0,0.0,0.0,0.0,0.0,0.0,0.0,0.0,0.0,0.0,0.0,0.0,0.0,0.0,0.0,0.0,0.0,0.0,0.0,0.0,0.0,0.0,0.0,0.0,0.0,0.0,0.0,0.0,0.0,0.0,0.0,0.0,0.0,0.0,0.0,0.0,0.0,0.0,0.0,0.0,0.0,0.0,0.0,0.0,0.0,0.0,0.0,0.0,0.0,0.0,0.0,0.0,0.0,0.0,0.0,0.0,0.0,0.0,0.0,0.0,0.0,0.0,0.0,0.0,0.0,0.0,0.0,0.0,0.0,0.0,0.0,0.0,0.0,0.0,0.0,0.0,0.0,0.0,0.0,0.0,0.0,0.0,0.0,0.0,0.0,0.0,0.0,0.0,0.0,0.0,0.0,0.0,0.0,0.0,0.0,0.0,0.0,0.0,0.0,0.0,0.0,0.0,0.0,0.0,0.0,0.0,0.0,0.0,0.0,0.0,0.0,0.0,0.0,0.0,0.0,0.0,0.0,0.0,0.0,0.0,0.0,0.0,0.0,0.0,0.0,0.0,0.0,0.0,0.0,0.0,0.0,0.0,0.0,0.0,0.0,0.0,0.0,0.0,0.0,0.0,0.0,0.0,0.0,0.0,0.0,0.0,0.0,0.0,0.0,0.0,0.0,0.0,0.0,0.0,0.0,0.0,0.0,0.0,0.0,0.0,0.0,0.0,0.0,0.0,0.0,0.0,0.0,0.0,0.0,0.0,0.0,0.0,0.0,0.0,0.0,0.0,0.0,0.0,0.0,0.0,0.0,0.0,0.0,0.0,0.0,0.0,0.0,0.0,0.0,0.0,0.0,0.0,0.0,0.0,0.0,0.0,0.0,0.0,0.0,0.0,0.0,0.0,0.0,0.0,0.0,0.0,0.0,0.0,0.0,0.0,0.0,0.0,0.0,0.0,0.0,0.0,0.0,0.0,0.0,0.0,0.0,0.0,0.0,0.0,0.0,0.0,0.0,0.0,0.0,0.0,0.0,0.0,0.0,0.0,0.0,0.0,0.0,0.0,0.0,0.0,0.0,0.0,0.0,0.0,0.0,0.0,0.0,0.0,0.0,0.0,0.0,0.0,0.0,0.0,0.0,0.0,0.0,0.0,0.0,0.0,0.0,0.0,0.0,0.0,0.0,0.0,0.0,0.0,0.0,0.0,0.0,0.0,0.0,0.0,0.0,0.0,0.0,0.0,0.0,0.0,0.0,0.0,0.0,0.0,0.0,0.0,0.0,0.0,0.0,0.0,0.0,0.0,0.0,0.0,0.0,0.0,0.0,0.0,0.0,0.0,0.0,0.0,0.0,0.0,0.0,0.0,0.0,0.0,0.0,0.0,0.0,0.0,0.0,0.0,0.0,0.0,0.0,0.0,0.0,0.0,0.0,0.0,0.0,0.0,0.0,0.0,0.0,0.0,0.0,0.0,0.0,0.0,0.0,0.0,0.0,0.0,0.0,0.0,0.0,0.0,0.0,0.0,0.0,0.0,0.0,0.0,0.0,0.0,0.0,0.0,0.0,0.0,0.0,0.0,0.0,0.0,0.0,0.0,0.0,0.0,0.0,0.0,0.0,0.0,0.0,0.0,0.0,0.0,0.0,0.0,0.0,0.0,0.0,0.0,0.0,0.0,0.0,0.0,0.0,0.0,0.0,0.0,0.0,0.0,0.0,0.0,0.0,0.0,0.0,0.0,0.0,0.0,0.0,0.0,0.0,0.0,0.0,0.0,0.0,0.0,0.0,0.0,0.0,0.0,0.0,0.0,0.0,0.0,0.0,0.0,0.0,0.0,0.0,0.0,0.0,0.0,0.0,0.0,0.0,0.0,0.0,0.0,0.0,0.0,0.0,0.0,0.0,0.0,0.0,0.0,0.0,0.0,0.0,0.0,0.0,0.0,0.0,0.0,0.0,0.0,0.0,0.0,0.0,0.0,0.0,0.0,0.0,0.0,0.0,0.0,0.0,0.0,0.0,0.0,0.0,0.0,0.0,0.0,0.0,0.0,0.0,0.0,0.0,0.0,0.0,0.0,0.0,0.0,0.0,0.0,0.0,0.0,0.0,0.0,0.0,0.0,0.0,0.0,0.0,0.0,0.0,0.0,0.0,0.0,0.0,0.0,0.0,0.0,0.0,0.0,0.0,0.0,0.0,0.0,0.0,0.0,0.0,0.0,0.0,0.0,0.0,0.0,0.0,0.0,0.0,0.0,0.0,0.0,0.0,0.0,0.0,0.0,0.0,0.0,0.0,0.0,0.0,0.0,0.0,0.0,0.0,0.0,0.0,0.0,0.0,0.0,0.0,0.0,0.0,0.0,0.0,0.0,0.0,0.0,0.0,0.0,0.0,0.0,0.0,0.0,0.0,0.0,0.0,0.0,0.0,0.0,0.0,0.0,0.0,0.0,0.0,0.0,0.0,0.0,0.0,0.0,0.0,0.0,0.0,0.0,0.0,0.0,0.0,0.0,0.0,0.0,0.0,0.0,0.0,0.0,0.0,0.0,0.0,0.0,0.0,0.0,0.0,0.0,0.0,0.0,0.0,0.0,0.0,0.0,0.0,0.0,0.0,0.0,0.0,0.0,0.0,0.0,0.0,0.0,0.0,0.0,0.0,0.0,0.0,0.0,0.0,0.0,0.0,0.0,0.0,0.0,0.0,0.0,0.0,0.0,0.0,0.0,0.0,0.0,0.0,0.0,0.0,0.0,0.0,0.0,0.0,0.0,0.0,0.0,0.0,0.0,0.0,0.0,0.0,0.0,0.0,0.0,0.0,0.0,0.0,0.0,0.0,0.0,0.0,0.0,0.0,0.0,0.0,0.0,0.0,0.0,0.0,0.0,0.0,0.0,0.0,0.0,0.0,0.0,0.0,0.0,0.0,0.0,0.0,0.0,0.0,0.0,0.0,0.0,0.0,0.0,0.0,0.0,0.0,0.0,0.0,0.0,0.0,0.0,0.0,0.0,0.0,0.0,0.0,0.0,0.0,0.0,0.0,0.0,0.0,0.0,0.0,0.0,0.0,0.0,0.0,0.0,0.0,0.0,0.0,0.0,0.0,0.0,0.0,0.0,0.0,0.0,0.0,0.0,0.0,0.0,0.0,0.0,0.0,0.0,0.0,0.0,0.0,0.0,0.0,0.0,0.0,0.0,0.0,0.0,0.0,0.0,0.0,0.0,0.0,0.0,0.0,0.0,0.0,0.0,0.0,0.0,0.0,0.0,0.0,0.0,0.0,0.0,0.0,0.0,0.0,0.0,0.0,0.0,0.0,0.0,0.0,0.0,0.0,0.0,0.0,0.0,0.0,0.0,0.0,0.0,0.0,0.0,0.0,0.0,0.0,0.0,0.0,0.0,0.0,0.0,0.0,0.0,0.0,0.0,0.0,0.0,0.0,0.0,0.0,0.0,0.0,0.0,0.0,0.0,0.0,0.0,0.0,0.0,0.0,0.0,0.0,0.0,0.0,0.0,0.0,0.0,0.0,0.0,0.0,0.0,0.0,0.0,0.0,0.0,0.0,0.0,0.0,0.0,0.0,0.0,0.0,0.0,0.0,0.0,0.0,0.0,0.0,0.0,0.0,0.0,0.0,0.0,0.0,0.0,0.0,0.0,0.0,0.0,0.0,0.0,0.0,0.0,0.0,0.0,0.0,0.0,0.0,0.0,0.0,0.0,0.0,0.0,0.0,0.0,0.0,0.0,0.0,0.0,0.0,0.0,0.0,0.0,0.0,0.0,0.0,0.0,0.0,0.0,0.0,0.0,0.0,0.0,0.0,0.0,0.0,0.0,0.0,0.0,0.0,0.0,0.0,0.0,0.0,0.0,0.0,0.0,0.0,0.0,0.0,0.0,0.0,0.0,0.0,0.0,0.0,0.0,0.0,0.0,0.0,0.0,0.0,0.0,0.0,0.0,0.0,0.0,0.0,0.0,0.0,0.0,0.0,0.0,0.0,0.0,0.0,0.0,0.0,0.0,0.0,0.0,0.0,0.0,0.0,0.0,0.0,0.0,0.0,0.0,0.0,0.0,0.0,0.0,0.0,0.0,0.0,0.0,0.0,0.0,0.0,0.0,0.0,0.0,0.0,0.0,0.0,0.0,0.0,0.0,0.0,0.0,0.0,0.0,0.0,0.0,0.0,0.0,0.0,0.0,0.0,0.0,0.0,0.0,0.0,0.0,0.0,0.0,0.0,0.0,0.0,0.0,0.0,0.0,0.0,0.0,0.0,0.0,0.0,0.0,0.0,0.0,0.0,0.0,0.0,0.0,0.0,0.0,0.0,0.0,0.0,0.0,0.0,0.0,0.0,0.0,0.0,0.0,0.0,0.0,0.0,0.0,0.0,0.0,0.0,0.0,0.0,0.0,0.0,0.0,0.0,0.0,0.0,0.0,0.0,0.0,0.0,0.0,0.0,0.0,0.0,0.0,0.0,0.0,0.0,0.0,0.0,0.0,0.0,0.0,0.0,0.0,0.0,0.0,0.0,0.0,0.0,0.0,0.0,0.0,0.0,0.0,0.0,0.0,0.0,0.0,0.0,0.0,0.0,0.0,0.0,0.0,0.0,0.0,0.0,0.0,0.0,0.0,0.0,0.0,0.0,0.0,0.0,0.0,0.0,0.0,0.0,0.0,0.0,0.0,0.0,0.0,0.0,0.0,0.0,0.0,0.0,0.0,0.0,0.0,0.0,0.0,0.0,0.0,0.0,0.0,0.0,0.0,0.0,0.0,0.0,0.0,0.0,0.0,0.0,0.0,0.0,0.0,0.0,0.0,0.0,0.0,0.0,0.0,0.0,0.0,0.0,0.0,0.0,0.0,0.0,0.0,0.0,0.0,0.0,0.0,0.0,0.0,0.0,0.0,0.0,0.0,0.0,0.0,0.0,0.0,0.0,0.0,0.0,0.0,0.0,0.0,0.0,0.0,0.0,0.0,0.0,0.0,0.0,0.0,0.0,0.0,0.0,0.0,0.0,0.0,0.0,0.0,0.0,0.0,0.0,0.0,0.0,0.0,0.0,0.0,0.0,0.0,0.0,0.0,0.0,0.0,0.0,0.0,0.0,0.0,0.0,0.0,0.0,0.0,0.0,0.0,0.0,0.0,0.0,0.0,0.0,0.0,0.0,0.0,0.0,0.0,0.0,0.0,0.0,0.0,0.0,0.0,0.0,0.0,0.0,0.0,0.0,0.0,0.0,0.0,0.0,0.0,0.0,0.0,0.0,0.0,0.0,0.0,-3.3472,0.0,0.0,0.0,0.0,0.0,0.0,0.0,0.0,0.0,0.0,0.0,0.0,0.0,0.0,0.0,0.0,0.0,0.0,0.0,0.0,0.0,0.0,0.0,0.0,0.0,0.0,0.0,0.0,0.0,0.0,0.0,0.0,0.0,0.0,0.0,0.0,0.0,0.0,0.0,0.0,0.0,0.0,0.0,0.0,0.0,0.0,0.0,0.0,0.0,0.0,0.0,0.0,0.0,0.0,0.0,0.0,0.0,0.0,0.0,0.0,0.0,0.0,0.0,0.0,0.0,0.0,0.0,0.0,0.0,0.0,0.0,0.0,0.0,0.0,0.0,0.0,0.0,0.0,0.0,0.0,0.0,0.0,0.0,0.0,0.0,0.0,0.0,0.0,0.0,0.0,0.0,0.0,0.0,0.0,0.0,0.0,0.0,0.0,0.0,0.0,0.0,0.0,0.0,0.0,0.0,0.0,0.0,0.0,0.0,0.0,0.0,0.0,0.0,0.0,0.0,0.0,-3.3354,0.0,0.0,0.0,0.0,0.0,0.0,0.0,0.0,0.0,0.0,0.0,0.0,0.0,0.0,0.0,0.0,0.0,0.0,0.0,0.0,0.0,0.0,0.0,0.0,0.0,0.0,0.0,0.0,0.0,0.0,0.0,0.0,0.0,0.0,0.0,0.0,0.0,0.0,0.0,0.0,0.0,0.0,0.0,0.0,0.0,0.0,0.0,0.0,0.0,0.0,0.0,0.0,0.0,0.0,0.0,0.0,0.0,0.0,0.0,0.0,0.0,0.0,0.0,0.0,0.0,0.0,0.0,0.0,0.0,0.0,0.0,0.0,0.0,0.0,0.0,0.0,0.0,0.0,0.0,0.0,0.0,0.0,0.0,0.0,0.0,0.0,0.0,0.0,0.0,0.0,0.0,0.0,0.0,0.0,0.0,0.0,0.0,0.0,0.0,0.0,0.0,0.0,0.0,0.0,0.0,0.0,0.0,0.0,-3.2322,-3.2524,-3.2599,-3.2481,-3.2481,-3.2615,-3.3079,-3.3593,-3.4199,-3.4653,0.0,0.0,0.0,0.0,0.0,0.0,0.0,0.0,0.0,0.0,0.0,0.0,0.0,0.0,0.0,0.0,0.0,0.0,0.0,0.0,0.0,0.0,2.9512,2.9571,2.9303,2.8807,0.0,0.0,0.0,0.0,0.0,0.0,0.0,0.0,0.0,0.0,0.0,0.3784,-1.4577,-1.2945,-1.5984,-2.2916,-2.603,0.0,0.0,0.0,0.0,0.0,0.0,0.0,0.0,0.0,0.0,0.0,0.0,0.0,0.0,0.0,0.0,0.0,0.0,0.0,0.0,0.0,0.0,0.0,0.0,0.0,0.0,0.0,0.0,0.0,0.0,0.0,0.0,0.0,0.0,0.0,0.0,0.0,0.0,0.0,0.0,0.0,0.0,0.0,-2.6865,-2.8083,0.0,0.0,0.0,0.0,0.0,0.0,0.0,0.0,0.0,0.0,0.0,0.0,0.0,-3.0036,-2.9649,-3.0524,-3.0918,-3.0881,-3.201,-3.2727,-3.2992,-3.2428,-3.2471,-3.2977,-3.2489,0.0,-3.4394,-3.3905,0.0,0.0,0.0,0.0,0.0,0.0,0.0,0.0,0.0,0.0,0.0,0.0,0.0,0.0,0.0,0.0,0.0,0.0,0.0,0.0,0.0,2.9323,2.939,2.9459,2.8883,2.8615,2.8826,0.0,0.0,0.0,0.0,0.0,0.0,0.0,0.0,0.0,1.5322,0.5771,-0.663,-0.9138,-1.4512,-2.2015,-2.3264,-2.4751,-2.6353,-2.6812,0.0,0.0,0.0,0.0,0.0,0.0,0.0,0.0,0.0,0.0,0.0,0.0,0.0,0.0,0.0,0.0,0.0,0.0,0.0,0.0,0.0,0.0,0.0,0.0,0.0,0.0,0.0,0.0,0.0,0.0,0.0,0.0,0.0,0.0,0.0,0.0,0.0,0.0,0.0,-2.553,-2.6688,-2.7089,-2.765,-2.8254,0.0,0.0,0.0,0.0,0.0,0.0,0.0,0.0,0.0,-3.019,-3.0038,-2.9953,-3.0188,-3.0906,-3.1075,-3.0744,-3.1405,-3.2005,-3.2573,-3.227,-3.2313,-3.2558,-3.227,-3.2442,-3.2981,-3.3034,-3.2855,-3.2419,0.0,0.0,0.0,0.0,-2.9814,-2.9005,0.0,0.0,0.0,0.0,0.0,0.0,0.0,0.0,0.0,0.0,0.0,0.0,2.8318,2.8813,2.9221,2.9713,2.9127,2.89,2.9351,0.0,0.0,0.0,0.0,0.0,0.0,0.0,0.0,1.9128,1.6732,1.0708,0.1346,-0.2501,-0.8984,-1.7439,-1.8244,-2.1069,-2.5196,-2.5528,-2.6836,0.0,0.0,0.0,0.0,0.0,0.0,0.0,0.0,0.0,0.0,0.0,0.0,0.0,0.0,0.0,0.0,0.0,0.0,0.0,0.0,0.0,0.0,0.0,0.0,0.0,0.0,0.0,0.0,0.0,0.0,0.0,0.0,0.0,0.0,0.0,0.0,0.0,0.0,-2.5899,-2.676,-2.6567,-2.7826,-2.8699,0.0,0.0,0.0,0.0,0.0,0.0,-3.021,-2.9347,-2.9045,-2.9407,-2.9467,-2.9659,-2.9994,-3.0564,-3.0634,-3.0132,-3.0038,-3.048,-3.1319,-3.097,-3.1048,-3.1319,-3.1126,-3.0971,-3.0907,-3.1839,-3.2028,-3.1622,-3.1421,-3.0754,-2.9837,-2.9775,-2.8773,-2.7638,0.0,0.0,0.0,0.0,0.0,0.0,0.0,0.0,0.0,0.0,0.0,2.6489,2.8884,2.8494,2.8714,3.0302,3.0413,2.9999,2.9084,2.9651,2.966,0.0,0.0,0.0,0.0,0.0,0.0,1.8458,2.3746,1.9845,0.7537,1.0912,0.5646,-0.6731,-1.0385,-1.6429,-2.4021,-2.4756,-2.6425,-2.865,0.0,0.0,0.0,0.0,0.0,0.0,0.0,0.0,0.0,0.0,0.0,0.0,0.0,0.0,0.0,0.0,0.0,0.0,0.0,0.0,0.0,0.0,0.0,0.0,0.0,0.0,0.0,0.0,0.0,0.0,0.0,0.0,0.0,0.0,0.0,0.0,0.0,0.0,0.0,-2.7549,-2.9082,0.0,0.0,0.0,0.0,-3.0798,-3.0494,-3.0308,-3.0212,-2.8836,-2.8211,-2.853,-2.8528,-2.8443,-2.8243,-2.8268,-2.8268,-2.8243,-2.7713,-2.8017,-2.8903,-2.7736,-2.7853,-2.8917,-2.8249,-2.8066,-2.8413,-3.0159,-3.1157,-3.1516,-3.091,-3.0303,-2.978,-2.978,-2.938,-2.8919,0.0,0.0,0.0,0.0,0.0,0.0,0.0,0.0,0.0,2.6025,2.6032,2.6339,2.7236,2.7899,2.8583,2.9406,2.9427,2.934,2.9145,2.8558,2.8382,0.0,0.0,0.0,0.0,0.0,2.3805,2.1315,2.4172,2.3784,2.0315,1.6774,1.0629,0.2407,-0.1611,-0.7669,-1.5218,-2.142,-2.5131,-2.7012,-2.8106,-2.9077,0.0,0.0,0.0,0.0,0.0,0.0,0.0,0.0,0.0,0.0,0.0,0.0,0.0,0.0,0.0,0.0,0.0,0.0,0.0,0.0,0.0,0.0,0.0,0.0,0.0,0.0,0.0,0.0,0.0,0.0,0.0,0.0,0.0,0.0,0.0,0.0,0.0,-2.7473,-2.8737,0.0,-3.0092,-3.0863,-3.1307,-3.1202,-3.0997,-3.0455,-2.9476,-2.8406,-2.7776,-2.7697,-2.7736,-2.7875,-2.8097,-2.7758,-2.7394,-2.703,-2.6465,-2.6541,-2.7028,-2.6591,-2.6605,-2.7055,-2.7139,-2.6893,-2.6584,-2.7601,-2.8578,-2.934,-2.9061,-2.8482,-2.7663,-2.7663,-2.7064,-2.6322,0.0,0.0,0.0,0.0,0.0,0.0,0.0,0.0,0.0,2.5488,2.5939,2.638,2.6578,2.7673,2.8604,2.9115,2.8967,2.8754,2.8574,2.7699,2.7496,0.0,2.8453,0.0,0.0,2.5017,2.4382,2.3364,2.4629,2.5649,2.6331,2.066,1.5861,1.1762,0.6441,0.1239,-0.409,-1.3578,-2.0989,-2.6431,-2.7142,-2.7951,-2.8746,0.0,0.0,0.0,0.0,0.0,0.0,0.0,0.0,0.0,0.0,0.0,0.0,0.0,0.0,0.0,0.0,0.0,0.0,0.0,0.0,0.0,0.0,0.0,0.0,0.0,0.0,0.0,0.0,0.0,0.0,0.0,0.0,0.0,0.0,0.0,-2.7379,-2.6855,-2.8335,-2.9373,-2.9323,-3.037,-3.0996,-3.0823,-3.0687,-3.0075,-2.8839,-2.8148,-2.7604,-2.7079,-2.7296,-2.7348,-2.7256,-2.6892,-2.644,-2.59,-2.5335,-2.5294,-2.5778,-2.5275,-2.535,-2.5744,-2.589,-2.573,-2.536,-2.5749,-2.6339,-2.703,-2.7406,-2.6979,-2.6163,-2.6163,-2.5598,-2.482,0.0,0.0,0.0,0.0,0.0,0.0,0.0,0.0,2.5499,2.5228,2.5821,2.6507,2.7129,2.7888,2.8736,2.9639,2.9197,2.8454,2.7398,2.7279,2.7253,0.0,0.0,0.0,2.5967,2.6099,2.5561,2.4236,2.559,2.5764,2.4762,2.3048,2.1937,2.1059,1.354,0.9822,0.859,-0.1313,-1.3607,-2.64,-2.6199,-2.6453,-2.702,0.0,0.0,0.0,0.0,0.0,0.0,0.0,0.0,0.0,0.0,0.0,0.0,0.0,0.0,0.0,0.0,0.0,0.0,0.0,0.0,0.0,0.0,0.0,0.0,0.0,0.0,0.0,0.0,0.0,0.0,0.0,0.0,0.0,-2.5813,-2.6801,-2.7145,-2.5854,-2.803,-2.9094,-2.7805,-2.9355,-3.0223,-2.9624,-2.9375,-2.8972,-2.8354,-2.8134,-2.7583,-2.6735,-2.7393,-2.7038,-2.564,-2.5627,-2.531,-2.4795,-2.4255,-2.44,-2.499,-2.3726,-2.3837,-2.5004,-2.4338,-2.4293,-2.477,-2.4795,-2.477,-2.4858,-2.5975,-2.605,-2.5548,-2.5548,-2.5222,-2.4757,0.0,0.0,0.0,0.0,0.0,0.0,0.0,2.5529,2.5439,2.5235,2.5559,2.6114,2.6896,2.753,2.8406,2.9645,2.919,2.8548,2.7913,2.6835,2.6424,0.0,0.0,0.0,2.6772,2.6167,2.5497,2.4791,2.5471,2.5449,2.4777,2.3721,2.224,2.0413,1.7849,1.6585,1.5837,0.8586,-0.1064,-1.2129,-1.9127,-2.372,-2.6455,0.0,0.0,0.0,0.0,0.0,0.0,0.0,0.0,0.0,0.0,0.0,0.0,0.0,0.0,0.0,0.0,0.0,0.0,0.0,0.0,0.0,0.0,0.0,0.0,0.0,0.0,0.0,0.0,0.0,0.0,0.0,0.0,-2.8774,-2.6633,-2.7461,-2.8268,-2.8391,-2.9066,-2.9572,-2.9679,-2.9811,-2.9759,-2.9594,-2.8966,-2.8512,-2.834,-2.8134,-2.7639,-2.6932,-2.7591,-2.7243,-2.5855,-2.5842,-2.5268,-2.4217,-2.4587,-2.44,-2.3641,-2.3844,-2.4138,-2.4498,-2.4172,-2.4149,-2.4463,-2.4291,-2.374,-2.315,-2.4682,-2.4933,-2.4431,-2.4431,-2.4079,-2.354,0.0,0.0,0.0,0.0,0.0,0.0,0.0,2.5357,2.529,2.506,2.5371,2.5761,2.6226,2.6811,2.7548,2.853,2.8078,2.7663,2.7425,2.6909,0.0,0.0,0.0,2.7586,2.7565,2.6056,2.5214,2.5208,2.4958,2.4658,2.4285,2.348,2.2184,2.0527,2.0153,2.0135,2.0016,1.4742,0.8839,0.2002,-0.9716,-1.8499,-2.4752,-2.6594,-2.8505,-3.0331,-3.1187,-3.2011,-3.2684,-3.2976,0.0,0.0,0.0,0.0,0.0,0.0,0.0,0.0,0.0,0.0,0.0,0.0,0.0,0.0,0.0,0.0,0.0,0.0,0.0,0.0,0.0,0.0,0.0,0.0,-3.0091,-2.9762,-2.8047,-2.867,-2.9296,-2.9084,-2.9278,-2.9626,-2.997,-2.9738,-2.9504,-2.9504,-2.8809,-2.8373,-2.8373,-2.8293,-2.7882,-2.7141,-2.7757,-2.7428,-2.6036,-2.6036,-2.5515,-2.4616,-2.5015,-2.4696,-2.3668,-2.4123,-2.4213,-2.3943,-2.3795,-2.38,-2.3914,-2.4116,-2.3785,0.0,0.0,0.0,0.0,0.0,-2.3361,-2.2711,0.0,0.0,0.0,0.0,0.0,0.0,0.0,2.5156,2.5099,2.483,2.5196,2.5458,2.5443,2.5954,2.6523,2.7022,2.6632,2.6403,2.6505,0.0,0.0,2.7595,2.7646,2.7809,2.8098,2.5864,2.4994,2.558,2.4414,2.3752,2.3558,2.2746,2.1888,2.0975,2.0926,2.1294,2.1762,1.8288,1.5945,1.3381,-0.0141,-1.18,-2.1405,-2.4947,-2.7603,-2.964,-3.0953,-3.2107,-3.3069,-3.345,0.0,0.0,0.0,0.0,0.0,0.0,0.0,0.0,0.0,0.0,0.0,0.0,0.0,0.0,0.0,0.0,0.0,0.0,0.0,0.0,0.0,0.0,0.0,0.0,-3.0514,-3.0456,-2.9614,-3.0183,-3.022,-2.8858,-2.918,-2.9496,-2.9496,-2.9451,-2.9374,-2.9294,-2.8701,-2.8403,-2.8403,0.0,0.0,0.0,0.0,-2.7683,-2.6256,-2.6256,-2.5936,-2.5398,-2.5384,-2.5093,-2.4502,-2.4457,-2.4152,-2.3644,-2.3472,-2.3444,-2.3537,-2.4075,-2.4295,-2.4203,-2.3612,-2.3406,-2.3493,-2.3437,-2.292,-2.2248,0.0,0.0,0.0,0.0,0.0,0.0,0.0,2.5111,2.5035,2.4827,2.47,2.4893,2.556,2.5706,2.6246,2.7453,2.6997,2.6612,2.6582,0.0,2.7866,2.7524,2.7919,2.7952,2.7475,2.6073,2.5573,2.6069,2.4705,2.3813,2.3435,2.2554,2.1699,2.0831,2.0552,2.0728,2.1215,2.1259,1.7623,1.1093,0.2311,-0.5729,-1.3499,-2.2753,-2.7506,-2.9362,-3.0882,-3.2163,-3.3259,-3.3873,-3.4206,-3.4439,-3.4725,0.0,0.0,0.0,0.0,0.0,0.0,0.0,0.0,0.0,0.0,0.0,0.0,0.0,0.0,0.0,0.0,0.0,0.0,0.0,0.0,-2.9738,-3.0936,-3.1613,-3.0473,-3.1265,-3.1458,-3.0119,-3.0064,-3.0123,-3.0123,-2.9673,-2.9166,-2.8547,-2.8009,-2.7659,-2.7643,-2.7743,-2.7718,-2.7535,-2.8203,-2.7847,-2.6469,-2.6415,-2.6073,-2.5398,0.0,0.0,-2.5177,-2.4704,-2.4704,-2.5046,-2.3909,-2.3752,-2.4234,-2.3788,-2.3571,-2.3681,-2.4572,-2.4626,-2.4136,-2.359,-2.2981,-2.2237,0.0,0.0,0.0,0.0,0.0,0.0,0.0,2.4889,2.4872,2.4681,2.4591,2.4694,2.5116,2.5129,2.5425,2.6232,2.6074,2.5912,0.0,2.6794,2.7293,2.7063,2.7251,2.7228,2.6955,2.577,2.5171,2.525,2.4072,2.3241,2.272,2.1919,2.1194,2.0553,2.0708,2.093,2.1216,2.2316,2.0607,1.6044,0.4097,-0.2646,-0.7094,-2.131,-2.7641,-2.9201,-3.0812,-3.2179,-3.3314,-3.3981,-3.4435,-3.4793,-3.507,-3.5379,-3.5568,0.0,0.0,0.0,0.0,0.0,0.0,0.0,0.0,0.0,0.0,0.0,0.0,0.0,0.0,-3.1428,0.0,0.0,-3.1145,-3.0521,-3.0969,-3.1332,-3.0935,-3.1091,-3.1058,-3.0384,-3.0559,-3.074,-3.074,-3.0477,-2.9996,-2.9272,-2.8676,-2.8204,-2.7866,-2.7626,-2.7546,-2.761,-2.7904,-2.7765,-2.7049,-2.7034,-2.6878,-2.6481,-2.6207,-2.601,-2.5977,-2.5005,-2.474,-2.5003,-2.3952,-2.371,-2.4034,-2.4024,-2.4195,-2.4589,-2.5236,-2.4869,-2.3804,-2.3241,-2.28,-2.2257,0.0,0.0,0.0,0.0,0.0,0.0,0.0,0.0,2.4735,2.4589,2.4694,2.4759,2.469,2.4667,2.471,2.4876,2.5031,0.0,0.0,2.6151,2.6661,2.6592,2.6505,2.6419,2.6307,2.5311,2.4622,2.4266,2.3306,2.2555,2.1967,2.1341,2.0821,2.0424,2.1065,2.1466,2.1713,2.2508,2.2832,2.1332,0.4812,-0.2582,-0.5406,-2.1317,-2.7858,-2.8885,-3.0466,-3.1793,-3.285,-3.3629,-3.411,-3.4466,-3.4887,-3.5254,-3.5516,-3.5577,-3.563,0.0,0.0,0.0,0.0,0.0,0.0,0.0,0.0,0.0,-3.2329,-3.2792,-3.2545,-3.2029,-3.1358,-3.1445,-3.1401,-3.074,-3.0416,-3.0433,-3.0847,-3.061,-3.0482,-3.068,-3.1021,-3.119,-3.119,-3.119,-3.0835,-2.9956,-2.9343,-2.8731,-2.8099,-2.7543,-2.7347,-2.7595,-2.7625,-2.7625,-2.7625,-2.744,-2.743,-2.743,-2.6587,-2.6273,-2.6363,-2.5031,-2.4462,-2.4552,-2.3894,-2.3595,-2.364,-2.4193,-2.4732,-2.5226,-2.536,-2.4626,-2.3398,-2.3035,-2.2777,-2.2401,0.0,0.0,0.0,0.0,0.0,0.0,0.0,0.0,0.0,2.4778,2.4943,2.5057,2.5047,2.4939,2.4843,2.4807,2.4783,0.0,2.6099,2.6444,2.6607,2.6602,2.6646,2.6223,2.5297,2.4957,2.4577,2.4106,2.3117,2.2268,2.1543,2.1367,2.1029,2.0693,2.1353,2.211,2.2849,2.2164,2.1808,2.0219,0.3394,-0.7326,-1.4353,-2.4362,-2.7982,-2.793,-2.9289,-3.0332,-3.1245,-3.2389,-3.2963,-3.3381,-3.4408,-3.4925,-3.52,-3.5441,-3.555,-3.56,-3.5515,-3.5152,-3.4896,-3.5449,-3.4896,-3.4562,0.0,0.0,-3.5179,-3.4428,-3.5077,-3.4738,-3.1258,-3.1645,-3.1438,-2.8357,-2.8728,-2.9556,-2.9905,-3.0341,-3.1028,-3.2142,-3.162,-3.119,-3.119,-3.119,-3.0615,-2.9211,-2.8632,-2.8036,-2.7354,-2.6795,-2.6857,-2.758,-2.7625,-2.7625,-2.7625,-2.6991,-2.6692,-2.6692,-2.5435,-2.5151,-2.5674,-2.4328,-2.4044,-2.4552,-2.3894,-2.3595,-2.361,-2.3684,-2.3759,-2.3879,-2.4492,-2.4268,-2.36,-2.3598,-2.3191,-2.2552,0.0,0.0,0.0,0.0,0.0,0.0,0.0,0.0,0.0,0.0,2.4181,2.4273,2.3921,2.3575,2.3326,2.3238,0.0,0.0,2.5143,2.5605,2.5876,2.5955,2.5952,2.5678,2.5102,2.4897,2.467,2.4401,2.3311,2.2664,2.2425,2.1802,2.1439,2.1321,2.1979,2.2659,2.3284,2.328,1.9822,1.3301,0.1585,-0.8787,-1.808,-2.6331,-2.9361,-2.9268,-2.9682,-3.0417,0.0,0.0,-3.2497,-3.277,-3.3129,-3.3857,-3.4572,-3.4519,-3.5012,-3.547,-3.5119,-3.5214,-3.5325,-3.5053,-3.4785,-3.4762,-3.5342,-3.5154,-3.4753,-3.4393,-3.4829,-3.444,-3.1572,-3.1237,-3.0747,0.0,-2.859,-2.9111,-3.0165,-3.0525,-3.1324,-3.2997,-3.288,-3.2473,-3.2002,-3.1714,-3.0947,-2.9472,-2.9313,-2.8675,-2.7259,-2.7395,-2.7534,-2.7595,-2.7625,-2.738,-2.7006,-2.6722,-2.6393,-2.6019,-2.5076,-2.4971,-2.5555,-2.4208,-2.3759,-2.4014,-2.3729,-2.3595,-2.3595,-2.3595,-2.3595,-2.3625,-2.3924,-2.3849,-2.3598,-2.3693,-2.3518,-2.3098,0.0,0.0,0.0,0.0,0.0,0.0,0.0,0.0,0.0,0.0,0.0,2.2539,2.168,2.1181,2.1026,2.1282,0.0,0.0,0.0,2.4871,2.5451,2.5823,2.578,2.5742,2.571,2.5475,2.5127,2.4664,2.3566,2.283,2.2477,2.1831,2.1628,2.187,2.2338,2.3275,2.4302,2.1951,1.596,0.7182,-0.2621,-1.3139,-2.3493,-2.8673,-3.0688,-3.0673,-3.0118,-3.0386,-3.1078,-3.1599,-3.1899,-3.2077,-3.2165,-3.287,-3.3647,-3.3677,-3.4448,-3.5098,-3.4293,-3.4668,-3.5038,-3.4139,-3.4127,-3.4285,-3.4202,-3.4017,-3.39,-3.3768,-3.4151,-3.3805,-3.1589,-3.0951,-3.039,-2.9163,-2.8608,-2.8919,-3.0647,-3.0904,-3.1667,-3.3806,-3.4067,-3.3924,-3.357,-3.2807,-3.176,-3.0352,-3.0261,-2.9542,-2.784,-2.8233,-2.8389,-2.811,-2.7944,-2.7527,-2.6862,-2.6489,-2.5989,-2.533,-2.4657,-2.4687,-2.5228,-2.4405,-2.3948,-2.3837,-2.3837,-2.3767,-2.3595,-2.3595,-2.3595,-2.3625,-2.3804,-2.3759,-2.3641,-2.3877,-2.3806,-2.345,0.0,0.0,0.0,0.0,0.0,0.0,0.0,0.0,0.0,0.0,0.0,0.0,0.0,0.0,1.7963,1.9185,0.0,0.0,0.0,2.4678,2.5703,2.6622,2.6659,2.6847,2.721,2.6902,2.611,2.4791,2.3863,2.2552,2.0951,2.1068,2.1491,2.2177,2.2205,2.4063,2.6525,1.6517,0.9489,0.3888,-1.0361,-2.2903,-3.2942,-3.1939,-3.1564,-3.14,-3.0155,-2.9716,-2.9885,-3.0658,-3.094,-3.1091,-3.194,-3.2222,0.0,-3.3185,-3.4035,-3.4405,-3.2896,-3.3062,-3.3567,-3.316,-3.3058,-3.2982,-3.2623,-3.3014,-3.3259,-3.2757,-3.3644,-3.3717,-3.1092,-3.1114,-3.0876,-2.8686,-2.8291,-2.9009,-3.1087,-3.1381,-3.2281,-3.4676,-3.4962,-3.5274,0.0,-3.4645,-3.3159,-3.1915,-3.1115,-3.0219,-2.9197,-2.9149,-2.9244,-2.9329,-2.8779,-2.8123,-2.7457,-2.6258,-2.5315,-2.4612,-2.3954,-2.3909,-2.4451,-2.4926,-2.4871,-2.4389,-2.4389,-2.4074,-2.3595,-2.3595,-2.3595,-2.367,-2.4343,-2.4193,-2.3684,-2.4328,-2.4149,-2.3595,0.0,0.0,0.0,0.0,0.0,0.0,0.0,0.0,0.0,0.0,0.0,0.0,0.0,0.0,0.0,0.0,1.7543,1.9815,0.0,2.3635,2.5176,2.5931,2.6233,2.6404,2.6493,2.6969,2.6637,2.5473,2.4477,2.3376,2.2207,2.1328,2.136,2.2141,2.2644,2.3806,2.476,1.4078,0.3763,-0.6309,-1.5709,-2.5256,-3.3674,-3.2276,-3.195,-3.2082,0.0,-3.0215,-3.0318,-3.052,-3.0506,-3.0457,-3.0517,-3.094,-3.1675,-3.3015,-3.3278,-3.3191,-3.3206,-3.3202,-3.3055,-3.2526,-3.2468,-3.2388,-3.1895,-3.1918,-3.1981,-3.1722,-3.2081,-3.2034,-3.0632,-3.0998,-3.0887,-2.9163,-2.931,-3.0216,-3.1961,-3.2193,-3.3297,-3.6289,-3.6652,0.0,0.0,0.0,0.0,-3.3142,-3.2562,-3.1572,-3.003,-3.0375,-3.025,-2.9422,-2.918,-2.8756,-2.8088,-2.7174,-2.6397,-2.5707,-2.5001,-2.4752,-2.495,-2.5144,-2.5105,-2.491,-2.4552,-2.4511,-2.4617,-2.4266,-2.4348,-2.4688,-2.4883,-2.4632,-2.4147,-2.4376,-2.4119,-2.3595,0.0,0.0,0.0,0.0,0.0,0.0,0.0,0.0,0.0,0.0,0.0,0.0,0.0,0.0,0.0,0.0,0.0,1.7311,1.9286,0.0,2.4157,2.5329,2.583,2.6086,2.6049,2.6433,2.5901,2.4419,2.3054,2.1866,2.0882,1.9399,1.9497,2.101,2.1232,2.061,1.875,0.8092,-0.2933,-1.398,-2.1809,-2.8523,-3.3682,-3.2414,-3.2178,0.0,-3.122,-3.0759,-3.0644,-3.0485,-3.036,-3.019,-2.9706,-2.9906,-3.0469,-3.1283,-3.1785,-3.2117,-3.2444,-3.2537,-3.2458,-3.1885,-3.1833,-3.1746,-3.1156,-3.1156,-3.1233,-3.0949,-3.1349,-3.1447,-3.0495,-3.1134,-3.1308,-2.9832,-2.998,-3.0878,-3.2512,-3.2661,-3.3856,-3.7239,-3.779,-3.823,0.0,0.0,0.0,-3.457,-3.374,-3.261,-3.1083,-3.1225,-3.094,-3.0081,-2.9848,-2.9248,-2.8336,-2.7644,-2.6814,-2.5894,-2.5637,-2.5503,-2.5486,-2.5672,-2.5635,-2.5449,-2.5144,-2.5067,-2.5182,-2.4831,-2.491,-2.5221,-2.5221,-2.4989,-2.4712,-2.4712,-2.4471,-2.4142,0.0,0.0,0.0,0.0,0.0,0.0,0.0,0.0,0.0,0.0,0.0,0.0,0.0,0.0,0.0,0.0,0.0,0.0,1.6876,0.0,2.2575,2.4612,2.5342,2.5672,2.5647,2.5211,2.3927,2.1839,1.9895,1.8336,1.7124,1.5641,1.6319,1.8791,1.7816,1.4508,0.8843,-0.1301,-1.0602,-1.9421,-2.8634,-3.2808,-3.3407,-3.2542,-3.2257,-3.2257,-3.1768,-3.1284,-3.0829,-3.0621,-3.0423,-3.0164,-2.9437,-2.909,-2.8853,-2.8355,-2.9645,-3.1117,-3.0734,-3.1146,-3.1642,-3.1235,-3.119,-3.1095,-3.046,-3.0764,-3.1103,-3.0574,-3.1427,-3.1859,0.0,0.0,-3.2144,-3.0688,-3.0533,-3.1199,-3.2959,-3.295,-3.4046,0.0,0.0,0.0,0.0,0.0,0.0,-3.6148,0.0,-3.335,-3.2405,-3.1681,-3.1275,-3.119,-3.0625,-2.9666,-2.8318,-2.7648,-2.6623,-2.5297,-2.5799,-2.6049,-2.6049,-2.6521,-2.647,-2.6049,-2.6013,-2.5726,-2.5243,-2.5259,-2.5259,-2.5297,-2.5297,-2.5259,-2.5259,-2.5259,-2.5221,-2.5128,0.0,0.0,0.0,0.0,0.0,0.0,0.0,0.0,0.0,0.0,0.0,0.0,0.0,0.0,0.0,0.0,0.0,0.0,1.3159,1.6491,1.9069,2.055,2.1936,2.2116,2.0902,2.1274,2.0964,1.9899,1.8873,1.7358,1.5386,1.5227,1.5525,1.6011,1.1633,0.5564,-0.1943,-0.9911,-1.9606,-2.9989,-3.3829,-3.4622,-3.3436,-3.2801,-3.2505,-3.231,-3.173,-3.1654,-3.1775,-3.1265,-3.012,-2.8801,-2.8164,-2.7517,-2.7195,-2.8072,-2.8574,-2.91,-3.0438,-3.0752,-3.0649,-3.0559,-3.1089,-3.1493,-3.087,-3.113,-3.1482,-3.1436,-3.1314,-3.1244,0.0,0.0,0.0,-3.2883,-3.3584,0.0,-3.5952,-3.5561,0.0,-3.8218,0.0,-3.8781,-3.9001,-3.8343,0.0,0.0,-3.5595,-3.4323,-3.3177,-3.2933,-3.2341,-3.1224,-3.0533,-2.9984,-2.9597,-2.8306,-2.7197,-2.6315,-2.647,-2.6505,-2.6521,-2.6657,-2.6624,-2.6505,-2.6156,-2.6104,-2.628,-2.5944,-2.5997,-2.6315,-2.6315,-2.6104,-2.5815,-2.5815,-2.554,-2.5259,0.0,0.0,0.0,0.0,0.0,0.0,0.0,0.0,0.0,0.0,0.0,0.0,0.0,0.0,0.0,0.0,0.0,0.0,0.0,1.3087,1.5672,1.8562,2.0196,1.9433,1.5923,1.5148,1.427,1.3195,1.1944,0.0,0.8637,0.7959,0.7831,0.7837,0.4022,-0.2426,-1.081,-1.5717,-2.365,0.0,0.0,-3.3754,-3.2356,-3.1936,-3.1828,0.0,0.0,0.0,0.0,0.0,0.0,-2.8008,-2.7182,-2.6346,-2.5927,-2.7142,-2.7556,-2.8033,-3.0094,-3.0493,-3.0335,-3.0617,-3.1244,-3.1612,-3.0922,-3.1408,-3.1934,-3.1637,-3.1699,-3.1866,-3.2063,-3.3668,-3.4773,0.0,0.0,0.0,-3.6724,-3.637,-3.672,0.0,-3.909,0.0,-3.8726,-3.805,-3.7202,0.0,-3.5584,-3.4702,-3.3482,-3.3085,-3.2391,-3.1241,-3.048,-2.9786,-2.911,-2.7926,-2.7114,-2.6691,-2.6691,-2.6691,-2.6691,-2.6691,-2.6691,-2.6691,0.0,-2.647,-2.6691,-2.6401,-2.647,-2.6691,-2.6691,-2.6556,-2.6297,-2.6297,-2.6139,-2.5908,0.0,0.0,0.0,0.0,0.0,0.0,0.0,0.0,0.0,0.0,0.0,0.0,0.0,0.0,0.0,0.0,0.0,0.0,0.0,0.0,0.0,0.0,1.7525,1.5776,1.0532,0.8105,0.6006,0.4226,0.2255,0.05,0.0,0.0,0.0,0.0,0.0,0.0,0.0,-2.0289,-2.5162,-3.1783,-3.2129,-3.1727,-3.0871,0.0,0.0,0.0,0.0,0.0,0.0,0.0,-3.0161,-2.7895,-2.6661,-2.5635,-2.5029,-2.5967,-2.6615,-2.7442,-2.9621,-3.0166,-3.0335,-3.1015,-3.1507,-3.1634,-3.1011,-3.1756,-3.2423,-3.1838,-3.2441,-3.313,-3.3263,-3.4624,-3.5542,-3.5128,0.0,-3.6302,-3.6835,-3.6632,-3.7077,-3.8847,-3.9345,-3.9313,-3.8615,-3.7574,-3.6361,-3.4889,-3.4934,-3.4524,-3.333,-3.2645,-3.1901,-3.1072,-3.0429,-2.9431,-2.7958,-2.7317,-2.6945,-2.6843,-2.6843,-2.6793,-2.6691,-2.6691,-2.6691,-2.6691,-2.6691,-2.6691,-2.6691,-2.6691,-2.6691,-2.6691,-2.6691,-2.6691,-2.6691,-2.6691,-2.6691,-2.6691,0.0,0.0,0.0,0.0,0.0,0.0,0.0,0.0,0.0,0.0,0.6357,0.0,0.0,0.0,0.0,0.0,0.0,0.0,0.0,0.0,0.0,0.0,0.6764,0.5959,0.3638,0.2337,0.0296,-0.2617,-0.4299,-0.7143,-1.1012,-1.276,-1.4382,-1.5882,-1.6926,-2.0733,-2.6442,-2.6303,-2.8109,-3.1075,-3.1905,-3.1434,-3.0384,0.0,0.0,0.0,0.0,0.0,0.0,0.0,-3.1168,-2.9334,-2.7285,-2.5692,-2.4704,-2.5357,-2.5683,-2.6342,-2.8851,-2.954,-2.9805,-3.0918,-3.1507,-3.1862,-3.2106,-3.2638,0.0,0.0,-3.3659,-3.3775,-3.471,-3.5641,-3.6654,-3.7802,-3.8465,-3.9005,-3.9455,-3.8977,-3.8594,0.0,-3.8273,-3.7845,-3.7716,-3.6224,0.0,0.0,-3.4133,-3.3379,-3.2527,-3.2381,-3.1664,-3.0345,-3.0176,-2.9685,-2.8789,-2.8653,-2.8264,-2.7621,-2.7621,-2.73,-2.6691,-2.6691,-2.6691,-2.6691,-2.6691,0.0,-2.6691,-2.6691,-2.6691,-2.6691,-2.6691,-2.6691,-2.6691,-2.6691,-2.6691,-2.6691,0.0,0.0,0.0,0.0,0.0,0.0,0.0,0.0,0.0,0.7723,0.674,0.5973,0.0,0.0,0.0,0.0,0.0,0.0,0.0,0.0,0.0,0.0,0.0,0.0,0.0,-0.5074,-0.6435,-0.7643,0.0,-1.1207,-1.4356,-1.5353,-1.7201,-1.9747,-2.0769,-2.3519,-2.7446,-2.7888,-2.8968,-3.042,-3.0863,-3.105,0.0,0.0,0.0,0.0,0.0,0.0,0.0,0.0,-3.2161,-3.0555,-2.7978,-2.6141,-2.5117,-2.5776,-2.6016,-2.6528,-2.8778,-2.9406,-2.9673,-3.0878,-3.1507,-3.1811,-3.1855,0.0,0.0,0.0,-3.4344,-3.4741,-3.5279,-3.6485,0.0,-3.7837,-3.9095,-4.0113,-4.0201,-4.0239,-4.0056,-3.9397,-3.8597,-3.7711,-3.6632,-3.5139,-3.3952,-3.3282,-3.2265,-3.1867,-3.2256,-3.1918,-3.1224,-3.0142,-3.0108,-2.9753,-2.9028,-2.9011,-2.8602,-2.7789,-2.7789,-2.7418,-2.6691,-2.6691,-2.6691,-2.6691,-2.6691,-2.6691,-2.6691,-2.6691,-2.6691,-2.6691,-2.6691,-2.6691,-2.6691,-2.6691,-2.6691,-2.6691,0.0,0.0,0.0,0.0,0.0,0.0,0.0,0.8646,0.8374,0.7777,0.6972,0.6373,0.6075,0.5137,0.351,0.0,0.0,0.0,0.0,0.0,0.0,0.0,0.0,0.0,0.0,0.0,0.0,-1.1316,-1.2608,0.0,0.0,0.0,0.0,0.0,-2.1983,-2.3991,-2.65,-2.8024,-2.9127,0.0,0.0,-3.0428,0.0,0.0,0.0,0.0,0.0,0.0,0.0,0.0,-3.2787,-3.1455,-2.874,-2.6949,-2.5889,-2.6218,-2.6576,-2.7253,-2.8965,-2.9496,-2.9848,-3.0918,-3.1507,-3.1724,-3.1396,-3.2286,0.0,-3.3707,-3.4563,-3.5353,-3.5696,-3.6827,-3.7676,0.0,-3.9032,-4.0262,-4.0348,-4.0998,-4.1047,0.0,-3.9111,0.0,-3.5788,-3.4273,0.0,-3.1896,-3.0728,-3.0531,-3.1551,-3.119,-3.0632,-2.9888,-3.0023,-2.982,-2.9228,-2.9381,-2.8991,-2.8078,-2.8078,-2.7588,-2.6691,-2.6691,-2.6691,-2.6691,-2.6691,-2.6691,-2.6691,-2.6691,-2.6691,-2.6691,-2.6691,-2.6691,-2.6691,-2.6691,-2.6691,-2.6691,0.0,0.0,0.0,0.0,0.0,0.0,0.0,0.8215,0.7777,0.7723,0.6712,0.6122,0.6473,0.5329,0.3205,0.0,0.0,0.0,0.0,0.0,0.0,0.0,0.0,0.0,0.0,0.0,0.0,-1.333,-1.5612,0.0,0.0,0.0,0.0,0.0,0.0,-2.4798,-2.6273,-2.8408,0.0,0.0,0.0,0.0,0.0,0.0,0.0,0.0,0.0,0.0,0.0,0.0,0.0,-3.1673,-2.9724,-2.8225,-2.7003,-2.5915,0.0,0.0,-2.9194,-2.9805,-3.0393,-3.1015,-3.1507,-3.1724,-3.1396,0.0,-3.3302,-3.3707,-3.4127,-3.4853,-3.6327,-3.6131,-3.644,-3.858,0.0,-3.9369,-4.0811,-4.1342,-4.1149,-4.0037,0.0,0.0,-3.5747,-3.3809,-3.2386,-3.1861,-3.0728,-2.9871,-2.935,-2.9871,-2.9854,-2.911,-2.9753,-3.0074,-3.0006,-3.0666,-3.0277,-2.8873,-2.8873,-2.8112,-2.6691,-2.6691,-2.6691,-2.6691,-2.6691,-2.6691,0.0,-2.6691,-2.6691,-2.6691,-2.6691,-2.6691,-2.6691,-2.6691,-2.6691,-2.6691,0.0,0.0,0.0,0.0,0.0,0.0,0.0,0.7812,0.7052,0.7015,0.6322,0.578,0.5525,0.4083,0.2257,0.0,0.0,0.0,0.0,0.0,0.0,0.0,0.0,0.0,0.0,0.0,-1.4216,-1.5691,-1.7811,0.0,0.0,0.0,0.0,0.0,0.0,-2.5212,-2.6859,-2.7634,0.0,0.0,0.0,0.0,0.0,0.0,0.0,0.0,0.0,0.0,-3.3843,0.0,0.0,0.0,-2.9386,-2.8699,0.0,0.0,-2.7704,-2.8516,-2.9632,-3.0123,-3.0502,-3.1338,-3.1696,-3.1795,-3.1734,0.0,-3.3302,-3.3707,-3.4292,-3.4925,-3.5563,-3.5836,-3.6304,-3.7252,0.0,0.0,-4.12,-4.1924,-4.1983,-4.1019,-3.9156,0.0,0.0,0.0,-3.1159,-2.9538,-2.9423,-2.889,-2.7672,-2.8755,-2.9296,-2.8991,-2.9262,-2.9431,-2.9431,-2.9719,-2.933,-2.8281,-2.8281,-2.7723,-2.6691,-2.6691,-2.6691,-2.6691,-2.6691,-2.6691,0.0,-2.6691,-2.6691,-2.6691,-2.6691,-2.6691,-2.6691,-2.6691,-2.6691,-2.6691,0.0,0.0,0.0,0.0,0.0,0.0,0.8103,0.7106,0.6362,0.6728,0.6032,0.5287,0.49,0.3748,0.2212,0.0201,0.0,0.0,0.0,0.0,0.0,0.0,0.0,0.0,0.0,0.0,-1.5847,-1.7654,-1.9687,-2.1238,0.0,0.0,-2.387,-2.5246,0.0,0.0,0.0,0.0,0.0,0.0,0.0,0.0,0.0,0.0,0.0,0.0,0.0,0.0,0.0,0.0,0.0,0.0,0.0,0.0,0.0,0.0,-2.8404,-2.9065,-3.0011,-3.0435,-3.0747,-3.1588,-3.188,-3.1933,0.0,0.0,-3.3451,-3.325,-3.4116,-3.4955,-3.5127,-3.5661,-3.6205,0.0,0.0,-4.0041,-4.1063,-4.2221,-4.2623,-4.1716,0.0,-3.8003,0.0,-3.2685,-3.0109,-2.7961,-2.8332,-2.8078,-2.6759,-2.7723,-2.8315,-2.8315,-2.8518,-2.8636,-2.8636,-2.8873,-2.8602,-2.7789,-2.7789,-2.7418,-2.6691,-2.6691,-2.6691,-2.6691,-2.6691,-2.6691,0.0,-2.6691,-2.6691,-2.6691,-2.6691,-2.6691,-2.6691,-2.6691,-2.6691,-2.6691,0.0,0.0,0.0,0.0,0.0,0.0,0.0,0.5991,0.5885,0.6941,0.5719,0.4736,0.4885,0.4893,0.3528,0.0269,0.0,0.0,0.0,0.0,0.0,0.0,0.0,0.0,0.0,0.0,-1.6967,-1.8967,-2.1347,-2.2979,-2.3977,-2.4539,-2.5179,-2.5915,0.0,0.0,0.0,0.0,0.0,0.0,0.0,0.0,0.0,0.0,0.0,0.0,0.0,0.0,0.0,0.0,0.0,0.0,0.0,-2.9341,-2.904,0.0,-2.8622,-3.009,-3.0237,-3.074,-3.1291,-3.1696,-3.2127,-3.2193,0.0,-3.2559,-3.3753,-3.2154,-3.336,-3.4854,-3.5403,-3.5504,-3.5936,-3.7261,0.0,0.0,-4.0207,-4.2036,-4.2848,0.0,0.0,-4.0117,-3.6453,-3.2481,-2.9465,-2.7943,-2.7789,0.0,-2.6742,-2.6708,-2.6708,-2.6708,-2.7435,-2.7806,-2.7806,-2.8602,-2.8602,-2.7789,-2.7789,-2.7418,-2.6691,-2.6691,-2.6691,-2.6691,-2.6691,-2.6691,0.0,-2.6691,-2.6691,-2.6691,-2.6691,-2.6691,-2.6691,-2.6691,-2.6691,-2.6691,0.0,0.0,0.0,0.0,0.0,0.0,0.0,0.5932,0.5175,0.6089,0.542,0.4918,0.5038,0.4051,0.2455,0.0201,0.0,0.0,0.0,0.0,0.0,0.0,0.0,0.0,0.0,0.0,-1.7936,-2.0624,-2.2944,-2.4655,-2.5716,-2.6252,-2.6639,-2.6857,-2.6627,-2.658,0.0,0.0,0.0,0.0,0.0,0.0,0.0,0.0,0.0,0.0,0.0,0.0,0.0,0.0,0.0,0.0,0.0,0.0,0.0,-2.9137,-2.9136,-2.96,-3.0699,-3.1116,-3.1357,-3.1817,-3.2054,-3.184,-3.0672,-3.1924,-3.3082,-3.2005,-3.3362,-3.4687,-3.4619,-3.4609,-3.5064,-3.6452,-3.7599,0.0,0.0,0.0,0.0,-4.0093,-3.8022,-3.5696,0.0,0.0,-2.9196,-2.7892,-2.7334,-2.6945,-2.6708,-2.6691,-2.6691,-2.6691,-2.6928,-2.7046,-2.7046,-2.73,-2.73,-2.7046,-2.7046,-2.6928,-2.6691,-2.6691,-2.6691,-2.6691,-2.6691,-2.6691,-2.6691,-2.6691,-2.6691,-2.6691,-2.6691,-2.6691,-2.6691,-2.6691,-2.6691,-2.6691,0.0,0.0,0.0,0.0,0.0,0.0,0.0,0.534,0.4878,0.591,0.54,0.5512,0.7007,0.512,0.214,-0.1673,0.0,0.0,0.0,0.0,0.0,0.0,0.0,0.0,0.0,-1.6824,-1.9245,-2.1833,-2.3825,-2.5362,-2.6505,-2.7324,-2.7736,-2.7705,-2.73,-2.7114,0.0,0.0,0.0,0.0,0.0,0.0,-3.0146,0.0,0.0,0.0,0.0,0.0,0.0,0.0,0.0,0.0,0.0,0.0,0.0,0.0,-2.9987,-2.994,-3.0876,-3.1291,-3.1469,-3.1617,-3.1598,0.0,0.0,-3.1427,-3.2415,-3.1915,-3.3081,-3.4198,-3.419,-3.4797,-3.5539,-3.6324,-3.8278,0.0,0.0,0.0,0.0,-4.0104,0.0,0.0,0.0,-3.0349,-2.8836,-2.7469,-2.6962,-2.6691,-2.6691,-2.6691,-2.6691,-2.6691,-2.6691,-2.6691,-2.6691,-2.6691,-2.6691,-2.6691,-2.6691,-2.6691,-2.6691,-2.6691,-2.6691,-2.6691,-2.6691,-2.6691,0.0,-2.6691,-2.6691,-2.6691,-2.6691,-2.6691,-2.6691,-2.6691,-2.6691,-2.6691,0.0,0.0,0.0,0.0,0.0,0.0,0.0,0.0,0.0,0.0,0.554,0.6212,0.9604,0.6976,0.2275,0.0,0.0,0.0,0.0,0.0,0.0,0.0,0.0,0.0,0.0,-1.8701,-2.0758,-2.2643,-2.4217,-2.5563,-2.6638,-2.7833,-2.841,-2.8414,-2.7998,-2.7789,0.0,0.0,0.0,0.0,0.0,0.0,0.0,0.0,0.0,0.0,0.0,0.0,0.0,0.0,0.0,0.0,0.0,0.0,0.0,0.0,0.0,0.0,0.0,-3.1381,-3.1728,-3.1364,-3.1117,-3.0857,0.0,0.0,0.0,-3.1728,-3.2613,-3.3559,-3.4097,-3.5747,-3.6964,-3.6808,-3.9936,0.0,0.0,-4.2756,0.0,0.0,-3.728,0.0,-3.2681,-3.0422,-2.8384,-2.6877,-2.6725,-2.6691,-2.6691,-2.6691,-2.6691,-2.6691,-2.6691,-2.6691,-2.6691,-2.6691,-2.6691,-2.6691,-2.6691,-2.6691,-2.6691,-2.6691,-2.6691,0.0,-2.6691,-2.6691,-2.6691,-2.6691,-2.6691,-2.6691,-2.6691,-2.6691,-2.6691,-2.6691,-2.6691,-2.6691,0.0,0.0,0.0,0.0,0.0,0.0,0.0,0.0,0.0,0.0,0.3875,0.3143,0.3786,0.2338,-0.0,0.0,0.0,0.0,0.0,0.0,0.0,0.0,0.0,0.0,0.0,-1.9961,-2.2067,-2.4272,-2.595,-2.7175,-2.7976,-2.8138,-2.8472,-2.882,-2.8117,-2.7789,0.0,0.0,0.0,0.0,0.0,0.0,0.0,0.0,0.0,0.0,-3.1541,-3.1562,0.0,0.0,0.0,0.0,0.0,0.0,0.0,0.0,-3.1966,-3.245,-3.2428,0.0,-3.2978,-3.2891,-3.2812,-3.2393,0.0,0.0,0.0,0.0,0.0,0.0,0.0,0.0,0.0,-3.7461,0.0,-4.0335,-4.0416,-4.0234,0.0,-3.7636,-3.5701,-3.3544,-3.1022,-2.9964,-2.8939,-2.7621,-2.7012,-2.6691,-2.6691,-2.6691,-2.6691,-2.6691,-2.6691,-2.6691,-2.6691,-2.6691,-2.6691,-2.6691,-2.6691,-2.6691,-2.6691,-2.6691,-2.6691,-2.6691,-2.6691,-2.6691,-2.6691,-2.6691,-2.6691,-2.6691,-2.6691,-2.6691,-2.6691,-2.6691,-2.6691,-2.6691,0.0,0.0,0.0,0.0,0.0,0.0,0.0,0.0,0.0,0.0,0.0,0.0,0.0,0.0,0.0,0.0,0.0,0.0,0.0,0.0,0.0,0.0,0.0,0.0,-1.937,-2.1523,-2.3473,-2.5313,-2.6911,-2.7957,-2.85,-2.8987,-2.9265,-2.9382,-2.8833,-2.8699,0.0,0.0,0.0,0.0,-3.0379,0.0,0.0,0.0,0.0,0.0,-3.1731,-3.1601,0.0,-3.0697,-3.0516,-3.0452,0.0,0.0,0.0,0.0,-3.2275,-3.2987,-3.3391,-3.354,-3.3483,-3.3123,-3.2655,-3.2034,-3.1035,0.0,0.0,0.0,0.0,0.0,0.0,0.0,0.0,0.0,-3.9502,0.0,0.0,0.0,-3.7679,-3.645,-3.4648,-3.2666,0.0,-2.9673,-2.8784,-2.7385,-2.6928,-2.6691,-2.6691,-2.6691,-2.6691,-2.6691,-2.6691,-2.6691,-2.6691,-2.6691,-2.6691,-2.6691,-2.6691,-2.6691,-2.6691,-2.6691,-2.6691,-2.6691,-2.6691,-2.6691,-2.6691,-2.6691,-2.6691,-2.6691,-2.6691,-2.6691,-2.6742,-2.708,-2.7199,-2.7266,0.0,0.0,0.0,0.0,0.0,0.0,0.0,0.0,0.0,0.0,0.0,0.0,0.0,0.0,0.0,0.0,0.0,0.0,0.0,0.0,0.0,0.0,0.0,-1.821,-2.0748,-2.2975,-2.4783,-2.6141,-2.7513,-2.8388,-2.8802,-2.9915,-3.0263,-3.0011,-2.9777,-2.9878,0.0,0.0,-3.0387,-3.2711,-3.1017,0.0,0.0,0.0,0.0,0.0,0.0,0.0,0.0,-3.0414,-3.0359,-3.0343,-3.0343,0.0,0.0,0.0,0.0,0.0,-3.393,-3.3916,-3.3516,-3.3096,-3.2188,-3.137,-3.1167,0.0,0.0,0.0,0.0,0.0,0.0,-3.5488,0.0,0.0,0.0,0.0,-4.1725,-3.9372,-3.7331,-3.6413,-3.4155,0.0,-3.0437,-2.9506,-2.8399,-2.6979,-2.6759,-2.6691,-2.6691,-2.6691,-2.6691,-2.6691,-2.6691,-2.6691,-2.6691,-2.6691,-2.6691,-2.6691,-2.6691,-2.6691,-2.6691,-2.6691,-2.6691,-2.6691,0.0,0.0,-2.6691,-2.6691,-2.6691,-2.6708,-2.6826,-2.686,-2.6962,-2.7723,-2.7994,-2.8129,0.0,0.0,0.0,0.0,0.0,0.0,0.0,0.0,0.0,0.0,0.0,0.0,0.0,0.0,0.0,0.0,0.0,0.0,0.0,0.0,0.0,0.0,-1.7578,-1.9154,-2.2133,-2.383,-2.5504,-2.7179,-2.847,-2.9251,-2.9551,-3.0189,-3.0515,-3.0577,-3.0525,-3.056,-3.0626,-3.0803,-3.1386,-3.2292,-3.2921,0.0,0.0,0.0,0.0,0.0,0.0,0.0,0.0,-3.0073,-2.9939,-3.0061,-3.0061,0.0,0.0,0.0,0.0,0.0,-3.3776,-3.3499,-3.3115,-3.438,-3.4037,-3.308,-3.1933,0.0,0.0,0.0,0.0,0.0,0.0,-3.5832,-3.7205,0.0,0.0,-4.096,0.0,0.0,-3.7955,-3.6486,0.0,-3.2657,-3.0411,-2.9472,-2.8602,-2.7723,-2.7046,-2.6691,-2.6691,-2.6691,-2.6691,-2.6691,-2.6691,-2.6691,-2.6691,-2.6691,-2.6691,-2.6691,-2.6691,-2.6691,-2.6691,-2.6691,-2.6691,-2.6691,0.0,-2.6691,-2.6691,-2.6691,-2.6691,-2.6759,-2.7402,-2.7638,-2.774,-2.8518,-2.8805,-2.8991,0.0,0.0,0.0,0.0,0.0,0.0,0.0,0.0,0.0,0.0,0.0,0.0,0.0,0.0,0.0,0.0,0.0,0.0,0.0,0.0,0.0,-1.7512,-1.8025,-1.9837,-2.3161,-2.4974,-2.6683,-2.8322,-2.9338,-2.992,-3.0094,-3.0471,-3.0894,-3.1271,-3.0855,-3.1046,-3.1649,-3.1196,-3.1879,-3.3202,0.0,0.0,0.0,0.0,0.0,0.0,0.0,0.0,0.0,0.0,-2.9746,-2.9861,-2.9969,0.0,0.0,0.0,0.0,0.0,-3.2459,-3.2622,-3.2727,-3.3186,-3.2806,-3.2122,0.0,0.0,0.0,0.0,0.0,0.0,0.0,0.0,-3.7156,-3.9198,0.0,-4.0007,-3.973,-3.8167,-3.6371,0.0,0.0,-3.1421,-2.9756,-2.8851,-2.8133,-2.7569,-2.6655,-2.6197,-2.6436,-2.623,-2.6116,-2.6116,-2.6488,-2.6691,-2.6691,-2.6691,-2.6691,-2.6691,-2.6691,-2.6691,-2.6691,-2.6691,-2.6691,-2.6691,0.0,-2.6691,-2.6691,-2.6691,-2.6691,-2.6776,-2.752,-2.7789,-2.7975,-2.96,-3.0429,-3.092,0.0,0.0,0.0,0.0,0.0,0.0,0.0,0.0,0.0,0.0,0.0,0.0,0.0,0.0,0.0,0.0,0.0,0.0,0.0,0.0,-1.4955,-1.7512,-1.8247,-2.0298,-2.3888,-2.5606,-2.7336,-2.9091,-2.9838,-3.0264,-3.042,-3.0675,-3.1052,-3.153,-3.1185,-3.1584,-3.2479,-3.1849,-3.257,-3.4011,0.0,0.0,0.0,0.0,0.0,0.0,0.0,0.0,0.0,0.0,0.0,0.0,0.0,0.0,0.0,-3.0196,-3.0681,-3.1123,-3.1255,-3.16,-3.1851,-3.1592,0.0,0.0,0.0,0.0,0.0,0.0,0.0,0.0,0.0,-3.5881,0.0,-3.9294,-3.946,-3.8964,-3.7918,-3.6206,-3.4492,-3.2958,-3.1404,-3.0122,-2.9299,-2.8435,-2.7827,-2.7584,-2.6453,-2.5945,-2.6437,-2.59,-2.5693,-2.5862,-2.6404,-2.6607,-2.6437,-2.6607,-2.6691,-2.6691,-2.6691,-2.6691,-2.6691,-2.6691,-2.6691,-2.6691,-2.6691,-2.6691,-2.6708,-2.6894,-2.686,-2.681,-2.7926,-2.845,-2.8839,-3.0751,-3.1799,-3.2408,0.0,0.0,0.0,0.0,0.0,0.0,0.0,0.0,0.0,0.0,0.0,0.0,0.0,0.0,0.0,0.0,0.0,0.0,0.0,0.0,-1.4192,-1.7446,-1.8247,-2.0324,-2.4105,-2.5057,-2.6692,-2.9108,-2.9581,-3.0052,-3.0501,-3.0695,-3.0794,-3.082,-3.1895,-3.2431,-3.2565,-3.3558,-3.3907,-3.3876,-3.4311,0.0,0.0,0.0,0.0,0.0,0.0,0.0,0.0,0.0,0.0,0.0,0.0,0.0,-2.9041,-2.9799,-2.9673,-2.9567,-3.093,-3.0617,-3.0036,-3.0558,-3.0667,0.0,-3.1254,-3.0932,0.0,-3.2176,0.0,0.0,0.0,-3.6321,-3.7698,-3.8634,-3.8157,-3.7881,-3.8524,0.0,-3.3429,-3.3248,-3.1154,-2.9657,-2.9586,-2.8812,-2.8364,-2.8328,-2.6978,-2.6459,-2.7182,-2.6173,-2.5913,-2.659,-2.6657,-2.637,-2.5693,-2.6353,-2.6691,-2.6691,-2.6691,-2.6691,-2.6691,-2.6691,-2.6691,-2.6691,-2.6691,-2.6691,-2.6742,-2.7452,-2.7334,-2.6911,-2.9093,-3.0362,-3.1055,-3.1901,-3.2239,-3.2476,0.0,0.0,0.0,0.0,0.0,0.0,0.0,0.0,0.0,0.0,0.0,0.0,0.0,0.0,0.0,0.0,0.0,0.0,0.0,0.0,-1.5034,-1.749,-1.8247,-2.0496,-2.4489,-2.545,-2.7069,-2.9475,-2.9778,-3.049,-3.155,-3.0872,-3.1011,-3.1791,-3.1462,-3.1477,-3.1788,-3.1981,-3.2462,-3.3081,-3.3297,-3.3219,0.0,0.0,0.0,0.0,0.0,0.0,0.0,0.0,-2.9067,-2.9181,-2.9351,-2.9382,-2.9447,-2.9874,-2.9966,-2.9965,-3.0231,-2.9829,-2.9303,-2.9242,-2.9089,0.0,0.0,-3.0507,-3.0646,-3.1648,-3.2323,0.0,0.0,0.0,-3.6835,-3.7165,-3.7367,-3.6978,-3.5545,-3.3911,-3.2304,-3.0868,-2.9388,-2.839,-2.8204,-2.7684,-2.7545,-2.8057,-2.6674,-2.6165,-2.6946,-2.6107,-2.5524,-2.5321,-2.5778,-2.5659,-2.4915,-2.5642,-2.6031,-2.6031,-2.6471,-2.6691,-2.6691,-2.6691,-2.6691,-2.6691,-2.6691,-2.6691,-2.6708,-2.6996,-2.7232,-2.7571,-2.9397,-3.0548,-3.1326,-3.2544,-3.2983,-3.3186,0.0,0.0,0.0,0.0,0.0,0.0,0.0,0.0,0.0,0.0,0.0,0.0,0.0,0.0,0.0,0.0,0.0,0.0,-1.2824,-1.3803,-1.529,-1.7321,-1.8236,-2.0634,-2.4722,-2.5429,-2.7024,-2.9619,-2.9728,-3.0301,-3.1213,-3.0549,-3.0639,-3.137,-3.0953,-3.0938,-3.1225,-3.121,-3.1673,-3.2464,-3.2747,-3.297,0.0,0.0,0.0,0.0,0.0,0.0,0.0,0.0,-2.9067,-2.9062,-2.931,-2.9364,-2.9389,-2.9863,-3.0004,-2.9953,-2.9756,-2.942,-2.8989,-2.8517,0.0,0.0,-2.9554,-2.9857,-3.0075,-3.0875,-3.1573,-3.2401,-3.3497,0.0,0.0,0.0,-3.5241,-3.4945,-3.301,-3.1898,-3.0709,-2.9105,-2.806,-2.7352,-2.7135,-2.6971,-2.7178,-2.784,-2.658,-2.6178,-2.7101,-2.6165,-2.5372,-2.4847,-2.5338,-2.5253,-2.4523,-2.5236,-2.5609,-2.5609,-2.6353,-2.6691,-2.6691,-2.6691,-2.6691,-2.6691,-2.6691,-2.6691,-2.6708,-2.6945,-2.7638,-2.8653,-2.9702,-3.0683,-3.1698,-3.2949,-3.3558,-3.3931,0.0,0.0,0.0,0.0,0.0,0.0,0.0,0.0,0.0,0.0,0.0,0.0,0.0,0.0,0.0,0.0,0.0,0.0,-1.2428,-1.3071,-1.4512,-1.6912,-1.8248,-2.0743,-2.4705,-2.4808,-2.6322,-2.9397,-2.9388,-2.93,-2.9127,-2.9665,-2.959,-2.9095,-3.0476,-3.1107,-3.1114,-3.1794,-3.2071,-3.2147,-3.3033,-3.3014,-3.2508,0.0,0.0,0.0,0.0,0.0,0.0,0.0,-2.9222,-2.9062,-2.931,-2.8952,-2.8617,-2.9692,-2.9583,-2.9205,-2.9604,-2.9401,-2.8989,0.0,0.0,0.0,-2.8912,-2.9089,-2.9319,-3.013,-3.0603,-3.0866,-3.0884,-3.1526,0.0,-3.1551,-3.1489,-3.1489,-3.144,-2.9755,-2.8494,-2.8494,-2.7416,-2.6674,-2.6674,-2.7051,-2.7439,-2.7869,-2.6848,-2.6685,-2.7816,-2.644,-2.5609,-2.5609,-2.5609,-2.5236,-2.4523,-2.5236,-2.5609,-2.5609,-2.6353,-2.6691,-2.6691,-2.6691,-2.6691,-2.6691,-2.6691,-2.6691,-2.6759,-2.752,-2.8721,-3.0091,-3.0125,-3.1004,-3.2374,-3.3136,-3.388,-3.4607,0.0,0.0,0.0,0.0,0.0,0.0,0.0,0.0,0.0,0.0,0.0,0.0,0.0,0.0,0.0,0.0,0.0,0.0,-1.3761,-1.438,-1.5438,-1.7012,-1.8219,-2.0299,-2.3475,-2.6214,-2.8059,-2.8976,-2.9266,-2.9727,-3.0368,-3.0061,-3.0216,-3.0736,-3.0559,-3.0461,-3.0469,-3.0486,-3.0779,-3.128,-3.1574,-3.2034,-3.2523,0.0,0.0,0.0,0.0,0.0,0.0,0.0,0.0,0.0,-2.931,-2.9776,-3.02,-3.0049,-3.0445,-3.074,-2.9926,-2.923,0.0,-2.8183,0.0,0.0,0.0,-2.8281,0.0,0.0,-2.9231,-2.872,-3.0212,-2.9521,0.0,-2.9768,-2.987,-2.9603,-2.8754,-2.8097,-2.7411,-2.6563,-2.6146,-2.593,-2.593,-2.6519,-2.7051,-2.7439,-2.6908,-2.6828,-2.7422,-2.6302,-2.5609,-2.5609,-2.5101,-2.4712,-2.4506,-2.5236,-2.5609,-2.5609,-2.6353,-2.6691,-2.6691,-2.6691,-2.6691,-2.6691,-2.6691,-2.6691,-2.6793,-2.8095,-2.8907,-2.9465,-3.1021,-3.1901,-3.2425,-3.3694,-3.4303,-3.4607,0.0,0.0,0.0,0.0,0.0,0.0,0.0,0.0,0.0,0.0,-0.646,-0.7208,0.0,0.0,0.0,0.0,0.0,0.0,0.0,-1.5076,-1.5822,-1.6776,-1.7944,-2.0073,-2.3162,-2.6436,-2.8266,-2.8643,-2.9158,-2.9679,-3.0189,-2.9864,-3.0101,-3.0764,-3.0377,-3.0203,-3.02,-3.0126,-3.0367,-3.0803,-3.1193,-3.1723,-3.2324,0.0,0.0,0.0,0.0,0.0,0.0,0.0,0.0,0.0,-3.0171,0.0,-3.1482,-3.0461,-3.0905,-3.1465,-3.0167,-2.9212,0.0,-2.8111,-2.7357,-2.6691,-2.6691,0.0,0.0,0.0,-2.7657,-2.7102,-2.8076,-2.7244,0.0,-2.7233,-2.7332,-2.7086,-2.6333,-2.6251,-2.5973,-2.5234,-2.5152,-2.5287,-2.5575,-2.5998,-2.6567,-2.7238,-2.6939,-2.6873,-2.7272,-2.648,-2.5913,-2.5625,-2.5169,-2.4932,-2.4932,-2.5389,-2.5761,-2.6048,-2.6488,-2.6691,-2.6691,-2.6691,-2.6691,-2.6691,-2.6691,-2.6691,-2.6793,-2.801,-2.8704,-2.918,-3.0784,-3.1952,-3.2831,-3.3728,-3.4438,-3.5013,0.0,0.0,0.0,0.0,0.0,0.0,0.0,0.0,0.0,0.0,-0.6653,-0.7128,0.0,0.0,0.0,0.0,0.0,0.0,0.0,0.0,-1.6058,-1.6541,-1.7831,-2.0112,-2.3465,-2.5831,-2.7451,-2.832,-2.9045,-2.9342,-2.9194,-2.9382,-2.9588,-2.981,-3.0094,-3.0243,-3.0246,-3.0496,-3.0603,-3.0656,-3.144,-3.1765,-3.1882,-3.29,0.0,0.0,0.0,0.0,0.0,0.0,0.0,0.0,-3.1588,-3.2062,-3.2524,-3.1068,-3.1254,-3.1661,-3.0527,-2.9457,0.0,-2.8345,-2.749,0.0,-2.6691,-2.6691,-2.6621,-2.6316,0.0,-2.5883,-2.5259,-2.4993,-2.4787,-2.4448,-2.4421,-2.4421,-2.4421,-2.4421,-2.4421,-2.4421,-2.4421,-2.4644,-2.5338,-2.5456,-2.5956,-2.7054,-2.6804,-2.6805,-2.7224,-2.6838,-2.6319,-2.5727,-2.5642,-2.5642,-2.571,-2.571,-2.6048,-2.6691,-2.6691,-2.6691,-2.6691,-2.6691,-2.6691,-2.6691,-2.6691,-2.6691,-2.6759,-2.7588,-2.8349,-2.9076,-3.0023,-3.163,-3.3423,-3.3558,-3.4455,-3.5577,0.0,0.0,0.0,0.0,0.0,0.0,0.0,0.0,0.0,0.0,0.0,0.0,0.0,0.0,0.0,0.0,0.0,0.0,0.0,0.0,-1.7612,-1.7733,-1.9604,-2.144,-2.3096,-2.5943,-2.7488,-2.7686,-2.8887,-2.9626,-2.9972,-3.0059,-3.0211,-3.0408,-3.0474,-3.0508,-3.0522,-3.0576,-3.0569,-3.0531,-3.0722,-3.0798,-3.0977,-3.259,-3.3203,0.0,0.0,0.0,0.0,0.0,0.0,0.0,-3.2289,-3.2962,-3.3569,-3.2773,-3.2667,-3.2667,-3.1981,-3.0431,0.0,0.0,-2.7795,-2.6691,-2.6691,-2.6691,-2.6674,-2.6621,-2.5884,-2.5298,-2.5459,-2.4248,-2.3315,-2.3587,-2.363,-2.363,-2.363,-2.363,-2.363,-2.363,-2.363,-2.3697,-2.3849,-2.4391,-2.5096,-2.5907,-2.591,-2.6115,-2.6774,-2.6215,-2.6031,-2.6437,-2.5896,-2.5879,-2.6454,-2.6454,-2.6539,-2.6691,-2.6691,-2.6691,-2.6691,-2.6691,-2.6691,-2.6691,-2.6691,-2.6691,-2.681,-2.818,-2.8822,-2.9228,-3.1715,-3.2983,-3.3541,-3.4709,-3.5351,-3.5515,0.0,0.0,0.0,0.0,0.0,0.0,0.0,0.0,0.0,0.0,0.0,0.0,0.0,0.0,0.0,0.0,0.0,0.0,0.0,0.0,0.0,-1.7747,-1.8786,-2.0119,-2.173,-2.4416,-2.6258,-2.7257,-2.8856,-2.966,-2.9679,-2.9998,-3.0249,-3.0417,-3.0534,-3.0593,-3.0596,-3.0625,-3.0619,-3.0559,-3.0544,-3.0554,-3.0735,-3.2517,-3.3191,-3.3418,-3.5015,0.0,0.0,0.0,0.0,0.0,0.0,0.0,-3.4588,-3.3483,-3.3141,-3.2978,-3.2139,0.0,0.0,-2.8845,0.0,-2.7468,-2.7267,-2.7232,-2.7131,-2.6776,-2.5666,-2.4616,-2.4117,-2.3181,-2.2583,-2.2829,-2.2868,-2.2868,-2.2868,-2.2868,-2.2868,-2.2868,-2.2868,-2.3004,-2.3359,-2.3748,-2.4272,-2.5017,-2.5406,-2.5609,-2.5642,-2.5625,-2.5795,-2.6167,-2.5812,-2.5947,-2.6691,-2.6691,-2.6691,-2.6691,-2.6691,-2.6691,-2.6691,-2.6691,-2.6691,-2.6691,-2.6691,-2.6691,-2.6759,-2.7554,-2.8315,-2.9127,-3.0375,-3.1708,-3.2984,-3.3445,-3.4046,-3.4609,0.0,0.0,0.0,0.0,0.0,0.0,0.0,0.0,0.0,0.0,0.0,0.0,0.0,0.0,0.0,0.0,0.0,0.0,0.0,0.0,0.0,-1.7463,-1.7706,-1.8658,-2.0382,-2.2929,-2.5117,-2.6887,-2.8816,-2.957,0.0,-2.9745,-3.0078,-3.0227,-3.0442,-3.056,-3.0601,-3.0651,-3.0624,-3.0581,-3.0528,-3.0535,-3.0776,-3.2472,-3.3147,-3.3427,-3.51,-3.5696,-3.5663,-3.5541,0.0,0.0,0.0,0.0,-3.5252,-3.3988,-3.3307,-3.2827,-3.2122,0.0,-2.9446,-2.8694,-2.8566,0.0,-2.7911,-2.7789,-2.7536,-2.6691,-2.5423,-2.412,-2.2902,-2.2479,-2.231,-2.231,-2.231,-2.231,-2.231,-2.231,-2.231,-2.231,-2.231,-2.2547,-2.3139,-2.3207,-2.3511,-2.4239,-2.4881,-2.5017,-2.454,-2.5067,-2.5473,-2.5609,-2.5609,-2.5947,-2.6691,-2.6691,-2.6691,-2.6691,-2.6691,-2.6623,-2.6505,-2.664,-2.6691,-2.6691,-2.6691,-2.6691,-2.6708,-2.6843,-2.7706,-2.8972,-2.8627,-3.0103,-3.2348,-3.187,-3.2478,-3.3582,0.0,0.0,0.0,0.0,0.0,0.0,0.0,0.0,0.0,0.0,-0.725,-0.8521,0.0,0.0,0.0,0.0,0.0,0.0,0.0,0.0,0.0,-1.8027,-1.9276,-2.0144,-2.049,-2.3813,-2.5819,-2.64,-2.8566,0.0,0.0,0.0,0.0,-3.0292,-3.0312,-3.0432,-3.0608,-3.0547,-3.0521,-3.0488,-3.0201,-3.026,-3.069,-3.2182,-3.2957,-3.3427,-3.51,-3.5671,-3.5514,-3.487,-3.508,0.0,0.0,0.0,-3.4746,-3.5167,-3.3766,-3.2282,0.0,0.0,-3.0631,0.0,-2.9173,-2.9143,0.0,0.0,-2.7401,0.0,-2.5067,-2.4455,-2.4222,-2.3156,-2.231,-2.231,-2.231,-2.231,-2.231,-2.231,-2.231,-2.231,-2.231,-2.2344,-2.2446,-2.2462,-2.275,-2.3477,-2.363,-2.3917,-2.4472,-2.4608,-2.4932,-2.5592,-2.5609,-2.5947,-2.6691,-2.6691,-2.6691,-2.6691,-2.6691,-2.637,-2.5778,-2.6404,-2.6691,-2.6691,-2.6691,-2.6691,-2.6742,-2.7402,-2.8197,-2.9073,-2.9739,-3.0974,-3.2397,-3.2418,-3.296,-3.3547,0.0,0.0,0.0,0.0,0.0,0.0,0.0,0.0,0.0,0.0,0.0,-0.9134,0.0,0.0,0.0,0.0,0.0,0.0,0.0,0.0,0.0,-1.8574,-1.8604,-1.928,-2.0565,-2.2706,-2.4577,-2.6195,0.0,0.0,0.0,-2.9061,-2.9456,0.0,0.0,0.0,-3.0375,-3.0346,-3.0293,-3.0208,-2.9935,-2.992,-3.0232,-3.1821,-3.2507,-3.2872,-3.4762,-3.5392,-3.5361,-3.5301,-3.5494,-3.5624,-3.4741,0.0,0.0,0.0,-3.3103,0.0,-3.1824,-3.1501,-3.0988,0.0,-3.0181,-2.9925,-2.9022,0.0,-2.7485,-2.6437,-2.5287,-2.4388,-2.3951,-2.3021,-2.231,-2.231,-2.231,-2.231,-2.231,-2.231,-2.231,-2.231,-2.231,-2.231,-2.231,-2.231,-2.2446,-2.2767,-2.3173,-2.3359,-2.3274,-2.4036,-2.4659,-2.4966,-2.5389,-2.5947,-2.6691,-2.6691,-2.6691,-2.6691,-2.6285,-2.5913,-2.5625,-2.5947,-2.6082,-2.6116,-2.6522,-2.6691,-2.6725,-2.7046,-2.7698,-2.8505,-2.8543,-2.9717,-3.1307,-3.1021,-3.155,-3.2407,0.0,0.0,0.0,0.0,0.0,0.0,0.0,0.0,0.0,0.0,0.0,0.0,0.0,0.0,0.0,0.0,0.0,0.0,0.0,0.0,0.0,-1.8979,-1.84,-1.8891,-2.0618,-2.195,-2.3744,-2.6067,0.0,0.0,-2.8701,-2.8484,-2.8937,0.0,-3.0013,-3.0075,0.0,0.0,-3.0054,-2.9908,-2.9713,-2.9643,-2.9847,0.0,0.0,-3.2146,-3.4063,0.0,0.0,0.0,-3.5617,-3.5669,-3.4578,-3.4204,0.0,0.0,0.0,0.0,0.0,0.0,-3.1436,-3.1241,-3.098,-3.0568,0.0,0.0,-2.764,0.0,-2.5389,-2.4255,-2.3528,-2.2801,-2.231,-2.231,-2.231,-2.231,-2.231,-2.231,-2.231,-2.231,-2.231,-2.231,-2.231,-2.231,-2.231,-2.231,-2.2818,-2.2885,-2.2344,-2.3511,-2.432,-2.4506,-2.522,-2.5947,-2.6691,-2.6691,-2.6691,-2.6691,-2.5947,-2.5507,-2.5338,-2.5524,-2.5507,-2.5372,-2.6302,-2.6691,-2.6708,-2.6741,-2.7278,-2.8033,-2.746,-2.856,-3.0454,-2.9818,-3.0417,-3.1482,0.0,0.0,0.0,0.0,0.0,0.0,0.0,0.0,0.0,0.0,0.0,0.0,0.0,-1.347,-1.533,-1.7014,-1.7746,-1.8627,-1.9916,-2.0555,-2.0374,-1.9235,-1.9864,0.0,-2.0498,-2.268,-2.4524,0.0,0.0,0.0,-2.9521,-2.8755,-2.8853,-2.9628,-2.9696,-2.9729,-2.9729,0.0,0.0,0.0,0.0,0.0,0.0,0.0,0.0,0.0,0.0,0.0,0.0,0.0,0.0,0.0,0.0,-3.3264,-3.3213,0.0,0.0,0.0,0.0,-3.192,0.0,-3.1645,-3.1316,0.0,0.0,0.0,-2.7837,-2.6012,-2.5033,-2.4255,-2.3528,-2.2801,-2.231,-2.231,-2.231,-2.231,-2.231,-2.231,-2.231,-2.231,-2.231,-2.231,-2.231,-2.231,-2.231,-2.231,-2.2344,-2.2344,-2.231,-2.3038,-2.3765,-2.4489,-2.522,-2.5947,-2.6691,-2.6691,-2.6691,-2.6691,-2.5947,-2.5236,-2.4591,-2.5287,-2.522,-2.4659,-2.6065,-2.6691,-2.6708,-2.6833,-2.735,-2.8043,-2.7567,-2.8649,-3.0454,-2.9818,-3.0417,-3.1482,0.0,0.0,0.0,0.0,0.0,0.0,0.0,0.0,0.0,0.0,0.0,0.0,0.0,-1.4007,-1.5648,-1.8034,-1.9506,-2.0476,-2.094,-2.1193,-2.1115,-2.0703,-2.0528,-2.1155,-2.2655,-2.2849,-2.413,0.0,0.0,-2.6852,-2.8246,-2.7845,-2.8052,-2.8835,-2.9302,-2.957,-2.9713,-2.9763,0.0,0.0,0.0,0.0,0.0,0.0,0.0,0.0,0.0,0.0,0.0,0.0,0.0,0.0,0.0,0.0,0.0,0.0,0.0,0.0,0.0,0.0,0.0,-3.1513,-3.1092,-3.0555,-2.9856,-2.8645,-2.7437,-2.6503,-2.5338,-2.4438,-2.4137,-2.3122,-2.231,-2.231,-2.231,-2.2348,-2.2471,-2.2794,-2.3038,-2.3183,-2.3483,-2.3697,-2.3697,-2.3697,-2.3697,-2.3697,-2.3697,-2.3697,-2.3697,-2.4408,-2.4932,-2.5203,-2.5913,-2.6201,-2.5998,-2.5998,-2.5761,-2.527,-2.4543,-2.4052,-2.3816,-2.4543,-2.4729,-2.4591,-2.6048,-2.6691,-2.6708,-2.6846,-2.715,-2.7515,-2.7436,-2.8419,-2.9925,-2.9672,-3.0417,-3.1482,0.0,0.0,0.0,0.0,0.0,0.0,0.0,0.0,0.0,0.0,0.0,0.0,0.0,0.0,-1.6286,-1.8852,-2.0687,-2.1761,-2.1843,-2.2001,-2.2001,-2.1888,-2.1569,-2.2059,-2.3473,-2.3274,-2.4262,0.0,0.0,0.0,0.0,-2.7468,-2.7643,-2.7921,-2.8437,-2.9008,0.0,0.0,0.0,-2.9877,0.0,0.0,-2.9429,0.0,0.0,0.0,0.0,0.0,0.0,0.0,0.0,0.0,0.0,0.0,0.0,0.0,0.0,0.0,-3.0817,0.0,0.0,0.0,0.0,-3.0198,-2.9444,0.0,-2.729,-2.6194,-2.5372,-2.478,-2.4557,-2.3697,-2.2811,-2.2173,-2.2209,-2.2329,-2.241,-2.2981,-2.3435,-2.3454,-2.4096,-2.4444,-2.4255,-2.4397,-2.4506,-2.4506,-2.4506,0.0,-2.4506,-2.5203,-2.5609,-2.5609,-2.5828,-2.5727,-2.5236,-2.5236,-2.4983,-2.4506,-2.3748,-2.3393,-2.3427,-2.4154,-2.434,-2.4235,-2.5947,-2.6624,-2.6503,-2.6623,-2.6792,-2.6922,-2.7088,-2.8016,-2.928,-2.9505,-3.0253,-3.1225,0.0,0.0,0.0,0.0,0.0,0.0,0.0,0.0,0.0,-0.8731,0.0,0.0,0.0,0.0,0.0,-1.9483,-2.116,-2.2283,-2.2599,-2.301,-2.3034,-2.2642,-2.2982,-2.3063,-2.2731,-2.3964,-2.5018,0.0,0.0,0.0,0.0,0.0,-2.7642,-2.6916,-2.7111,-2.8013,-2.9359,0.0,-2.9695,-2.9696,0.0,-2.9394,-2.9412,0.0,0.0,0.0,-3.1411,-3.2477,0.0,-3.4798,0.0,0.0,0.0,0.0,0.0,0.0,0.0,0.0,0.0,0.0,0.0,0.0,0.0,0.0,-2.9028,0.0,-2.7549,-2.5116,-2.5167,-2.5438,-2.4692,-2.4523,-2.3863,-2.1986,-2.2041,-2.2278,-2.2082,-2.2861,-2.3331,-2.3067,-2.3935,-2.4353,-2.3786,-2.4242,-2.4543,-2.4543,-2.4543,-2.4574,-2.4574,-2.522,-2.5609,-2.5609,-2.4864,-2.4506,-2.4472,-2.4472,-2.4472,-2.4438,-2.3697,-2.3376,-2.3427,-2.4154,-2.4133,-2.3579,-2.5744,-2.6401,-2.599,-2.614,-2.6272,-2.6409,-2.6557,-2.741,-2.8682,-2.931,-2.9953,-3.0597,0.0,0.0,0.0,0.0,0.0,0.0,0.0,0.0,-0.9186,0.0,0.0,0.0,-1.6312,-1.8346,-1.9916,-2.0766,-2.2099,-2.3052,-2.3379,-2.3504,-2.3397,-2.3058,-2.3083,-2.3207,-2.3408,-2.4003,-2.462,0.0,0.0,0.0,0.0,0.0,0.0,0.0,-2.7407,-2.7727,-2.8131,-2.8793,0.0,-3.0169,-2.9943,-2.9765,0.0,0.0,0.0,0.0,0.0,-3.2108,-3.3563,0.0,-3.4582,-3.3832,0.0,0.0,0.0,0.0,0.0,0.0,-3.072,0.0,0.0,0.0,0.0,0.0,-2.9267,-2.9343,-2.9075,-2.731,-2.6926,-2.6674,-2.5855,-2.5047,-2.4216,-2.3389,-2.3289,-2.3358,-2.3506,-2.4025,-2.4305,-2.403,-2.5264,-2.5748,-2.4887,-2.5595,-2.5933,0.0,-2.59,-2.6082,-2.6082,-2.5778,-2.5609,-2.5609,-2.4864,-2.4222,-2.3697,-2.3697,-2.3427,-2.2919,-2.2699,-2.2885,-2.3427,-2.4154,-2.4661,-2.5036,-2.5848,-2.5908,-2.5476,-2.5966,-2.6272,-2.6409,-2.6557,-2.741,-2.8622,-2.8801,-2.9564,-3.0537,0.0,0.0,0.0,0.0,0.0,0.0,0.0,0.0,-1.0463,0.0,0.0,0.0,-1.8124,-2.0231,-2.1467,-2.162,-2.2591,-2.3346,-2.3671,-2.3816,-2.3692,-2.3212,-2.3467,-2.3621,-2.3687,-2.4182,-2.4731,0.0,0.0,0.0,0.0,0.0,0.0,0.0,0.0,0.0,0.0,0.0,0.0,0.0,-2.9865,0.0,0.0,-2.9159,-2.9525,0.0,0.0,0.0,-3.3063,-3.3807,-3.3589,0.0,0.0,0.0,0.0,0.0,0.0,0.0,0.0,0.0,0.0,0.0,0.0,0.0,-2.9129,-2.9303,-2.9286,-2.7864,-2.7586,-2.7467,-2.7,-2.6221,-2.5695,-2.5762,-2.5413,-2.4808,-2.3935,-2.4382,-2.4624,-2.4107,-2.5227,-2.5746,-2.4934,-2.5783,-2.6297,-2.6013,-2.6436,-2.6691,-2.6691,-2.571,-2.5135,-2.5135,-2.412,-2.3376,-2.2953,-2.2936,-2.2733,-2.231,-2.231,-2.2699,-2.3427,-2.4154,-2.4712,-2.5186,-2.5949,-2.5707,-2.4814,-2.5479,-2.5905,-2.6077,-2.6161,-2.6991,-2.8203,-2.8502,-2.9071,-2.9789,0.0,0.0,0.0,0.0,0.0,0.0,0.0,0.0,0.0,0.0,-1.5694,-1.7556,-2.018,-2.1592,-2.2298,-2.2235,-2.2813,-2.3369,-2.3735,-2.4036,0.0,-2.3212,-2.3837,-2.3974,-2.3506,-2.4363,-2.5009,0.0,0.0,0.0,0.0,0.0,0.0,0.0,0.0,0.0,0.0,0.0,0.0,-2.9025,-2.9532,-2.9531,0.0,0.0,-2.9562,-2.988,-3.0694,-3.155,-3.2359,-3.2606,-3.2226,0.0,0.0,0.0,0.0,0.0,-3.0163,0.0,0.0,0.0,0.0,0.0,-3.0462,0.0,-2.8953,-2.9023,-2.8981,-2.7662,-2.7803,-2.8126,-2.8037,-2.7648,-2.7608,-2.8357,-2.7792,-2.6454,-2.4256,-2.4648,-2.4857,-2.3994,-2.4845,-2.5226,-2.4486,-2.5362,-2.597,-2.5941,-2.6401,-2.6691,-2.6691,-2.5372,-2.4611,-2.4611,-2.319,-2.2429,-2.2429,-2.2344,-2.2344,-2.2429,-2.2344,-2.2784,-2.3663,-2.4222,-2.4577,-2.4734,-2.6,-2.5617,-2.4169,-2.4773,-2.5206,-2.5495,-2.5495,-2.6303,-2.7545,-2.8143,-2.8517,-2.8876,0.0,0.0,0.0,0.0,0.0,0.0,0.0,0.0,0.0,-1.5471,-1.8375,-2.0745,-2.2067,-2.2468,-2.2738,-2.2954,-2.3117,-2.3477,-2.4074,-2.417,0.0,-2.3212,-2.3348,-2.3081,-2.2358,-2.3784,0.0,0.0,0.0,0.0,0.0,0.0,0.0,0.0,0.0,0.0,0.0,0.0,0.0,-2.8318,-2.9473,0.0,-2.9788,-2.9514,-3.0039,-3.0935,-3.0808,-3.1482,-3.2348,-3.1542,-3.1403,-3.1325,0.0,0.0,0.0,-2.9969,0.0,0.0,0.0,0.0,0.0,0.0,0.0,0.0,-2.9961,-3.0424,-3.0637,-2.9505,-2.9444,-2.9399,-2.8737,-2.8157,-2.8059,-2.8817,-2.8508,-2.7928,-2.735,-2.7438,-2.712,-2.5918,-2.6839,-2.6726,-2.462,-2.5473,-2.594,-2.5384,-2.6193,-2.6691,-2.6691,-2.5862,-2.5389,-2.5389,-2.3951,-2.319,-2.319,-2.2598,-2.2598,-2.3173,-2.2581,-2.3325,-2.5169,-2.4695,-2.4926,-2.5706,-2.5558,-2.5048,-2.4324,-2.4013,-2.4234,-2.4776,-2.4776,-2.5615,-2.6797,-2.6931,-2.8008,-2.943,0.0,0.0,0.0,0.0,0.0,0.0,0.0,0.0,0.0,0.0,-2.0031,-2.2241,0.0,0.0,-2.3093,-2.3414,-2.3437,-2.3671,-2.417,0.0,0.0,0.0,0.0,0.0,0.0,0.0,0.0,0.0,0.0,0.0,0.0,0.0,0.0,0.0,0.0,0.0,0.0,0.0,-2.8145,-2.9253,-2.9366,0.0,-2.9734,-2.9606,-2.9848,-3.033,-3.0426,-3.0849,-3.1246,-3.0581,-3.033,0.0,0.0,-2.9495,-2.9457,0.0,-2.9924,-3.0065,0.0,0.0,0.0,-3.0545,0.0,0.0,0.0,-3.0623,-3.0685,-3.0117,-3.03,-3.0263,-2.9414,-2.9434,-2.97,-3.0044,-2.9788,-2.9644,-2.9949,-2.8953,-2.7853,-2.6961,-2.7397,-2.6985,-2.5119,-2.6024,-2.6559,-2.6069,-2.6445,-2.6691,-2.6691,-2.5998,-2.5609,-2.5609,-2.4526,-2.3765,-2.3393,-2.3038,-2.2852,-2.2852,-2.2584,-2.3368,-2.505,-2.4547,-2.506,-2.6297,-2.5524,-2.5067,-2.4768,-2.4568,-2.4519,-2.4612,-2.4986,-2.5719,-2.6632,-2.6961,-2.7934,-2.9146,-0.7883,0.0,0.0,0.0,0.0,0.0,0.0,0.0,0.0,0.0,0.0,0.0,0.0,0.0,0.0,0.0,0.0,-2.3889,0.0,0.0,0.0,0.0,0.0,-2.2445,0.0,0.0,0.0,0.0,0.0,0.0,0.0,0.0,0.0,0.0,0.0,0.0,0.0,0.0,0.0,-3.0183,0.0,-2.9198,-2.968,-2.9725,-2.9566,-2.9326,-2.9602,-2.9713,-2.9664,-2.9287,-2.9004,-2.879,-2.8706,-2.8706,0.0,0.0,0.0,0.0,0.0,0.0,0.0,0.0,0.0,-3.0438,0.0,0.0,0.0,-3.0288,0.0,0.0,0.0,0.0,0.0,0.0,0.0,0.0,0.0,-3.0173,0.0,-2.7997,-2.7931,-2.7442,-2.6141,-2.6901,-2.7235,-2.6643,-2.6928,-2.6962,-2.6607,-2.6235,-2.5964,-2.5828,-2.5084,-2.4425,-2.3833,-2.368,-2.3376,-2.2924,-2.2841,-2.3551,-2.4915,-2.4452,-2.504,-2.635,-2.5561,-2.5089,-2.4902,-2.5009,-2.48,-2.4507,-2.53,-2.6019,-2.6662,-2.7186,-2.7979,-2.8861,-0.8533,-0.8752,0.0,0.0,0.0,0.0,0.0,0.0,0.0,0.0,0.0,0.0,0.0,0.0,0.0,0.0,0.0,0.0,-2.4681,0.0,0.0,0.0,0.0,0.0,-2.2047,0.0,0.0,0.0,0.0,0.0,0.0,0.0,0.0,0.0,-2.6553,0.0,0.0,0.0,-2.8392,0.0,-2.9227,-2.9601,0.0,-3.0061,-2.9647,-2.9096,-2.8281,-2.7976,-2.7871,0.0,-2.7274,-2.7563,0.0,-2.6669,-2.7373,-2.7176,0.0,0.0,0.0,0.0,0.0,0.0,-3.0141,0.0,-3.0523,0.0,-3.0559,-3.0553,0.0,0.0,0.0,0.0,0.0,0.0,0.0,0.0,-3.2378,-3.183,-3.0996,-2.9909,-2.9888,-2.942,-2.804,-2.803,-2.7412,-2.5701,-2.7536,-2.7969,-2.6187,-2.6989,-2.7266,-2.659,-2.5862,-2.5439,-2.5355,-2.4695,-2.4644,-2.522,-2.4083,-2.4597,-2.642,-2.5259,-2.4951,-2.5373,-2.5259,-2.4657,-2.3752,-2.3799,-2.3758,-2.3849,-2.5121,-2.6019,-2.6602,-2.6677,-2.7874,-2.949,-0.8752,-0.8804,0.0,0.0,0.0,0.0,0.0,0.0,0.0,0.0,0.0,0.0,0.0,0.0,0.0,0.0,0.0,-2.4042,0.0,0.0,0.0,0.0,0.0,0.0,0.0,0.0,0.0,0.0,-2.4441,0.0,0.0,0.0,0.0,0.0,-2.6779,0.0,-2.802,0.0,-2.9036,0.0,0.0,0.0,0.0,-2.974,-2.9062,-2.8411,-2.7761,-2.7391,-2.7134,0.0,-2.6219,0.0,0.0,0.0,0.0,0.0,0.0,0.0,0.0,0.0,0.0,0.0,0.0,0.0,-3.0527,0.0,-3.0638,0.0,0.0,0.0,0.0,0.0,0.0,0.0,-3.2383,0.0,0.0,0.0,-3.1556,0.0,0.0,0.0,-2.9534,-2.8652,-2.8033,-2.7621,-2.845,-2.8614,-2.7794,-2.8207,-2.8146,-2.7368,-2.7046,-2.6488,-2.5609,-2.5287,-2.5067,-2.4949,-2.4244,-2.4501,-2.5562,-2.4541,-2.4493,-2.5182,-2.4536,-2.4199,-2.4063,-2.4145,-2.4193,-2.4328,-2.5659,-2.6108,-2.6108,-2.6871,-2.8188,-2.9579,-0.8752,0.0,0.0,0.0,0.0,0.0,0.0,0.0,0.0,0.0,0.0,0.0,-2.4554,-2.4375,0.0,0.0,-2.4321,-2.4107,0.0,0.0,-2.4383,0.0,0.0,0.0,0.0,0.0,0.0,0.0,0.0,0.0,0.0,0.0,0.0,0.0,0.0,-2.8049,-2.8799,0.0,-3.0023,-3.0841,-3.0877,-3.0457,-2.9743,-2.9081,-2.8314,-2.7535,-2.6927,-2.6555,-2.6217,-2.5543,-2.5123,0.0,-2.4725,0.0,0.0,0.0,0.0,0.0,-2.7239,0.0,0.0,0.0,0.0,0.0,0.0,0.0,0.0,0.0,0.0,0.0,0.0,0.0,0.0,0.0,0.0,-3.2841,0.0,-3.2073,0.0,0.0,0.0,0.0,0.0,-2.9632,-2.9019,-2.8993,-2.9376,-2.9276,-2.8541,-2.8986,-2.8839,-2.7823,-2.7789,-2.7199,-2.5913,-2.5896,-2.5561,-2.4925,-2.4554,-2.4579,-2.487,-2.4157,-2.4225,-2.495,-2.4158,-2.3964,-2.4188,-2.4309,-2.4343,-2.4477,-2.5794,-2.6033,-2.5764,-2.7081,-2.8427,-2.9579,-0.8646,-0.9309,0.0,0.0,0.0,0.0,0.0,0.0,0.0,0.0,0.0,0.0,0.0,0.0,0.0,0.0,0.0,-2.4224,-2.4286,0.0,-2.4947,0.0,0.0,-2.5114,0.0,0.0,0.0,0.0,0.0,0.0,0.0,0.0,0.0,0.0,-2.7455,-2.8666,-2.9996,-3.0726,-3.1207,-3.1484,-3.1753,-3.0339,-2.8074,0.0,-2.7503,-2.6503,-2.5374,0.0,0.0,-2.3653,-2.3749,0.0,0.0,0.0,0.0,0.0,0.0,0.0,0.0,0.0,0.0,-2.8559,0.0,0.0,0.0,0.0,-2.9407,0.0,0.0,0.0,0.0,0.0,0.0,0.0,0.0,0.0,0.0,0.0,0.0,0.0,0.0,0.0,0.0,-3.1206,-3.0373,-2.8581,-3.0094,-2.9967,-2.7288,-2.9001,-2.9381,-2.784,-2.7789,-2.7452,-2.6674,-2.6657,-2.642,-2.5947,-2.5416,-2.5189,-2.5189,-2.4617,-2.4389,-2.443,-2.4389,-2.4074,-2.3638,-2.3625,-2.3625,-2.3774,-2.5121,-2.563,-2.5764,-2.7081,-2.8427,-2.9579,0.0,0.0,0.0,0.0,0.0,0.0,0.0,-2.1717,0.0,0.0,0.0,0.0,0.0,-2.4375,-2.4375,0.0,0.0,-2.3992,-2.4297,-2.4514,0.0,0.0,0.0,-2.4846,0.0,0.0,0.0,0.0,0.0,0.0,0.0,0.0,0.0,0.0,0.0,-2.7989,0.0,0.0,0.0,0.0,0.0,-3.0273,-2.7952,0.0,-2.7121,-2.5662,-2.5096,-2.4562,0.0,-2.341,-2.2885,-2.2423,-2.1978,-2.2247,-2.275,-2.2898,-2.3289,0.0,0.0,0.0,-2.5283,-2.7043,0.0,0.0,0.0,0.0,0.0,0.0,0.0,0.0,0.0,0.0,0.0,0.0,0.0,0.0,0.0,0.0,0.0,0.0,0.0,0.0,0.0,0.0,-3.0191,-2.9576,-2.9648,-2.9542,-2.9122,-2.9745,-2.9651,-2.8619,-2.8586,-2.7977,-2.6708,-2.6691,-2.647,-2.5997,-2.5465,-2.5012,-2.4657,-2.4116,-2.3879,-2.3879,-2.3879,-2.3752,-2.3595,-2.3595,-2.3864,-2.4373,-2.5255,-2.5869,-2.6363,-2.7245,-2.8427,-2.9699,-0.8404,0.0,0.0,0.0,0.0,0.0,0.0,0.0,0.0,0.0,-2.4432,0.0,-2.4431,0.0,-2.4339,0.0,-2.3961,-2.3799,-2.4042,-2.4149,0.0,-2.3941,-2.4367,0.0,0.0,0.0,0.0,0.0,0.0,-2.2053,0.0,0.0,0.0,0.0,0.0,-2.7722,-2.9026,0.0,-3.1205,0.0,0.0,-3.0443,0.0,0.0,-2.6919,-2.5251,0.0,-2.4485,-2.3897,-2.3388,-2.2678,-2.1948,-2.1672,-2.1744,-2.1995,-2.234,-2.2803,-2.3354,-2.4141,-2.4536,0.0,-2.6256,-2.7118,0.0,-2.906,0.0,-2.8394,0.0,0.0,0.0,0.0,0.0,0.0,0.0,0.0,0.0,0.0,-3.0556,0.0,0.0,0.0,0.0,0.0,-3.092,-3.0497,-3.0497,-3.004,-2.9871,0.0,-3.0362,-3.0159,-2.9397,-2.9127,-2.8383,-2.7114,-2.6826,-2.6367,-2.5689,-2.5373,-2.4816,-2.4116,-2.3752,-2.3595,-2.3595,-2.3595,-2.3595,-2.3625,-2.3864,-2.4088,-2.4373,-2.551,-2.6078,-2.6348,-2.7245,-2.8427,-2.9759,0.0,0.0,0.0,0.0,-1.551,0.0,0.0,0.0,-2.2833,0.0,-2.4415,-2.4807,-2.4224,-2.4321,-2.4356,-2.417,-2.3816,-2.3608,-2.3574,-2.3896,0.0,0.0,-2.3003,-2.2818,-2.1649,0.0,0.0,0.0,0.0,0.0,0.0,0.0,0.0,0.0,-2.6025,0.0,-3.0196,-3.1157,-3.2278,-3.3314,-3.2277,-3.0859,-2.9235,-2.8342,-2.6862,-2.5269,-2.4984,-2.4626,-2.4152,-2.3454,-2.2947,-2.2538,-2.1803,-2.1582,-2.1582,-2.1582,-2.2051,-2.2683,-2.3343,-2.4176,-2.5091,-2.6165,-2.6618,0.0,0.0,0.0,-2.6575,0.0,0.0,0.0,0.0,0.0,0.0,0.0,0.0,0.0,0.0,0.0,-2.9245,0.0,-3.0666,0.0,0.0,-3.1562,-3.114,-3.114,-3.114,-3.0835,0.0,-3.0801,-3.0869,-3.0125,-2.9414,-2.867,-2.7892,-2.713,-2.6258,-2.523,-2.523,-2.4664,-2.3595,-2.3595,-2.3595,-2.3595,-2.3595,-2.3595,-2.3655,-2.4313,-2.4223,-2.3894,-2.5794,-2.6198,-2.5869,-2.7186,-2.8487,-2.9759,-0.7918,-1.0059,-1.2027,0.0,-1.6158,-1.8873,0.0,0.0,0.0,0.0,-2.2844,-2.3038,-2.341,-2.3508,-2.3508,-2.3459,-2.2888,0.0,0.0,0.0,0.0,-2.2473,-2.1758,-2.0979,-2.0205,-2.0205,0.0,-1.9465,0.0,0.0,-2.1321,0.0,0.0,0.0,0.0,0.0,-2.8002,-2.9032,-3.0429,-3.1988,-3.2483,-3.0974,-2.8418,0.0,-2.6853,-2.5118,-2.4899,-2.4347,-2.366,-2.3298,-2.2609,-2.1803,-2.1306,-2.115,-2.1197,-2.1456,-2.1694,-2.2107,-2.3338,-2.3897,-2.4336,-2.512,-2.6025,-2.6981,0.0,0.0,0.0,0.0,0.0,0.0,0.0,0.0,0.0,0.0,0.0,0.0,0.0,0.0,0.0,-2.9245,0.0,0.0,-3.1343,-3.0818,-3.0378,-3.0378,-3.0378,-3.0311,-3.0125,0.0,-3.0869,-3.0125,-2.9922,-2.9448,-2.8687,-2.8048,-2.7142,-2.6006,-2.5579,-2.4733,-2.3595,-2.3595,-2.3595,-2.3595,-2.3595,-2.3595,-2.361,-2.3789,-2.4343,-2.5151,-2.5659,-2.6363,-2.723,-2.8577,-2.928,-2.9759,-0.7845,0.0,0.0,-1.3852,0.0,0.0,-1.9564,-2.062,0.0,-2.2514,-2.2557,0.0,-2.3033,-2.2977,-2.2853,-2.265,-2.2139,0.0,-2.2214,0.0,0.0,-2.0639,-1.9851,-1.912,-1.8542,-1.8718,0.0,-1.8232,0.0,0.0,-2.0357,0.0,0.0,0.0,0.0,-2.5775,-2.7491,-2.9223,-3.0527,-3.1456,-3.2143,-3.0882,0.0,-2.8162,-2.6954,-2.5406,-2.4803,-2.4004,-2.3182,-2.2835,-2.2096,-2.1275,-2.0813,-2.0534,-2.0485,-2.0847,-2.1068,-2.152,-2.2976,-2.375,-2.4288,-2.4889,-2.5603,-2.6344,-2.7028,-2.6384,-2.6077,0.0,-2.6762,-2.6021,0.0,0.0,0.0,0.0,0.0,0.0,0.0,0.0,0.0,0.0,-2.9262,0.0,-3.1089,-3.0243,-2.9888,-3.0531,-3.0581,-3.0581,0.0,0.0,-3.1326,-3.0598,-2.9956,-2.9437,-2.9075,-2.8103,-2.6999,-2.5888,-2.557,-2.4747,-2.3595,-2.3595,-2.3595,-2.3595,-2.3595,-2.3595,-2.3655,-2.4238,-2.4762,-2.5241,-2.5809,-2.6856,-2.8143,-2.919,-2.9579,-2.9759,-0.771,0.0,0.0,0.0,0.0,0.0,0.0,-2.0523,0.0,-2.234,0.0,-2.2618,-2.2562,-2.2445,-2.2241,-2.1815,0.0,-2.1135,-2.0833,-1.9859,-1.8947,-1.8168,-1.7847,-1.741,-1.6953,-1.7257,-1.7523,0.0,0.0,0.0,0.0,0.0,0.0,0.0,0.0,0.0,0.0,-3.025,-3.1279,-3.1261,-3.154,-3.0603,-2.897,-2.8175,-2.7024,-2.5686,-2.4576,-2.363,-2.2775,-2.2275,-2.1622,-2.0926,-2.0449,-1.9989,-1.9692,-2.0093,-2.0358,-2.0875,-2.2348,-2.3548,-2.448,-2.5023,-2.5309,-2.5632,-2.63,-2.5566,-2.496,-2.5666,-2.5597,-2.5439,0.0,0.0,0.0,0.0,0.0,0.0,0.0,0.0,0.0,0.0,0.0,0.0,-3.0683,-2.9854,-2.9803,-3.1089,-3.1376,0.0,0.0,0.0,-3.2053,-3.1224,-2.9956,-2.9362,-2.9459,-2.7968,-2.672,-2.5652,-2.5497,-2.4795,-2.3595,-2.3595,-2.3595,-2.3595,-2.3595,-2.3655,-2.3819,-2.5001,-2.5241,-2.5016,-2.6243,-2.75,-2.8682,-2.934,-2.9684,-3.0013,0.0,0.0,0.0,0.0,0.0,-1.6329,-1.8035,-1.8509,-1.9015,-2.0016,-2.0188,-2.0323,-2.0648,-2.1023,-2.1258,-2.1164,-2.042,0.0,0.0,0.0,0.0,-1.7959,-1.6837,-1.6375,-1.6581,-1.6666,-1.6978,0.0,0.0,0.0,0.0,0.0,0.0,0.0,0.0,0.0,-2.6995,-2.8892,0.0,-3.0479,-3.116,-3.0178,-2.8257,-2.7876,-2.6601,-2.4898,-2.3971,-2.3218,-2.2607,-2.2228,-2.1622,-2.0926,-2.0449,-1.9989,-1.9621,-1.9692,-1.9768,-2.011,-2.1575,-2.2779,-2.3795,-2.4673,-2.5058,-2.5422,-2.6033,-2.5338,-2.4905,-2.6184,-2.5882,-2.5605,-2.6264,0.0,0.0,0.0,0.0,0.0,0.0,0.0,0.0,0.0,0.0,-2.7588,0.0,0.0,-3.092,-3.1173,-3.2324,0.0,0.0,0.0,-3.2594,0.0,-3.0937,0.0,0.0,0.0,-2.8297,-2.7045,-2.6058,-2.4867,-2.3595,-2.3595,-2.3595,-2.3595,-2.3595,-2.3924,-2.4418,-2.4657,-2.5375,-2.6318,-2.7096,-2.7889,-2.8682,-2.934,-3.0268,-3.13,0.0,0.0,0.0,0.0,0.0,0.0,0.0,-1.6356,-1.686,-1.9057,-1.9523,-1.9648,-1.961,-1.9771,-1.9753,-1.9519,-1.9082,-1.8579,-1.797,-1.6577,-1.5659,-1.5255,-1.4184,-1.3978,-1.4707,-1.4998,-1.5725,-1.7034,0.0,0.0,0.0,0.0,0.0,0.0,0.0,-2.4278,0.0,0.0,0.0,-2.969,-3.0395,-2.9529,-2.7837,-2.7692,-2.6287,-2.4316,-2.3704,-2.2869,-2.1984,-2.1648,-2.0975,-2.0227,-1.9743,-1.9222,-1.8835,-1.8835,-1.9126,-1.9771,-2.1078,-2.2557,-2.3893,-2.4615,-2.5,-2.5236,-2.539,-2.4945,-2.4649,-2.524,-2.5052,-2.5144,-2.6374,-2.6943,0.0,0.0,0.0,0.0,0.0,0.0,-2.6843,0.0,0.0,0.0,0.0,0.0,0.0,0.0,0.0,0.0,0.0,0.0,-3.273,0.0,0.0,0.0,-3.074,0.0,-2.7838,-2.6941,-2.5666,-2.4567,-2.3595,-2.3595,-2.3595,-2.3595,-2.3595,-2.3984,-2.4627,-2.536,-2.6213,-2.7171,-2.7844,-2.8517,-2.919,-2.9819,-3.0911,-3.2078,0.0,-0.9889,0.0,0.0,-1.2871,0.0,-1.4821,-1.4546,-1.5165,-1.7979,-1.8596,-1.8727,-1.8535,-1.8486,-1.8296,-1.7959,-1.78,-1.7246,-1.6071,-1.4812,-1.3721,-1.2744,-1.1991,-1.2089,-1.3204,-1.382,-1.4972,0.0,0.0,0.0,0.0,0.0,0.0,0.0,0.0,0.0,0.0,0.0,-2.7885,-2.9074,-2.9465,-2.8764,-2.7494,-2.7215,-2.5747,-2.3798,-2.3347,-2.2341,-2.1113,-2.0814,-2.0193,-1.9442,-1.9043,-1.8458,-1.7947,-1.7947,-1.8589,-1.9537,-2.0663,-2.2393,-2.4005,-2.4631,-2.4954,-2.5051,-2.4803,-2.4572,-2.4356,-2.4152,-2.4094,-2.4553,-2.6059,-2.6661,0.0,0.0,0.0,0.0,0.0,0.0,0.0,0.0,0.0,0.0,-2.9042,0.0,0.0,0.0,0.0,0.0,-3.0176,0.0,0.0,0.0,0.0,-3.0622,-3.0734,0.0,-2.7254,-2.6682,-2.5257,-2.4268,-2.3595,-2.3595,-2.3595,-2.3595,-2.3595,-2.4073,-2.4941,-2.6258,-2.7186,-2.7844,-2.8382,-2.9086,-2.9864,-3.0492,-3.1569,-3.2736,0.0,0.0,0.0,0.0,0.0,0.0,-1.3889,-1.3772,-1.4072,-1.5615,-1.5875,-1.6089,-1.6582,-1.7053,-1.7329,-1.7301,-1.6831,-1.6016,-1.4777,-1.3606,-1.2822,-1.2437,-1.2064,-1.2475,-1.3677,-1.4659,-1.5904,0.0,0.0,-1.9739,0.0,0.0,0.0,0.0,0.0,0.0,0.0,-2.6236,-2.7338,-2.8809,-2.8423,-2.7863,-2.711,-2.5949,-2.4629,-2.3271,-2.2513,-2.1322,-2.01,-1.9828,-1.9383,-1.8968,-1.893,-1.8224,-1.7394,-1.7394,-1.809,-1.9125,-2.0313,-2.1982,-2.3595,-2.4556,-2.4816,-2.479,-2.4582,-2.4374,-2.4133,-2.3816,-2.3753,-2.4109,-2.5287,-2.4741,-2.4419,0.0,0.0,0.0,0.0,0.0,-2.6471,-2.5896,0.0,0.0,-2.6082,-2.7892,0.0,0.0,-3.0023,0.0,0.0,0.0,0.0,-3.1224,-3.1765,-3.2104,-3.2114,-2.959,-2.7987,-2.7304,-2.5463,-2.4268,-2.3595,-2.3595,-2.3595,-2.3595,-2.3595,-2.4328,-2.5615,-2.6931,-2.7889,-2.8502,-2.8577,-2.934,-3.0507,-3.118,-3.2273,-3.3607,0.0,0.0,0.0,0.0,0.0,0.0,0.0,-1.1818,-1.2022,-1.2613,-1.4046,-1.5118,-1.5353,-1.5552,-1.556,-1.5147,-1.4914,-1.4209,-1.2905,-1.1621,-1.0881,-1.0848,-0.9892,-1.0329,-1.2399,-1.3507,-1.5099,0.0,0.0,0.0,0.0,0.0,0.0,0.0,0.0,-2.2752,-2.4875,-2.5236,-2.6446,-2.8054,-2.7656,-2.6911,-2.5954,-2.4954,-2.3602,-2.2148,-2.1483,-2.0607,-1.9693,-1.9273,-1.8797,-1.838,-1.8027,-1.7867,-1.7773,-1.7733,-1.8766,-2.0176,-2.1233,-2.2619,-2.3949,-2.4626,-2.4737,-2.4596,-2.4279,-2.4041,-2.3795,-2.3459,-2.3943,-2.461,-2.5269,-2.5411,-2.5302,-2.4899,0.0,0.0,0.0,0.0,0.0,-2.5592,0.0,-2.5592,0.0,-2.7486,0.0,0.0,0.0,0.0,0.0,0.0,0.0,-3.2527,0.0,-3.0717,-3.1613,-2.8625,-2.7008,-2.672,-2.4894,-2.3864,-2.3595,-2.3595,-2.3595,-2.364,-2.4448,-2.5106,-2.5704,-2.7036,-2.7979,-2.8637,-2.9026,-2.9729,-3.0627,-3.1719,-3.2706,-3.3697,-0.726,0.0,-0.7181,0.0,-0.8826,-0.9399,-1.0048,-1.0374,-1.0568,-1.0762,-1.2415,-1.3622,-1.381,-1.381,-1.3611,-1.3165,-1.3107,-1.2474,-1.0898,-0.9898,-0.9203,-0.8862,-0.8218,0.0,-1.1121,-1.2581,-1.4572,-1.7021,-1.8576,0.0,0.0,0.0,0.0,0.0,-2.0946,-2.1921,-2.3408,-2.4058,-2.5147,-2.6467,-2.5928,-2.5205,-2.4313,-2.3273,-2.2039,-2.0751,-2.0299,-1.9612,-1.8844,-1.8282,-1.7892,-1.7626,-1.7544,-1.7773,-1.8129,-1.8303,-1.9626,-2.1189,-2.2072,-2.3232,-2.4294,-2.4704,-2.4602,-2.4323,-2.3988,-2.3723,-2.35,-2.3236,-2.3768,-2.4364,-2.4693,-2.5143,-2.5103,-2.4085,0.0,0.0,0.0,-2.434,0.0,0.0,-2.5,-2.522,-2.6268,-2.7249,0.0,0.0,0.0,0.0,0.0,0.0,0.0,0.0,0.0,0.0,-3.119,-2.8293,-2.6726,-2.6532,-2.4838,-2.4074,-2.4074,-2.3921,-2.3943,-2.4157,-2.5152,-2.5719,-2.5989,-2.7111,-2.8098,-2.8936,-2.94,-3.0208,-3.124,-3.2377,-3.3215,-3.4044,-0.717,-0.6861,-0.652,-0.6874,-0.7655,-0.8576,-0.9658,-0.9814,-1.0064,-1.0712,-1.0813,-1.1048,-1.1653,-1.1751,-1.1751,-1.1702,-1.1702,-1.0898,-0.8881,-0.8731,-0.8106,0.0,0.0,-0.8909,-1.0386,-1.2552,-1.4759,-1.7021,0.0,0.0,-2.0718,0.0,-2.1142,-2.0526,-2.1264,-2.1542,-2.1486,-2.2644,-2.3462,-2.3873,-2.2881,-2.2449,-2.2237,-2.0579,-1.9657,-1.92,-1.8906,-1.8193,-1.7216,-1.6646,-1.6471,-1.671,-1.7747,-1.8051,-1.8163,-1.8964,-2.0376,-2.1838,-2.2588,-2.357,-2.4461,-2.4733,-2.4393,-2.3948,-2.3759,-2.3455,-2.3189,-2.3189,-2.2947,-2.284,-2.3159,-2.2965,-2.2738,-2.2738,0.0,0.0,0.0,0.0,0.0,-2.4523,-2.5152,-2.5609,-2.5625,-2.6962,0.0,0.0,0.0,0.0,0.0,0.0,0.0,-3.1241,-3.1884,0.0,-3.1207,-2.9176,-2.7795,-2.7064,-2.5788,-2.5182,-2.5182,-2.4617,-2.4735,-2.5388,-2.553,-2.5974,-2.6632,-2.7305,-2.8368,-2.9564,-2.9579,-3.0776,-3.2572,-3.3245,-3.3903,-3.4783,-0.5114,-0.5479,-0.542,-0.5845,-0.6184,-0.6653,-0.7498,-0.8025,-0.8455,-0.8652,-0.9138,-0.951,-0.9695,-1.0543,-1.0897,0.0,-0.9967,-0.9186,0.0,-0.7095,-0.6563,-0.6588,-0.6425,-0.7464,-0.9888,-1.1403,-1.3657,-1.6588,0.0,0.0,0.0,-1.9715,-1.9227,-1.855,-1.8767,-1.9294,-2.0031,-1.9801,-2.0147,-2.0727,-1.9364,-1.8495,-1.7936,-1.6877,-1.6519,-1.6484,-1.6044,-1.5942,-1.5997,-1.5431,-1.5543,-1.6133,-1.7491,-1.8318,-1.8933,-1.9563,-2.1204,-2.2935,-2.3627,-2.4138,-2.4432,-2.428,-2.4026,-2.366,-2.3141,-2.2781,-2.2634,-2.2822,-2.2772,-2.2797,-2.3141,-2.3117,-2.2972,-2.2746,-2.2842,0.0,-2.3338,0.0,-2.3009,-2.4357,-2.3702,-2.3786,-2.5443,-2.5853,0.0,0.0,0.0,0.0,0.0,0.0,0.0,0.0,-3.07,0.0,-2.9685,-2.821,-2.7085,-2.636,-2.5562,-2.5477,-2.5942,-2.5783,-2.6084,-2.6783,-2.6838,-2.6995,-2.7287,-2.7986,-2.8786,-2.9624,-3.0043,-3.115,-3.2587,-3.3245,-3.3903,-3.4798,-0.2583,-0.3897,-0.4752,-0.5066,-0.532,-0.576,-0.6475,-0.6966,-0.7289,-0.7289,-0.7943,-0.8374,-0.8374,-0.9131,0.0,-0.9026,-0.86,-0.7906,-0.6956,-0.6095,-0.5719,-0.5828,-0.5374,-0.6318,-0.8847,-1.0331,0.0,-1.5585,-1.747,-1.8394,-1.8383,-1.8009,-1.7291,-1.6275,-1.6213,-1.6477,-1.6905,-1.6904,-1.7243,-1.7593,-1.5584,-1.4526,-1.4064,-1.3768,-1.3592,-1.3517,-1.3758,-1.3939,-1.403,-1.3975,-1.4562,-1.5445,-1.6849,-1.8417,-1.9909,-2.0853,-2.2348,-2.3843,-2.4358,-2.4481,-2.4396,-2.4077,-2.3666,-2.3206,-2.2652,-2.2426,-2.2349,-2.2527,-2.2563,-2.2616,-2.2807,-2.2857,-2.2781,-2.259,-2.2563,-2.2644,-2.2948,0.0,-2.2247,0.0,0.0,0.0,0.0,-2.5428,-2.5815,0.0,0.0,0.0,0.0,0.0,0.0,-3.1884,-3.0531,-2.955,-2.9028,-2.8193,-2.7278,-2.6262,-2.6224,-2.6438,-2.6896,-2.6964,-2.7389,-2.807,-2.791,-2.8149,-2.8637,-2.8847,-2.9522,-3.0364,-3.0754,-3.1704,-3.2961,-3.3619,-3.4292,-3.516,-0.0,-0.2279,-0.4242,0.0,-0.4992,0.0,-0.6372,-0.648,-0.6475,-0.6529,-0.7182,-0.7616,-0.7616,-0.7616,-0.761,-0.7557,0.0,0.0,0.0,-0.5677,-0.5407,-0.446,-0.4443,-0.5454,-0.7547,-0.9386,-1.1584,-1.4192,-1.6375,-1.7037,-1.6202,-1.6202,-1.5377,-1.3897,-1.3763,-1.3327,-1.2779,-1.3935,-1.4298,-1.3989,-1.155,-1.0574,-1.0569,-1.1021,-1.0844,-1.0467,-1.1859,-1.1974,-1.1598,-1.2319,-1.3439,-1.4775,-1.6045,-1.8377,-2.0916,-2.2521,-2.3671,-2.4476,-2.4724,-2.4615,-2.4328,-2.4026,-2.3302,-2.2599,-2.2377,-2.231,-2.231,-2.231,-2.231,-2.231,-2.231,-2.231,-2.231,-2.231,-2.231,-2.231,-2.231,-2.1869,-2.2094,0.0,0.0,0.0,-2.5757,-2.5411,-2.5556,0.0,0.0,0.0,0.0,0.0,-3.2645,-3.1173,-3.1123,-3.0395,-2.8924,-2.8907,-2.818,-2.6776,-2.7537,-2.7891,-2.7958,-2.8248,-2.8738,-2.9336,-2.8809,-2.9371,-3.0553,-2.9892,-3.0452,-3.1756,-3.1656,-3.2451,-3.3696,-3.431,-3.497,-3.5797,0.0,0.0,-0.1785,-0.4082,-0.4646,-0.4812,-0.4971,-0.4999,-0.5202,-0.5706,-0.6416,-0.6858,-0.6858,-0.6858,-0.6637,-0.6086,-0.6032,-0.5987,-0.5791,-0.5191,-0.4411,-0.3398,-0.4073,-0.5487,-0.7553,-0.8593,-1.0724,-1.4023,-1.5519,-1.556,-1.4345,-1.4345,-1.3426,-1.1728,-1.1696,-1.1825,-1.1896,-0.9491,-0.7676,-0.6379,-0.6425,-0.6261,-0.6051,-0.6903,-0.76,-0.8182,-0.8651,-0.938,-1.0202,-1.0378,-1.1999,-1.4247,-1.6218,-1.8617,-2.0968,-2.236,-2.3692,-2.4724,-2.4787,-2.4636,-2.4296,-2.3563,-2.289,-2.2388,-2.2293,-2.231,-2.231,-2.231,-2.231,-2.231,-2.231,-2.231,-2.231,-2.231,-2.231,-2.231,-2.231,-2.1615,-2.1762,0.0,-2.2692,-2.2933,-2.5153,-2.4552,-2.5055,0.0,0.0,0.0,-3.0594,-3.1867,-3.1867,-3.0412,-3.0362,-2.9634,-2.8112,-2.8095,-2.7909,-2.7571,-2.8332,-2.9008,-2.9567,-2.9928,-3.0482,-3.1165,-3.0544,-3.0848,-3.1683,-3.1209,-3.1865,-3.3201,-3.3036,-3.3879,-3.5032,-3.4648,-3.5304,-3.6446,-0.0,-0.0,-0.0502,-0.2179,-0.3021,-0.3469,-0.3463,-0.407,-0.4625,-0.5011,-0.5378,-0.5756,-0.6091,-0.6091,-0.5928,-0.5538,-0.5487,-0.5441,-0.525,-0.4132,-0.3181,-0.2674,-0.386,-0.5014,-0.6152,-0.7211,-0.9249,-1.2325,-1.3539,-1.3534,-1.2386,-1.2077,-1.1443,-1.0494,-0.951,-0.8661,-0.7805,-0.4951,-0.2838,-0.1478,-0.1864,-0.2176,-0.2583,-0.412,-0.5287,-0.619,-0.6881,-0.7399,-0.7905,-0.8912,-1.0789,-1.3222,-1.6088,-1.8728,-2.1146,-2.2905,-2.4088,-2.4798,-2.4801,-2.454,-2.4062,-2.3177,-2.2634,-2.231,-2.231,-2.231,-2.231,-2.231,-2.231,-2.231,-2.231,-2.231,-2.231,-2.231,-2.231,-2.231,-2.231,-2.1705,-2.1858,-2.3506,-2.2909,-2.307,-2.5,-2.4471,-2.4988,-2.752,-2.7883,0.0,-3.061,-3.1072,-3.092,-3.0142,-3.0108,-2.9381,-2.7806,-2.7789,-2.7789,-2.7806,-2.8958,-2.9797,-3.0394,-3.0956,-3.1533,-3.2092,-3.1774,-3.2156,-3.2963,-3.242,-3.3156,-3.4588,-3.4562,-3.4935,-3.5579,-3.5492,-3.5734,-3.6228,-0.0,-0.0,-0.0,-0.0,-0.106,-0.1842,-0.184,-0.2963,-0.3922,-0.4141,-0.434,-0.4714,-0.5273,-0.5328,-0.5328,-0.5328,-0.5332,-0.512,-0.4536,-0.3297,-0.2458,-0.2233,-0.3471,-0.4245,-0.4484,-0.5995,-0.7818,-1.0056,-1.1044,-1.1097,-1.0307,-0.966,-0.9362,-0.933,-0.7506,-0.5296,-0.2864,-0.0935,0.0579,0.1733,0.1909,0.1445,0.0444,-0.1926,-0.349,-0.4646,-0.5837,-0.5873,-0.5638,-0.767,-0.9773,-1.2082,-1.5721,-1.865,-2.1225,-2.3616,-2.453,-2.4797,-2.4798,-2.4351,-2.3692,-2.2888,-2.25,-2.231,-2.231,-2.231,-2.231,-2.231,-2.231,-2.231,-2.231,-2.231,-2.2344,-2.2462,-2.2378,-2.2395,-2.2598,0.0,-2.2273,-2.3704,-2.3527,-2.3738,-2.4978,-2.4736,-2.5195,-2.6847,-2.7201,-2.8109,-2.985,-2.9939,-2.9888,-2.977,-2.9753,-2.9076,-2.7672,-2.7875,-2.7994,-2.801,-2.9607,-3.0529,-3.0907,-3.1777,-3.2335,-3.2634,-3.2864,-3.3407,-3.4146,-3.3594,-3.4427,-3.6026,-3.5898,-3.5951,-3.615,-3.6625,-3.6461,-3.6196,-0.0,-0.0,-0.0,-0.0,-0.0168,-0.0336,-0.0335,-0.0558,-0.1172,-0.2399,-0.3685,-0.4532,-0.4653,-0.4646,-0.4643,-0.4653,-0.4653,-0.4601,-0.4494,-0.4274,-0.3538,-0.2238,-0.2402,-0.3171,-0.4484,-0.6421,-0.7782,-0.8484,-0.8639,-0.8341,-0.7699,-0.7586,-0.7156,-0.6512,-0.6174,-0.3999,-0.0451,0.0728,0.2296,0.3996,0.403,0.3916,0.3469,0.0611,-0.2173,-0.4507,-0.4757,-0.4728,-0.4867,-0.6406,-0.8677,-1.1468,-1.5032,-1.8027,-2.0761,-2.3501,-2.4549,-2.4795,-2.4803,-2.4082,-2.3218,-2.2805,-2.25,-2.231,-2.231,-2.231,-2.231,-2.231,-2.231,-2.231,-2.231,-2.231,-2.2513,-2.3122,-2.2716,-2.275,-2.3968,0.0,-2.3045,-2.446,-2.4291,-2.4175,-2.4514,-2.4871,-2.5431,-2.6349,-2.6879,-2.7748,-2.911,-2.9161,-2.8856,-2.8197,-2.8144,-2.7757,-2.6877,-2.8146,-2.8805,-2.8822,-3.0673,-3.1579,-3.1669,-3.327,-3.3661,-3.3165,-3.4528,-3.4916,-3.4638,-3.4849,-3.5985,-3.7463,-3.6785,-3.7294,-3.829,-3.7815,-3.7962,-3.8398,-0.0,-0.0,-0.0,-0.0,-0.1345,-0.185,-0.0224,-0.0,-0.0223,-0.0949,-0.1618,-0.2681,-0.4324,-0.3749,-0.3241,-0.3244,-0.4042,-0.4504,-0.4504,-0.4511,-0.3431,-0.112,-0.2577,-0.3749,-0.4457,-0.5462,-0.6209,-0.6704,-0.7093,-0.7109,-0.6799,-0.6401,-0.6262,-0.6215,-0.4625,-0.1998,0.128,0.2565,0.3627,0.4525,0.4525,0.448,0.4209,0.1725,-0.039,-0.2183,-0.2961,-0.379,-0.4632,-0.5378,-0.761,-1.0673,-1.3916,-1.7213,-2.0399,-2.2969,-2.4097,-2.4492,-2.4276,-2.3563,-2.288,-2.2746,-2.25,-2.231,-2.231,-2.231,-2.231,-2.231,-2.231,-2.231,-2.231,-2.231,-2.2547,-2.3274,-2.3105,0.0,-2.4371,-2.4031,-2.4043,-2.5096,-2.5079,-2.5048,-2.5233,-2.5503,-2.5961,-2.6678,-2.6951,-2.7674,-2.8941,-2.8586,-2.8197,-2.7806,-2.7418,-2.7232,-2.73,-2.8416,-2.9194,-2.96,-3.107,-3.1915,-3.2213,-3.3265,-3.39,-3.4215,-3.4943,-3.5303,-3.5366,-3.553,-3.6298,-3.7283,-3.7349,-3.7751,-3.8327,-3.8378,-3.8358,-3.8358,-0.0,-0.0,-0.0,-0.0,-0.1906,-0.2921,-0.129,-0.0448,-0.0,-0.0,-0.0,-0.0894,-0.3193,-0.3021,-0.2571,-0.2235,-0.3596,-0.4518,-0.4518,-0.3828,-0.2413,-0.0112,-0.2244,-0.3591,-0.3971,-0.434,-0.4772,-0.5277,-0.5823,-0.61,-0.61,-0.555,-0.5576,-0.6009,-0.301,-0.0223,0.2287,0.3863,0.448,0.4519,0.4519,0.4477,0.4265,0.2393,0.0951,-0.017,-0.1298,-0.2439,-0.3613,-0.4503,-0.6662,-0.9518,-1.2939,-1.6479,-1.9918,-2.2469,-2.3712,-2.4188,-2.3705,-2.3141,-2.2695,-2.2608,-2.2436,-2.231,-2.231,-2.231,-2.231,-2.231,-2.231,-2.231,-2.231,-2.231,-2.2547,-2.3274,0.0,-2.3714,0.0,-2.4746,-2.5017,-2.5778,-2.5862,-2.59,-2.5983,-2.612,-2.6352,-2.6805,-2.6965,-2.7434,-2.8416,-2.7892,-2.7554,-2.7554,-2.6996,-2.7063,-2.7772,-2.8602,-2.9364,-3.0125,-3.1351,-3.2266,-3.2816,-3.3345,-3.4222,-3.5302,-3.5514,-3.576,-3.6114,-3.6376,-3.6673,-3.7024,-3.7835,-3.8103,-3.8162,-3.8891,-3.8816,-3.843,-0.0,-0.0,-0.0,-0.0,-0.0168,-0.1178,-0.3784,-0.1797,-0.0,-0.0,-0.0,-0.0112,-0.028,-0.2751,-0.3772,-0.2303,-0.361,-0.4472,-0.4472,-0.1909,-0.0224,-0.0,-0.0224,-0.0949,-0.2343,-0.3744,-0.4532,-0.4588,-0.4632,-0.468,-0.468,-0.4584,-0.4595,-0.4549,-0.1503,0.0723,0.2287,0.3858,0.4473,0.4519,0.4519,0.4477,0.4324,0.2736,0.1253,-0.0,-0.0117,-0.0238,-0.0793,-0.3769,-0.5774,-0.7818,-1.2493,-1.6125,-1.9208,-2.2297,-2.3712,-2.4134,-2.3428,-2.2972,-2.2634,-2.2388,-2.2293,-2.231,-2.231,-2.231,-2.231,-2.231,-2.231,-2.231,-2.231,-2.231,-2.2547,-2.3274,0.0,0.0,-2.5321,-2.5524,-2.5795,-2.6522,-2.6623,-2.6454,-2.6033,-2.6401,-2.6504,-2.6115,-2.6485,-2.6759,-2.686,-2.681,-2.6776,-2.6776,-2.6725,-2.7063,-2.7772,-2.8602,-2.9364,-3.0108,-3.169,-3.2855,-3.3647,-3.4479,-3.5375,-3.6248,-3.6982,-3.707,-3.6712,-3.7731,-3.7837,-3.7569,-3.855,-3.8905,-3.9023,-3.975,-3.9969,-3.9952,0.2579,0.1289,-0.0,-0.0,-0.0,-0.0392,-0.1515,-0.2301,-0.2132,-0.0224,-0.0,-0.0,-0.0,-0.1009,-0.1457,-0.0898,-0.1347,-0.1685,-0.1685,0.1122,0.2813,0.2809,0.2805,0.1676,-0.0779,-0.1392,-0.2617,-0.448,-0.4473,-0.4525,-0.4519,-0.4473,-0.3514,-0.1667,-0.05,0.1335,0.3688,0.4252,0.4473,0.4519,0.4519,0.4473,0.4373,0.3181,0.2278,0.1702,0.17,0.1077,-0.0061,-0.2076,-0.4995,-0.8589,-1.2976,-1.6556,-1.9767,-2.3048,-2.4157,-2.4134,-2.3388,-2.2972,-2.2634,-2.2377,-2.231,-2.231,-2.231,-2.231,-2.231,-2.231,-2.231,-2.231,-2.231,-2.231,-2.2547,-2.3274,0.0,-2.3917,-2.5406,-2.5609,-2.5879,-2.6607,-2.6691,-2.6624,-2.6436,-2.659,-2.6624,-2.6436,-2.659,-2.6691,-2.6691,-2.6939,-2.6971,-2.6725,-2.6939,-2.7298,-2.7824,-2.8602,-2.9364,-3.0125,-3.146,-3.2388,-3.2993,-3.4109,-3.5228,-3.634,-3.7129,-3.7326,-3.7041,-3.7461,-3.712,-3.6461,-3.7814,-3.8328,-3.8464,-3.9648,-4.007,-4.007,0.3088,0.2189,0.1122,0.0168,-0.0,-0.0,-0.0,-0.1738,-0.2357,-0.028,-0.0,-0.0,-0.0,-0.0,-0.0,-0.0,-0.0,0.0393,0.1347,0.3324,0.4521,0.4514,0.4511,0.3535,0.1449,0.0501,-0.1224,-0.3799,-0.4252,-0.4477,-0.4522,-0.448,-0.2896,0.0055,0.1001,0.2563,0.448,0.4477,0.4525,0.4519,0.4519,0.4525,0.4428,0.3784,0.3475,0.3406,0.3498,0.2897,0.1577,-0.1192,-0.5446,-1.0192,-1.3705,-1.7574,-2.1303,-2.379,-2.4442,-2.419,-2.3406,-2.3021,-2.2764,-2.2388,-2.231,-2.231,-2.231,-2.231,-2.231,-2.231,-2.231,-2.231,-2.231,-2.231,-2.2479,-2.297,-2.3241,-2.3833,-2.5084,-2.5456,-2.5879,-2.6607,-2.6691,-2.6691,-2.6691,-2.6691,-2.6691,-2.6691,-2.6691,-2.6758,-2.6873,-2.7272,-2.7348,-2.7083,-2.721,-2.7508,-2.7964,-2.8657,-2.9482,-3.0463,-3.1362,-3.2179,-3.2889,-3.377,-3.4984,-3.6444,-3.683,-3.707,-3.7226,-3.751,-3.6939,-3.6014,-3.7851,-3.8311,-3.8091,-3.9546,-4.007,-4.007,0.0617,0.2419,0.3554,0.0561,-0.0,-0.0,0.0056,-0.0,-0.0,-0.0,-0.0,-0.0,-0.0,-0.0,-0.0,-0.0,-0.0,0.129,0.43,0.4521,0.4514,0.4514,0.4501,0.4501,0.4514,0.1562,-0.0723,-0.2174,-0.3744,-0.448,-0.448,-0.449,-0.2905,0.0111,0.3132,0.449,0.448,0.4522,0.4519,0.4519,0.4519,0.4525,0.4553,0.4711,0.4872,0.4972,0.5248,0.5408,0.4442,-0.1455,-0.7341,-1.253,-1.4665,-1.9213,-2.3828,-2.4351,-2.4507,-2.4319,-2.3441,-2.3189,-2.3063,-2.2443,-2.231,-2.231,-2.231,-2.231,-2.231,-2.231,-2.231,-2.231,-2.231,-2.231,-2.231,-2.231,-2.2919,-2.3646,-2.4404,-2.5118,-2.5879,-2.659,-2.6691,-2.6691,-2.6691,-2.6691,-2.6691,-2.6691,-2.6691,-2.6873,-2.7286,-2.7695,-2.7897,-2.7897,-2.7517,-2.7684,-2.8432,-2.8834,-2.9719,-3.119,-3.1603,-3.2458,-3.3684,-3.3634,-3.4725,-3.6672,-3.6132,-3.6392,-3.7259,-3.8223,-3.7724,-3.6661,-3.9129,-3.9191,-3.8091,-3.9546,-4.007,-4.007,0.0615,0.0728,0.174,0.2921,0.1401,0.0728,0.2809,0.1345,-0.0,-0.0,-0.0,-0.0,-0.0,-0.0,-0.0,-0.0,-0.0,0.1289,0.4291,0.4507,0.4497,0.449,0.4487,0.4487,0.449,0.2567,0.0835,-0.0668,-0.3249,-0.4501,-0.449,-0.4504,-0.3421,-0.1392,0.2681,0.449,0.448,0.4522,0.4787,0.5218,0.5218,0.5298,0.5421,0.5473,0.5325,0.5084,0.5128,0.426,0.2515,-0.1054,-0.7559,-1.4915,-1.9107,-2.259,-2.5016,-2.4625,-2.45,-2.4319,-2.3441,-2.3189,-2.3063,-2.2443,-2.231,-2.231,-2.231,-2.231,-2.231,-2.231,-2.231,-2.231,-2.231,-2.231,-2.231,-2.231,-2.2919,-2.3646,-2.4404,-2.5118,-2.5693,-2.5896,-2.6387,-2.6488,-2.5981,-2.6387,-2.6691,-2.6691,-2.6971,-2.7303,-2.7678,-2.8075,-2.8407,-2.8734,-2.8576,-2.9132,-3.0483,-2.9779,-2.9761,-3.0446,-3.1949,-3.3,-3.372,-3.4438,-3.5489,-3.669,-3.6772,-3.7031,-3.7422,-3.7723,-3.7906,-3.8088,-3.8959,-3.9296,-3.9301,-3.9897,-4.007,-4.007,0.0336,0.0952,0.1964,0.2583,0.1232,0.0616,0.2469,0.2189,0.1346,0.0168,-0.0,-0.0,-0.0,-0.0,-0.0,-0.0,-0.0,0.1008,0.3423,0.4157,0.4598,0.4908,0.4904,0.4746,0.448,0.358,0.2063,-0.0,-0.1845,-0.2745,-0.2736,-0.3937,-0.2742,0.0556,0.2679,0.3916,0.4525,0.4791,0.5109,0.5546,0.5954,0.6005,0.5838,0.591,0.5543,0.5047,0.5053,0.3778,0.1496,-0.2225,-0.9784,-1.8212,-2.2002,-2.4277,-2.5359,-2.4442,-2.4099,-2.3866,-2.3351,-2.3093,-2.289,-2.2415,-2.231,-2.231,-2.231,-2.231,-2.231,-2.231,-2.231,-2.231,-2.231,-2.231,-2.231,-2.231,-2.2919,-2.3545,-2.3985,-2.4695,-2.5152,-2.5152,-2.5812,-2.6099,-2.5642,-2.6415,-2.6987,-2.7178,-2.7512,-2.7833,-2.8075,-2.8753,-2.9228,-2.9512,-2.9669,-3.035,-3.163,-3.0951,-3.0725,-3.1076,-3.2543,-3.353,-3.4008,-3.4909,-3.5706,-3.6398,-3.6513,-3.6807,-3.7264,-3.7556,-3.805,-3.8755,-3.9465,-3.9765,-3.9835,-4.0254,-4.0286,-4.007,-0.0,0.2188,0.3317,0.0841,0.0168,-0.0,-0.0,0.2305,0.3212,0.0729,0.0168,-0.0,-0.0,-0.0,-0.0,-0.0,0.0224,0.0896,0.212,0.3638,0.4757,0.5378,0.5487,0.5167,0.4532,0.4487,0.3072,0.0223,0.0335,0.039,0.0334,-0.2406,-0.0836,0.4252,0.2959,0.3231,0.4684,0.5273,0.5592,0.5773,0.6748,0.6672,0.5904,0.6193,0.5675,0.4925,0.506,0.3679,0.0905,-0.5232,-1.3529,-2.1662,-2.3709,-2.4789,-2.5115,-2.4091,-2.3544,-2.3277,-2.3206,-2.2947,-2.2582,-2.2304,-2.2209,-2.218,-2.2237,-2.2237,-2.2237,-2.2237,-2.2282,-2.231,-2.231,-2.231,-2.2327,-2.2395,-2.297,-2.341,-2.3477,-2.4069,-2.4489,-2.4421,-2.5101,-2.5592,-2.5571,-2.665,-2.75,-2.7908,-2.8291,-2.851,-2.8554,-2.9655,-3.0338,-3.0411,-3.0775,-3.1372,-3.2148,-3.2195,-3.2283,-3.2517,-3.3417,-3.4077,-3.4537,-3.5183,-3.5657,-3.6,-3.5882,-3.6282,-3.7017,-3.781,-3.8517,-3.9199,-4.0412,-4.0533,-4.0058,-4.0614,-4.0546,-4.0121,-0.0,0.0505,0.1514,0.3212,0.1572,-0.0,-0.0,0.056,0.157,0.3317,0.1457,-0.0,-0.0,-0.0,-0.0,-0.0,0.2188,0.3142,0.2232,0.3633,0.4588,0.4736,0.5218,0.5164,0.4522,0.4515,0.3561,0.1728,0.2914,0.354,0.3538,0.2854,0.2625,0.2734,0.3633,0.4581,0.5576,0.555,0.614,0.7235,0.7458,0.7202,0.6682,0.673,0.6049,0.506,0.5064,0.2705,-0.1902,-1.158,-1.7782,-2.1989,-2.5139,-2.5817,-2.5332,-2.4739,-2.432,-2.3936,-2.3366,-2.2737,-2.2169,-2.182,-2.1507,-2.1354,-2.1688,-2.1748,-2.1748,-2.1748,-2.2032,-2.231,-2.231,-2.231,-2.2496,-2.3071,-2.3291,-2.3596,-2.4171,-2.4421,-2.4303,-2.3697,-2.4797,-2.5499,-2.5229,-2.6772,-2.7908,-2.8264,-2.8953,-2.9489,-2.9795,-3.0662,-3.1421,-3.2063,-3.1883,-3.2281,-3.3405,-3.3107,-3.2822,-3.2535,-3.4253,-3.5181,-3.5381,-3.6363,-3.6849,-3.696,-3.7523,-3.7969,-3.839,-3.959,-4.0784,-4.1779,-4.1128,-4.1073,-4.1279,-4.0525,-4.0204,-4.0171,-0.0,-0.0,0.0504,0.2079,0.2245,0.1681,0.0224,-0.0,0.0561,0.2132,0.0953,0.0561,0.1967,0.2133,0.1849,0.1118,0.2517,0.336,0.3294,0.4027,0.4802,0.55,0.5819,0.6036,0.6041,0.5479,0.4323,0.2563,0.3132,0.3761,0.4497,0.4497,0.4092,0.3345,0.4138,0.4967,0.5723,0.6293,0.694,0.7783,0.8965,0.8616,0.7367,0.7526,0.673,0.5359,0.3359,-0.2164,-0.9541,-1.597,-2.0455,-2.3691,-2.5846,-2.5953,-2.5154,-2.4244,-2.3685,-2.3276,-2.3045,-2.2424,-2.1816,-2.1642,-2.1134,-2.0781,-2.1213,-2.1306,-2.1368,-2.1552,-2.1794,-2.2132,-2.2721,-2.2547,-2.2547,-2.3274,-2.3393,-2.3528,-2.39,-2.3998,-2.3816,-2.3444,-2.4391,-2.5419,-2.6352,-2.7457,-2.8452,-2.9185,-2.9653,-3.0148,-3.0742,-3.1531,-3.2173,-3.2596,-3.3141,-3.356,-3.3807,-3.4363,-3.437,-3.3713,-3.5175,-3.5915,-3.597,-3.7054,-3.7739,-3.8114,-3.8318,-3.8876,-3.9684,-4.0104,-4.106,-4.2162,-4.1268,-4.1087,-4.1313,-4.0703,-4.0336,-4.0171,-0.0,-0.0,-0.0,-0.0,0.2076,0.2865,0.0392,-0.0,-0.0,-0.0,0.0449,0.1741,0.4241,0.4518,0.399,0.2681,0.2567,0.3125,0.4421,0.4588,0.5179,0.6367,0.6642,0.702,0.7503,0.6509,0.5136,0.3282,0.2785,0.3239,0.448,0.4487,0.4536,0.468,0.4691,0.5124,0.5973,0.7239,0.7894,0.8268,1.047,1.0053,0.8161,0.8288,0.7348,0.5478,0.1749,-0.7164,-1.7352,-1.8869,-2.2021,-2.5438,-2.618,-2.5845,-2.4954,-2.3676,-2.2912,-2.253,-2.2643,-2.2186,-2.1655,-2.1524,-2.0941,-2.0466,-2.0854,-2.099,-2.1119,-2.1593,-2.181,-2.2219,-2.3216,-2.3004,-2.2919,-2.3663,-2.3663,-2.363,-2.3765,-2.3723,-2.3697,-2.3697,-2.4457,-2.5825,-2.7989,-2.8488,-2.9185,-3.0314,-3.054,-3.0907,-3.1568,-3.2504,-3.2963,-3.2816,-3.4394,-3.4835,-3.4009,-3.5532,-3.5936,-3.521,-3.6083,-3.6505,-3.6541,-3.7562,-3.8448,-3.9066,-3.8939,-3.9626,-4.0806,-4.0446,-4.0997,-4.2003,-4.1206,-4.0949,-4.1041,-4.0827,-4.0528,-4.0286,-0.0,-0.0,-0.0,-0.0,0.0336,0.0449,0.0056,-0.0,-0.0,-0.0,0.2249,0.4067,0.4458,0.4504,0.4442,0.4209,0.4203,0.4252,0.448,0.5066,0.5437,0.5651,0.6853,0.7289,0.675,0.6583,0.5806,0.432,0.4236,0.4307,0.448,0.4525,0.4791,0.5378,0.5382,0.614,0.7444,0.8212,0.8954,0.9629,1.0954,1.0486,0.8984,0.8622,0.7057,0.478,0.2655,-0.7091,-1.9091,-1.9879,-2.2488,-2.5543,-2.653,-2.6237,-2.5351,-2.4346,-2.3671,-2.3175,-2.2807,-2.2337,-2.1825,-2.1247,-2.0864,-2.067,-2.0744,-2.0883,-2.1167,-2.1808,-2.2599,-2.3216,-2.3376,-2.3833,-2.4425,-2.5186,-2.4763,-2.456,-2.522,-2.5047,-2.4878,-2.4878,-2.6083,-2.7579,-2.9215,-2.9744,-3.0308,-3.1164,-3.188,-3.232,-3.243,-3.3853,-3.4348,-3.366,-3.5257,-3.5716,-3.4844,-3.5807,-3.6229,-3.6138,-3.6945,-3.7331,-3.7349,-3.8206,-3.8769,-3.9173,-4.0263,-4.0995,-4.1447,-4.2052,-4.27,-4.3105,-4.1499,-4.1223,-4.1534,-4.0546,-4.0449,-4.0827,-0.0,-0.0,-0.0,-0.0,-0.0,-0.0,-0.0,-0.0,-0.0,-0.0,0.2645,0.4524,0.4514,0.4497,0.4484,0.4477,0.4473,0.4507,0.4592,0.5167,0.5753,0.6249,0.7193,0.7723,0.783,0.702,0.647,0.6288,0.5062,0.4688,0.5066,0.5058,0.5437,0.6091,0.6091,0.6891,0.8277,0.8978,0.9658,1.0498,1.2007,1.1517,0.979,0.9363,0.7822,0.5016,-0.111,-0.9562,-1.8195,-2.0065,-2.3296,-2.6484,-2.6341,-2.5695,-2.4807,-2.3937,-2.3556,-2.3393,-2.3287,-2.3156,-2.2997,-2.2704,-2.2346,-2.2181,-2.2571,-2.2652,-2.2539,-2.2224,-2.2742,-2.3424,-2.4049,-2.437,-2.4729,-2.549,-2.4983,-2.4746,-2.5507,-2.533,-2.5488,-2.6599,-2.745,-2.858,-3.0161,-3.0677,-3.1201,-3.2008,-3.2412,-3.2973,-3.3872,-3.4605,-3.5073,-3.5183,-3.634,-3.656,-3.5734,-3.7,-3.7422,-3.6964,-3.779,-3.7918,-3.7544,-3.8322,-3.9273,-4.0261,-4.083,-4.169,-4.2631,-4.2663,-4.2826,-4.2921,-4.1835,-4.1358,-4.1223,-4.075,-4.0703,-4.0995]},{"header":{"parameterUnit":"m.s-1","parameterCategory":1,"la1":30.6,"la2":28.766,"lo1":-90.7593,"lo2":-88.6598,"dy":0.0162,"dx":0.0183,"nx":116,"ny":114,"refTime":"2023-11-09T06:00:00:Z","depth":0,"parameterNumber":3,"parameterNumberName":"V-component_of_WINDS"},"data":[0.0,0.0,0.0,0.0,0.0,0.0,0.0,0.0,0.0,0.0,0.0,0.0,0.0,0.0,0.0,0.0,0.0,0.0,0.0,0.0,0.0,0.0,0.0,0.0,0.0,0.0,0.0,0.0,0.0,0.0,0.0,0.0,0.0,0.0,0.0,0.0,0.0,0.0,0.0,0.0,0.0,0.0,0.0,0.0,0.0,0.0,0.0,0.0,0.0,0.0,0.0,0.0,0.0,0.0,0.0,0.0,0.0,0.0,0.0,0.0,0.0,0.0,0.0,0.0,0.0,0.0,0.0,0.0,0.0,0.0,0.0,0.0,0.0,0.0,0.0,0.0,0.0,0.0,0.0,0.0,0.0,0.0,0.0,0.0,0.0,0.0,0.0,0.0,0.0,0.0,0.0,0.0,0.0,0.0,0.0,0.0,0.0,0.0,0.0,0.0,0.0,0.0,0.0,0.0,0.0,0.0,0.0,0.0,0.0,0.0,0.0,0.0,0.0,0.0,0.0,0.0,0.0,0.0,0.0,0.0,0.0,0.0,0.0,0.0,0.0,0.0,0.0,0.0,0.0,0.0,0.0,0.0,0.0,0.0,0.0,0.0,0.0,0.0,0.0,0.0,0.0,0.0,0.0,0.0,0.0,0.0,0.0,0.0,0.0,0.0,0.0,0.0,0.0,0.0,0.0,0.0,0.0,0.0,0.0,0.0,0.0,0.0,0.0,0.0,0.0,0.0,0.0,0.0,0.0,0.0,0.0,0.0,0.0,0.0,0.0,0.0,0.0,0.0,0.0,0.0,0.0,0.0,0.0,0.0,0.0,0.0,0.0,0.0,0.0,0.0,0.0,0.0,0.0,0.0,0.0,0.0,0.0,0.0,0.0,0.0,0.0,0.0,0.0,0.0,0.0,0.0,0.0,0.0,0.0,0.0,0.0,0.0,0.0,0.0,0.0,0.0,0.0,0.0,0.0,0.0,0.0,0.0,0.0,0.0,0.0,0.0,0.0,0.0,0.0,0.0,0.0,0.0,0.0,0.0,0.0,0.0,0.0,0.0,0.0,0.0,0.0,0.0,0.0,0.0,0.0,0.0,0.0,0.0,0.0,0.0,0.0,0.0,0.0,0.0,0.0,0.0,0.0,0.0,0.0,0.0,0.0,0.0,0.0,0.0,0.0,0.0,0.0,0.0,0.0,0.0,0.0,0.0,0.0,0.0,0.0,0.0,0.0,0.0,0.0,0.0,0.0,0.0,0.0,0.0,0.0,0.0,0.0,0.0,0.0,0.0,0.0,0.0,0.0,0.0,0.0,0.0,0.0,0.0,0.0,0.0,0.0,0.0,0.0,0.0,0.0,0.0,0.0,0.0,0.0,0.0,0.0,0.0,0.0,0.0,0.0,0.0,0.0,0.0,0.0,0.0,0.0,0.0,0.0,0.0,0.0,0.0,0.0,0.0,0.0,0.0,0.0,0.0,0.0,0.0,0.0,0.0,0.0,0.0,0.0,0.0,0.0,0.0,0.0,0.0,0.0,0.0,0.0,0.0,0.0,0.0,0.0,0.0,0.0,0.0,0.0,0.0,0.0,0.0,0.0,0.0,0.0,0.0,0.0,0.0,0.0,0.0,0.0,0.0,0.0,0.0,0.0,0.0,0.0,0.0,0.0,0.0,0.0,0.0,0.0,0.0,0.0,0.0,0.0,0.0,0.0,0.0,0.0,0.0,0.0,0.0,0.0,0.0,0.0,0.0,0.0,0.0,0.0,0.0,0.0,0.0,0.0,0.0,0.0,0.0,0.0,0.0,0.0,0.0,0.0,0.0,0.0,0.0,0.0,0.0,0.0,0.0,0.0,0.0,0.0,0.0,0.0,0.0,0.0,0.0,0.0,0.0,0.0,0.0,0.0,0.0,0.0,0.0,0.0,0.0,0.0,0.0,0.0,0.0,0.0,0.0,0.0,0.0,0.0,0.0,0.0,0.0,0.0,0.0,0.0,0.0,0.0,0.0,0.0,0.0,0.0,0.0,0.0,0.0,0.0,0.0,0.0,0.0,0.0,0.0,0.0,0.0,0.0,0.0,0.0,0.0,0.0,0.0,0.0,0.0,0.0,0.0,0.0,0.0,0.0,0.0,0.0,0.0,0.0,0.0,0.0,0.0,0.0,0.0,0.0,0.0,0.0,0.0,0.0,0.0,0.0,0.0,0.0,0.0,0.0,0.0,0.0,0.0,0.0,0.0,0.0,0.0,0.0,0.0,0.0,0.0,0.0,0.0,0.0,0.0,0.0,0.0,0.0,0.0,0.0,0.0,0.0,0.0,0.0,0.0,0.0,0.0,0.0,0.0,0.0,0.0,0.0,0.0,0.0,0.0,0.0,0.0,0.0,0.0,0.0,0.0,0.0,0.0,0.0,0.0,0.0,0.0,0.0,0.0,0.0,0.0,0.0,0.0,0.0,0.0,0.0,0.0,0.0,0.0,0.0,0.0,0.0,0.0,0.0,0.0,0.0,0.0,0.0,0.0,0.0,0.0,0.0,0.0,0.0,0.0,0.0,0.0,0.0,0.0,0.0,0.0,0.0,0.0,0.0,0.0,0.0,0.0,0.0,0.0,0.0,0.0,0.0,0.0,0.0,0.0,0.0,0.0,0.0,0.0,0.0,0.0,0.0,0.0,0.0,0.0,0.0,0.0,0.0,0.0,0.0,0.0,0.0,0.0,0.0,0.0,0.0,0.0,0.0,0.0,0.0,0.0,0.0,0.0,0.0,0.0,0.0,0.0,0.0,0.0,0.0,0.0,0.0,0.0,0.0,0.0,0.0,0.0,0.0,0.0,0.0,0.0,0.0,0.0,0.0,0.0,0.0,0.0,0.0,0.0,0.0,0.0,0.0,0.0,0.0,0.0,0.0,0.0,0.0,0.0,0.0,0.0,0.0,0.0,0.0,0.0,0.0,0.0,0.0,0.0,0.0,0.0,0.0,0.0,0.0,0.0,0.0,0.0,0.0,0.0,0.0,0.0,0.0,0.0,0.0,0.0,0.0,0.0,0.0,0.0,0.0,0.0,0.0,0.0,0.0,0.0,0.0,0.0,0.0,0.0,0.0,0.0,0.0,0.0,0.0,0.0,0.0,0.0,0.0,0.0,0.0,0.0,0.0,0.0,0.0,0.0,0.0,0.0,0.0,0.0,0.0,0.0,0.0,0.0,0.0,0.0,0.0,0.0,0.0,0.0,0.0,0.0,0.0,0.0,0.0,0.0,0.0,0.0,0.0,0.0,0.0,0.0,0.0,0.0,0.0,0.0,0.0,0.0,0.0,0.0,0.0,0.0,0.0,0.0,0.0,0.0,0.0,0.0,0.0,0.0,0.0,0.0,0.0,0.0,0.0,0.0,0.0,0.0,0.0,0.0,0.0,0.0,0.0,0.0,0.0,0.0,0.0,0.0,0.0,0.0,0.0,0.0,0.0,0.0,0.0,0.0,0.0,0.0,0.0,0.0,0.0,0.0,0.0,0.0,0.0,0.0,0.0,0.0,0.0,0.0,0.0,0.0,0.0,0.0,0.0,0.0,0.0,0.0,0.0,0.0,0.0,0.0,0.0,0.0,0.0,0.0,0.0,0.0,0.0,0.0,0.0,0.0,0.0,0.0,0.0,0.0,0.0,0.0,0.0,0.0,0.0,0.0,0.0,0.0,0.0,0.0,0.0,0.0,0.0,0.0,0.0,0.0,0.0,0.0,0.0,0.0,0.0,0.0,0.0,0.0,0.0,0.0,0.0,0.0,0.0,0.0,0.0,0.0,0.0,0.0,0.0,0.0,0.0,0.0,0.0,0.0,0.0,0.0,0.0,0.0,0.0,0.0,0.0,0.0,0.0,0.0,0.0,0.0,0.0,0.0,0.0,0.0,0.0,0.0,0.0,0.0,0.0,0.0,0.0,0.0,0.0,0.0,0.0,0.0,0.0,0.0,0.0,0.0,0.0,0.0,0.0,0.0,0.0,0.0,0.0,0.0,0.0,0.0,0.0,0.0,0.0,0.0,0.0,0.0,0.0,0.0,0.0,0.0,0.0,0.0,0.0,0.0,0.0,0.0,0.0,0.0,0.0,0.0,0.0,0.0,0.0,0.0,0.0,0.0,0.0,0.0,0.0,0.0,0.0,0.0,0.0,0.0,0.0,0.0,0.0,0.0,0.0,0.0,0.0,0.0,0.0,0.0,0.0,0.0,0.0,0.0,0.0,0.0,0.0,0.0,0.0,0.0,0.0,0.0,0.0,0.0,0.0,0.0,0.0,0.0,0.0,0.0,0.0,0.0,0.0,0.0,0.0,0.0,0.0,0.0,0.0,0.0,0.0,0.0,0.0,0.0,0.0,0.0,0.0,0.0,0.0,0.0,0.0,0.0,0.0,0.0,0.0,0.0,0.0,0.0,0.0,0.0,0.0,0.0,0.0,0.0,0.0,0.0,0.0,0.0,0.0,0.0,0.0,0.0,0.0,0.0,0.0,0.0,0.0,0.0,0.0,0.0,0.0,0.0,0.0,0.0,0.0,0.0,0.0,0.0,0.0,0.0,0.0,0.0,0.0,0.0,0.0,0.0,0.0,0.0,0.0,0.0,0.0,0.0,0.0,0.0,0.0,0.0,0.0,0.0,0.0,0.0,0.0,0.0,0.0,0.0,0.0,0.0,0.0,0.0,0.0,0.0,0.0,0.0,0.0,0.0,0.0,0.0,0.0,0.0,0.0,0.0,0.0,0.0,0.0,0.0,0.0,0.0,0.0,0.0,0.0,0.0,0.0,0.0,0.0,0.0,0.0,0.0,0.0,0.0,0.0,0.0,0.0,0.0,0.0,0.0,0.0,0.0,0.0,0.0,0.0,0.0,0.0,0.0,0.0,0.0,0.0,0.0,0.0,0.0,0.0,0.0,0.0,0.0,0.0,0.0,0.0,0.0,0.0,0.0,0.0,0.0,0.0,0.0,0.0,0.0,0.0,0.0,0.0,0.0,0.0,0.0,0.0,0.0,0.0,0.0,0.0,0.0,0.0,0.0,0.0,0.0,0.0,0.0,0.0,0.0,0.0,0.0,0.0,0.0,0.0,0.0,0.0,0.0,0.0,0.0,0.0,0.0,0.0,0.0,0.0,0.0,0.0,0.0,0.0,0.0,0.0,0.0,0.0,0.0,0.0,0.0,0.0,0.0,0.0,0.0,0.0,0.0,0.0,0.0,0.0,0.0,0.0,0.0,0.0,0.0,0.0,0.0,0.0,0.0,0.0,0.0,0.0,0.0,0.0,0.0,0.0,0.0,0.0,0.0,0.0,0.0,0.0,0.0,0.0,0.0,0.0,0.0,0.0,0.0,0.0,0.0,0.0,0.0,0.0,0.0,0.0,0.0,0.0,0.0,0.0,0.0,0.0,0.0,0.0,0.0,0.0,0.0,0.0,0.0,0.0,0.0,0.0,0.0,0.0,0.0,0.0,0.0,0.0,0.0,0.0,0.0,0.0,0.0,0.0,0.0,0.0,0.0,0.0,0.0,0.0,0.0,0.0,0.0,0.0,0.0,0.0,0.0,0.0,0.0,0.0,0.0,0.0,0.0,0.0,0.0,0.0,0.0,0.0,0.0,0.0,0.0,0.0,0.0,0.0,0.0,0.0,0.0,0.0,0.0,0.0,0.0,0.0,0.0,0.0,0.0,0.0,0.0,0.0,0.0,0.0,0.0,0.0,0.0,0.0,0.0,0.0,0.0,0.0,0.0,0.0,0.0,0.0,0.0,0.0,0.0,0.0,0.0,0.0,0.0,0.0,0.0,0.0,0.0,0.0,0.0,0.0,0.0,0.0,0.0,0.0,0.0,0.0,0.0,0.0,0.0,0.0,0.0,0.0,0.0,0.0,0.0,0.0,0.0,0.0,0.0,0.0,0.0,0.0,0.0,0.0,0.0,0.0,0.0,0.0,0.0,0.0,0.0,0.0,0.0,0.0,0.0,0.0,0.0,0.0,0.0,0.0,0.0,0.0,0.0,0.0,0.0,0.0,0.0,0.0,0.0,0.0,0.0,0.0,0.0,0.0,0.0,0.0,0.0,0.0,0.0,0.0,0.0,0.0,0.0,0.0,0.0,1.9717,0.0,0.0,0.0,0.0,0.0,0.0,0.0,0.0,0.0,0.0,0.0,0.0,0.0,0.0,0.0,0.0,0.0,0.0,0.0,0.0,0.0,0.0,0.0,0.0,0.0,0.0,0.0,0.0,0.0,0.0,0.0,0.0,0.0,0.0,0.0,0.0,0.0,0.0,0.0,0.0,0.0,0.0,0.0,0.0,0.0,0.0,0.0,0.0,0.0,0.0,0.0,0.0,0.0,0.0,0.0,0.0,0.0,0.0,0.0,0.0,0.0,0.0,0.0,0.0,0.0,0.0,0.0,0.0,0.0,0.0,0.0,0.0,0.0,0.0,0.0,0.0,0.0,0.0,0.0,0.0,0.0,0.0,0.0,0.0,0.0,0.0,0.0,0.0,0.0,0.0,0.0,0.0,0.0,0.0,0.0,0.0,0.0,0.0,0.0,0.0,0.0,0.0,0.0,0.0,0.0,0.0,0.0,0.0,0.0,0.0,0.0,0.0,0.0,0.0,0.0,0.0,2.1146,0.0,0.0,0.0,0.0,0.0,0.0,0.0,0.0,0.0,0.0,0.0,0.0,0.0,0.0,0.0,0.0,0.0,0.0,0.0,0.0,0.0,0.0,0.0,0.0,0.0,0.0,0.0,0.0,0.0,0.0,0.0,0.0,0.0,0.0,0.0,0.0,0.0,0.0,0.0,0.0,0.0,0.0,0.0,0.0,0.0,0.0,0.0,0.0,0.0,0.0,0.0,0.0,0.0,0.0,0.0,0.0,0.0,0.0,0.0,0.0,0.0,0.0,0.0,0.0,0.0,0.0,0.0,0.0,0.0,0.0,0.0,0.0,0.0,0.0,0.0,0.0,0.0,0.0,0.0,0.0,0.0,0.0,0.0,0.0,0.0,0.0,0.0,0.0,0.0,0.0,0.0,0.0,0.0,0.0,0.0,0.0,0.0,0.0,0.0,0.0,0.0,0.0,0.0,0.0,0.0,0.0,0.0,0.0,2.6408,2.693,2.7842,2.7741,2.7741,2.7733,2.5613,2.4073,2.2959,2.1759,0.0,0.0,0.0,0.0,0.0,0.0,0.0,0.0,0.0,0.0,0.0,0.0,0.0,0.0,0.0,0.0,0.0,0.0,0.0,0.0,0.0,0.0,0.3037,0.4816,0.3663,0.2141,0.0,0.0,0.0,0.0,0.0,0.0,0.0,0.0,0.0,0.0,0.0,-0.4652,-0.8845,-1.3347,-1.6194,-1.7426,-1.4953,0.0,0.0,0.0,0.0,0.0,0.0,0.0,0.0,0.0,0.0,0.0,0.0,0.0,0.0,0.0,0.0,0.0,0.0,0.0,0.0,0.0,0.0,0.0,0.0,0.0,0.0,0.0,0.0,0.0,0.0,0.0,0.0,0.0,0.0,0.0,0.0,0.0,0.0,0.0,0.0,0.0,0.0,0.0,2.0429,1.9756,0.0,0.0,0.0,0.0,0.0,0.0,0.0,0.0,0.0,0.0,0.0,0.0,0.0,2.5881,2.7169,2.9093,3.0119,3.0214,3.1182,3.1057,2.9968,2.9455,2.9495,2.9954,2.9125,0.0,2.5918,2.4073,0.0,0.0,0.0,0.0,0.0,0.0,0.0,0.0,0.0,0.0,0.0,0.0,0.0,0.0,0.0,0.0,0.0,0.0,0.0,0.0,0.0,0.4513,0.4458,0.5128,0.1893,-0.0999,-0.303,0.0,0.0,0.0,0.0,0.0,0.0,0.0,0.0,0.0,0.9161,0.2956,-0.3507,-1.2238,-1.7449,-1.9477,-1.8505,-1.709,-1.5292,-1.3588,0.0,0.0,0.0,0.0,0.0,0.0,0.0,0.0,0.0,0.0,0.0,0.0,0.0,0.0,0.0,0.0,0.0,0.0,0.0,0.0,0.0,0.0,0.0,0.0,0.0,0.0,0.0,0.0,0.0,0.0,0.0,0.0,0.0,0.0,0.0,0.0,0.0,0.0,0.0,2.0952,2.0851,1.9233,1.9182,1.8173,0.0,0.0,0.0,0.0,0.0,0.0,0.0,0.0,0.0,2.6359,2.7525,2.8673,2.9665,3.0772,3.1211,3.0879,3.1268,3.0907,2.9847,2.957,2.961,2.9834,2.957,2.9469,2.9307,2.7965,2.7204,2.6843,0.0,0.0,0.0,0.0,2.5239,2.5103,0.0,0.0,0.0,0.0,0.0,0.0,0.0,0.0,0.0,0.0,0.0,0.0,0.4612,0.5081,0.535,0.5373,0.1399,-0.2211,-0.4583,0.0,0.0,0.0,0.0,0.0,0.0,0.0,0.0,2.2396,1.7402,1.0251,0.0904,-1.2865,-1.9945,-2.1061,-2.1456,-1.9819,-1.6677,-1.4962,-1.2089,0.0,0.0,0.0,0.0,0.0,0.0,0.0,0.0,0.0,0.0,0.0,0.0,0.0,0.0,0.0,0.0,0.0,0.0,0.0,0.0,0.0,0.0,0.0,0.0,0.0,0.0,0.0,0.0,0.0,0.0,0.0,0.0,0.0,0.0,0.0,0.0,0.0,0.0,2.1732,2.167,1.9391,2.0217,1.9725,0.0,0.0,0.0,0.0,0.0,0.0,2.3923,2.5065,2.6614,2.8648,2.9725,3.0712,3.1608,3.1928,3.1861,3.1476,3.1242,3.048,2.9333,2.9389,2.9335,2.9333,2.9537,3.0568,3.2005,3.0881,3.0261,3.0008,2.8792,2.8305,2.8314,2.8379,2.8152,2.788,0.0,0.0,0.0,0.0,0.0,0.0,0.0,0.0,0.0,0.0,0.0,0.3018,0.4898,0.5088,0.5192,0.5411,0.3062,0.0262,-0.28,-0.5496,-0.6711,0.0,0.0,0.0,0.0,0.0,0.0,1.9881,1.9401,1.3011,0.0792,-1.7548,-2.4454,-2.1511,-2.2526,-2.1219,-1.8101,-1.6386,-1.2604,-0.7476,0.0,0.0,0.0,0.0,0.0,0.0,0.0,0.0,0.0,0.0,0.0,0.0,0.0,0.0,0.0,0.0,0.0,0.0,0.0,0.0,0.0,0.0,0.0,0.0,0.0,0.0,0.0,0.0,0.0,0.0,0.0,0.0,0.0,0.0,0.0,0.0,0.0,0.0,0.0,2.0949,2.2416,0.0,0.0,0.0,0.0,2.0385,2.3399,2.5319,2.5464,2.7126,2.896,3.0998,3.1133,3.1868,3.3362,3.3391,3.3391,3.3362,3.2735,3.1253,2.9156,2.9227,2.9223,2.917,2.9898,3.1445,3.3268,3.1505,3.1157,3.1654,3.1045,3.0436,2.991,2.991,2.9508,2.8919,0.0,0.0,0.0,0.0,0.0,0.0,0.0,0.0,0.0,0.4472,0.4766,0.5239,0.5914,0.6441,0.6337,0.5317,0.407,0.1794,-0.1783,-0.4077,-0.5581,0.0,0.0,0.0,0.0,0.0,1.8766,1.7806,1.8548,1.1472,-0.2946,-1.3046,-1.9275,-2.1978,-2.2344,-2.2271,-2.1532,-1.6585,-1.1453,-0.6112,-0.1043,0.2672,0.0,0.0,0.0,0.0,0.0,0.0,0.0,0.0,0.0,0.0,0.0,0.0,0.0,0.0,0.0,0.0,0.0,0.0,0.0,0.0,0.0,0.0,0.0,0.0,0.0,0.0,0.0,0.0,0.0,0.0,0.0,0.0,0.0,0.0,0.0,0.0,0.0,2.1272,2.2351,0.0,2.0973,2.1711,2.2434,2.2879,2.4878,2.6591,2.7728,2.8906,3.0312,3.2003,3.2047,3.2494,3.3484,3.308,3.2647,3.2213,3.1539,3.0264,2.8606,2.8641,2.8655,2.8635,2.9358,3.0397,3.1541,3.1335,3.1878,3.2873,3.2703,3.1911,3.0993,3.0993,3.0323,2.9362,0.0,0.0,0.0,0.0,0.0,0.0,0.0,0.0,0.0,0.5012,0.5988,0.6577,0.675,0.735,0.7264,0.6189,0.5108,0.3149,0.0,-0.2911,-0.5532,0.0,-0.4252,0.0,0.0,1.6558,1.7878,1.7053,1.5019,0.8026,-0.3642,-1.0301,-1.5931,-2.0475,-2.1069,-2.182,-2.2066,-1.3519,-0.8268,-0.5078,0.2375,0.6646,0.8515,0.0,0.0,0.0,0.0,0.0,0.0,0.0,0.0,0.0,0.0,0.0,0.0,0.0,0.0,0.0,0.0,0.0,0.0,0.0,0.0,0.0,0.0,0.0,0.0,0.0,0.0,0.0,0.0,0.0,0.0,0.0,0.0,0.0,0.0,0.0,2.267,2.1458,2.264,2.3156,2.2197,2.2885,2.3676,2.4408,2.5749,2.6961,2.7971,2.9021,3.0125,3.1427,3.1679,3.202,3.2482,3.2048,3.1509,3.0866,3.0193,2.9226,2.8009,2.8071,2.803,2.8094,2.8753,2.9469,3.0223,3.0687,3.139,3.2213,3.2662,3.2153,3.118,3.118,3.0507,2.9579,0.0,0.0,0.0,0.0,0.0,0.0,0.0,0.0,0.156,0.594,0.6558,0.6793,0.7269,0.7603,0.7834,0.8011,0.6273,0.4379,0.2578,-0.2147,-0.6543,0.0,0.0,0.0,1.5525,1.4393,1.4907,1.7448,0.9125,0.2992,-0.1081,-1.0081,-1.5218,-1.6978,-1.8722,-1.9808,-1.9522,-0.7444,-0.3393,-0.424,0.5988,1.1161,1.2671,0.0,0.0,0.0,0.0,0.0,0.0,0.0,0.0,0.0,0.0,0.0,0.0,0.0,0.0,0.0,0.0,0.0,0.0,0.0,0.0,0.0,0.0,0.0,0.0,0.0,0.0,0.0,0.0,0.0,0.0,0.0,0.0,0.0,2.1469,2.2389,2.2677,2.1694,2.3416,2.4305,2.3228,2.4632,2.536,2.4858,2.6103,2.6665,2.6096,2.7407,2.8563,2.9305,2.9894,3.0294,3.0421,3.0406,3.0163,2.9549,2.8906,2.8193,2.7512,2.7536,2.7543,2.7527,2.8246,2.8951,2.952,2.9549,2.952,2.9624,3.0956,3.1046,3.0447,3.0447,3.0058,2.9505,0.0,0.0,0.0,0.0,0.0,0.0,0.0,-0.0947,0.1222,0.4563,0.6789,0.8109,0.8223,0.8812,0.9024,0.8641,0.7008,0.5549,0.4296,-0.0176,-0.2894,0.0,0.0,0.0,1.3275,1.5107,1.5396,1.4169,0.7184,0.1724,-0.2495,-0.9165,-1.3232,-1.4967,-1.6427,-1.8339,-1.9821,-0.9536,-0.3535,-0.0026,1.0493,1.5112,1.5583,0.0,0.0,0.0,0.0,0.0,0.0,0.0,0.0,0.0,0.0,0.0,0.0,0.0,0.0,0.0,0.0,0.0,0.0,0.0,0.0,0.0,0.0,0.0,0.0,0.0,0.0,0.0,0.0,0.0,0.0,0.0,0.0,2.0335,2.1857,2.2138,2.2285,2.2382,2.2914,2.3313,2.3397,2.4357,2.4971,2.4833,2.574,2.6241,2.6083,2.7407,2.8126,2.7888,2.8446,2.8834,2.8968,2.8953,2.8939,2.8861,2.816,2.77,2.7558,2.707,2.6808,2.6852,2.8054,2.8151,2.7409,2.8441,2.8293,2.759,2.9415,2.9714,2.9116,2.9116,2.8697,2.8053,0.0,0.0,0.0,0.0,0.0,0.0,0.0,-0.083,0.1768,0.4081,0.7036,0.8933,0.8839,0.9363,0.962,0.9339,0.6871,0.588,0.722,0.2118,0.0,0.0,0.0,0.6053,1.0375,1.2289,1.1691,0.8435,0.3452,-0.1562,-0.6564,-0.9967,-1.2551,-1.4373,-1.5186,-1.6598,-1.7787,-0.8684,-0.3065,0.0665,1.1325,1.6729,1.8232,1.678,1.4524,1.2101,1.1506,0.9863,0.7847,0.641,0.0,0.0,0.0,0.0,0.0,0.0,0.0,0.0,0.0,0.0,0.0,0.0,0.0,0.0,0.0,0.0,0.0,0.0,0.0,0.0,0.0,0.0,0.0,0.0,1.9541,2.0455,2.1424,2.1604,2.1777,2.2317,2.2063,2.1922,2.2278,2.2716,2.3051,2.3051,2.3854,2.434,2.434,2.57,2.6459,2.644,2.7039,2.7428,2.7556,2.7556,2.7481,2.7219,2.6826,2.6483,2.6286,2.5869,2.5516,2.5341,2.6197,2.6087,2.5422,2.6433,2.6416,0.0,0.0,0.0,0.0,0.0,2.7232,2.7066,0.0,0.0,0.0,0.0,0.0,0.0,0.0,-0.0988,0.2417,0.4155,0.7225,0.9203,0.9072,0.9382,0.9588,0.9702,0.5843,0.5013,0.8868,0.0,0.0,-0.0361,0.3211,0.6038,0.7726,0.7723,0.5828,0.2069,-0.1386,-0.5977,-1.149,-1.1715,-1.2829,-1.4687,-1.4789,-1.498,-1.4748,-0.7342,-0.3426,-0.123,0.9257,1.6317,2.0402,1.8885,1.7081,1.5265,1.4681,1.2972,1.0665,0.8729,0.0,0.0,0.0,0.0,0.0,0.0,0.0,0.0,0.0,0.0,0.0,0.0,0.0,0.0,0.0,0.0,0.0,0.0,0.0,0.0,0.0,0.0,0.0,0.0,2.0389,2.103,2.0736,2.0841,2.1062,2.1549,2.091,2.0462,2.0462,2.0526,2.0568,2.0512,2.1335,2.1794,2.1794,0.0,0.0,0.0,0.0,2.5928,2.6142,2.6142,2.5936,2.5398,2.5273,2.4984,2.4609,2.435,2.4047,2.3644,2.3677,2.365,2.364,2.418,2.4401,2.4629,2.6572,2.6572,2.5414,2.5466,2.5906,2.6281,0.0,0.0,0.0,0.0,0.0,0.0,0.0,-0.2861,0.0437,0.3932,0.6966,0.8693,0.8428,0.8851,0.8782,0.8067,0.3674,0.0697,0.0058,0.0,0.0547,0.0901,0.5301,0.7883,0.8334,0.584,0.3423,0.1138,-0.5421,-0.9621,-1.143,-1.2246,-1.3297,-1.4654,-1.5207,-1.5198,-1.4717,-1.3413,-1.0022,-0.4709,0.4212,1.3099,2.0787,1.9008,1.8034,1.7382,1.523,1.3902,1.2767,1.0843,0.8926,0.7163,0.5967,0.0,0.0,0.0,0.0,0.0,0.0,0.0,0.0,0.0,0.0,0.0,0.0,0.0,0.0,0.0,0.0,0.0,0.0,0.0,0.0,2.0248,2.0671,2.0924,2.1041,1.9918,1.9277,1.9747,1.9617,1.9562,1.9562,2.0204,2.0422,2.0081,2.0726,2.1223,2.1308,2.2566,2.3362,2.3517,2.4088,2.4529,2.4682,2.474,2.4959,2.5398,0.0,0.0,2.5177,2.3649,2.3138,2.3458,2.3598,2.3341,2.2897,2.3582,2.3881,2.3993,2.5334,2.539,2.4777,2.5297,2.53,2.5024,0.0,0.0,0.0,0.0,0.0,0.0,0.0,-0.4613,-0.1576,0.2268,0.5395,0.7609,0.8404,0.7384,0.587,0.392,0.0171,-0.2324,0.0,-0.0409,0.1311,0.1892,0.5359,0.6726,0.5545,0.3107,0.0494,-0.2265,-0.7763,-1.1023,-1.2144,-1.3236,-1.4228,-1.5139,-1.5747,-1.5843,-1.5556,-1.5699,-1.4496,-1.171,-0.1889,0.6048,1.2413,1.6278,1.7609,1.7115,1.5195,1.4159,1.3375,1.1452,0.9793,0.8353,0.7294,0.5604,0.3895,0.0,0.0,0.0,0.0,0.0,0.0,0.0,0.0,0.0,0.0,0.0,0.0,0.0,0.0,1.7064,0.0,0.0,2.0033,2.0202,2.0693,2.064,1.9708,1.924,1.9032,1.9264,1.8911,1.8654,1.8654,1.9044,1.911,1.8648,1.9342,2.0025,2.0526,2.1584,2.2406,2.3065,2.3414,2.3609,2.3721,2.3708,2.3884,2.4266,2.3288,2.3215,2.3804,2.2317,2.1792,2.2024,2.1852,2.1537,2.1263,2.1917,2.2366,2.263,2.3226,2.3703,2.4118,2.4067,2.3922,2.3763,0.0,0.0,0.0,0.0,0.0,0.0,0.0,0.0,-0.3202,0.0161,0.3361,0.5887,0.749,0.5131,0.2162,-0.114,-0.3629,0.0,0.0,-0.0285,0.1747,0.2385,0.4674,0.4599,0.1782,0.0221,-0.2479,-0.6332,-0.9416,-1.1617,-1.3004,-1.4395,-1.5336,-1.5957,-1.6532,-1.6621,-1.6362,-1.6504,-1.7599,-1.83,-0.7167,-0.1211,0.2102,1.2061,1.6084,1.6094,1.4613,1.3824,1.3272,1.1579,1.0347,0.9316,0.8376,0.6773,0.5229,0.5079,0.4217,0.0,0.0,0.0,0.0,0.0,0.0,0.0,0.0,0.0,1.5334,1.5994,1.7213,1.8586,1.9881,2.0323,2.0392,2.0154,2.0709,2.0335,1.817,1.8302,1.8588,1.8526,1.8182,1.8008,1.8008,1.8008,1.7803,1.7295,1.7981,1.8837,1.9767,2.0567,2.1655,2.3053,2.3078,2.3078,2.3078,2.3025,2.2915,2.2915,2.2309,2.2046,2.2121,2.1004,2.0618,2.0693,2.0049,1.9798,1.9836,2.03,2.0752,2.1167,2.128,2.1979,2.2893,2.2538,2.2383,2.2401,0.0,0.0,0.0,0.0,0.0,0.0,0.0,0.0,0.0,-0.1515,0.1362,0.3299,0.352,0.1744,-0.1411,-0.6185,-0.6815,0.0,-0.361,-0.1039,0.0871,0.2035,0.3923,0.3104,-0.0883,-0.2019,-0.4889,-0.9678,-1.0965,-1.228,-1.3658,-1.5382,-1.6578,-1.721,-1.7759,-1.7352,-1.6298,-1.7472,-1.921,-2.0219,-0.9261,-0.5201,-0.4491,0.6871,1.3197,1.5722,1.3348,1.2719,1.2862,1.2029,1.1109,1.0126,0.9381,0.8385,0.7242,0.6409,0.5392,0.4766,0.5864,0.7472,0.9596,1.2293,1.357,1.4849,0.0,0.0,1.7158,1.8986,1.9144,1.9355,2.0787,2.1749,2.2115,2.1175,2.0968,2.0029,1.7615,1.6732,1.6152,1.5677,1.7079,1.8008,1.8008,1.8008,1.7676,1.6865,1.746,1.8294,1.9332,2.01,2.1267,2.304,2.3078,2.3078,2.3078,2.2648,2.2397,2.2397,2.1343,2.1104,2.1543,2.0413,2.0175,2.0693,2.0049,1.9798,1.9811,1.9874,1.9936,2.0037,2.0552,2.0545,2.0335,2.1341,2.1438,2.1122,0.0,0.0,0.0,0.0,0.0,0.0,0.0,0.0,0.0,0.0,-0.3506,-0.223,-0.047,-0.5011,-0.8606,-0.9685,0.0,0.0,-0.4944,-0.1734,0.1073,0.3359,0.3072,0.1514,-0.1316,-0.4111,-0.7074,-1.0295,-1.1942,-1.3551,-1.5197,-1.6729,-1.7594,-1.789,-1.8442,-1.8105,-1.7229,-1.8106,-1.8892,-1.8821,-1.0605,-0.6414,-0.4257,0.3642,0.8977,1.2123,1.1617,1.1448,0.0,0.0,0.9395,0.8628,0.8799,0.7894,0.6798,0.6866,0.6252,0.6015,0.7625,0.9766,1.1991,1.3543,1.4676,1.5751,1.7047,1.7431,1.7707,1.848,1.9108,1.9684,2.0308,2.1169,2.133,0.0,2.0019,1.936,1.6807,1.6145,1.5789,1.5474,1.6125,1.6546,1.6394,1.6862,1.6803,1.5919,1.6924,1.8093,1.9264,1.9812,2.1033,2.3053,2.3078,2.2975,2.2661,2.2422,2.2146,2.1832,2.1041,2.0953,2.1443,2.0313,1.9936,2.015,1.9911,1.9798,1.9798,1.9798,1.9798,1.9823,2.0075,2.0012,1.9977,2.1147,2.0991,2.0346,0.0,0.0,0.0,0.0,0.0,0.0,0.0,0.0,0.0,0.0,0.0,-0.8315,-0.7097,-1.15,-1.3917,-1.2474,0.0,0.0,0.0,-0.234,0.0944,0.4379,0.2255,0.0056,-0.1911,-0.5999,-0.9084,-1.111,-1.3401,-1.5471,-1.7325,-1.8977,-1.9646,-1.9435,-1.985,-1.9358,-1.8313,-1.9166,-1.8937,-1.7447,-1.1582,-0.7396,-0.3984,0.1817,0.5688,0.8076,0.9568,0.9946,0.9576,0.8912,0.8175,0.7701,0.8393,0.774,0.6845,0.7543,0.7401,0.754,0.943,1.1432,1.3362,1.4844,1.5823,1.663,1.7239,1.7897,1.8406,1.9008,1.9519,2.0112,2.0711,2.1173,2.0886,1.9211,1.9478,1.887,1.5954,1.5493,1.536,1.4875,1.4813,1.4751,1.4684,1.5648,1.6095,1.5632,1.643,1.7576,1.9044,1.9404,2.0437,2.2359,2.2628,2.2491,2.1947,2.2031,2.1807,2.1255,2.069,2.0532,2.0704,1.9674,1.9307,1.9475,1.9475,1.9592,1.9798,1.9798,1.9798,1.9823,1.9974,1.9936,1.9925,2.0939,2.0694,1.994,0.0,0.0,0.0,0.0,0.0,0.0,0.0,0.0,0.0,0.0,0.0,0.0,0.0,0.0,-1.5478,-1.4588,0.0,0.0,0.0,-0.2866,-0.0168,0.4336,0.1455,-0.1231,-0.3401,-0.7651,-1.0815,-1.2905,-1.5646,-1.8019,-2.0057,-2.2495,-2.3249,-2.2568,-2.2595,-2.1289,-1.9183,-2.0952,-2.0121,-1.7183,-1.2239,-0.8734,-0.5734,0.1464,0.4155,0.4483,0.717,0.8102,0.8077,0.8358,0.8363,0.8404,0.8558,0.8559,0.0,0.8737,0.8961,0.9541,1.1247,1.1952,1.3053,1.6263,1.7117,1.7722,1.9992,1.9837,1.9885,2.2095,2.1125,2.0561,2.2798,2.2502,2.1419,2.0086,1.9902,1.8659,1.5078,1.455,1.412,1.3051,1.2898,1.3013,0.0,1.4706,1.5816,1.6349,1.6111,1.6751,1.8511,1.8659,1.9265,2.0632,2.1491,2.1677,2.1069,2.1358,2.1242,2.0743,2.01,1.9448,1.8762,1.8027,1.807,1.8715,1.8715,1.915,1.9798,1.9798,1.9798,1.9861,2.0426,2.03,1.9874,2.0504,2.0353,1.9798,0.0,0.0,0.0,0.0,0.0,0.0,0.0,0.0,0.0,0.0,0.0,0.0,0.0,0.0,0.0,0.0,-1.5453,-1.173,0.0,-0.4916,-0.298,-0.1529,-0.2237,-0.3828,-0.636,-0.8958,-1.1721,-1.4707,-1.7379,-1.9965,-2.2401,-2.4107,-2.4572,-2.3951,-2.3449,-2.309,-2.2589,-1.92,-1.7151,-1.5714,-1.0056,-0.6239,-0.3614,-0.0775,0.0418,0.07,0.0,0.3443,0.4463,0.4561,0.5379,0.6543,0.7821,0.829,0.8413,0.8692,0.9857,1.1106,1.184,1.3753,1.5944,1.766,1.809,1.8511,1.9833,1.9944,1.9694,1.963,1.9756,2.0017,2.0564,2.0614,2.025,1.9211,1.9308,1.8426,1.5244,1.4841,1.4478,1.3478,1.334,0.0,0.0,0.0,0.0,1.5808,1.6413,1.7411,1.8947,1.9351,1.9833,2.0602,2.091,2.0797,2.022,2.0016,1.9622,1.9109,1.8585,1.8232,1.7961,1.7688,1.7743,1.8015,1.8501,1.8555,1.8382,1.8874,1.8768,1.8352,1.8581,1.8815,1.9121,1.9303,1.9531,1.9798,0.0,0.0,0.0,0.0,0.0,0.0,0.0,0.0,0.0,0.0,0.0,0.0,0.0,0.0,0.0,0.0,0.0,-1.4525,-1.069,0.0,-0.5633,-0.4012,-0.5197,-0.7234,-1.013,-1.17,-1.4063,-1.7258,-2.0218,-2.2842,-2.5107,-2.6947,-2.7333,-2.6413,-2.5756,-2.5002,-2.3892,-2.0029,-1.7292,-1.519,-1.0755,-0.7576,-0.5335,-0.4124,-0.3808,0.0,-0.3419,-0.1949,-0.0067,0.1598,0.3191,0.4782,0.72,0.893,1.0195,1.0772,1.1805,1.2895,1.3439,1.5259,1.7168,1.8132,1.8379,1.8607,1.9468,1.9468,1.9233,1.9246,1.9305,1.9555,1.9993,2.0122,1.985,1.9005,1.9099,1.8462,1.6121,1.5317,1.4809,1.4388,1.4035,1.3915,0.0,0.0,0.0,1.5937,1.6365,1.7339,1.8954,1.9134,1.9334,1.9628,1.9944,1.9821,1.9113,1.9088,1.8776,1.8047,1.7456,1.7202,1.7191,1.6912,1.6968,1.7246,1.7688,1.7797,1.7633,1.8124,1.8015,1.7578,1.7578,1.7907,1.8286,1.8286,1.8608,1.9032,0.0,0.0,0.0,0.0,0.0,0.0,0.0,0.0,0.0,0.0,0.0,0.0,0.0,0.0,0.0,0.0,0.0,0.0,-1.4223,0.0,-0.8272,-0.3788,-0.7627,-1.1296,-1.4363,-1.5677,-1.7705,-2.0454,-2.3921,-2.6431,-2.8081,-3.0698,-3.1183,-2.9782,-2.9215,-2.686,-2.3342,-2.2912,-2.0045,-1.5587,-1.3735,-1.2022,-1.0373,-0.834,-0.8192,-0.9097,-0.9034,-0.7655,-0.5228,-0.0468,0.1994,0.3704,0.7067,1.0588,1.3685,1.4604,1.478,1.4926,1.5914,1.6474,1.6913,1.7852,1.8008,1.8134,1.9034,1.8576,1.8504,2.072,1.9734,1.9143,0.0,0.0,2.0281,1.9551,1.9358,1.8839,1.7432,1.5982,1.5247,0.0,0.0,0.0,0.0,0.0,0.0,1.6665,0.0,1.6628,1.8521,1.8291,1.8057,1.8008,1.8767,1.8718,1.7781,1.8561,1.8469,1.7468,1.6754,1.6436,1.6436,1.57,1.5748,1.6436,1.6492,1.6866,1.7512,1.7523,1.7523,1.7468,1.7468,1.7523,1.7523,1.7523,1.7578,1.7677,0.0,0.0,0.0,0.0,0.0,0.0,0.0,0.0,0.0,0.0,0.0,0.0,0.0,0.0,0.0,0.0,0.0,0.0,-2.0957,-1.6709,-1.3728,-1.2779,-1.3508,-1.45,-1.5751,-1.8575,-2.124,-2.3714,-2.5977,-2.7914,-2.9555,-3.0709,-3.0801,-2.9954,-2.8793,-2.735,-2.5394,-1.904,-1.6378,-1.5862,-1.0262,-0.9034,-1.0542,-0.995,-1.0249,-1.0968,-1.0233,-0.9077,-0.719,-0.2529,0.3232,0.8874,1.2028,1.3795,1.5075,1.6951,1.7254,1.7056,1.7397,1.8024,1.869,1.8911,1.7949,1.7189,1.8093,1.7523,1.7005,1.7695,1.7988,1.8496,0.0,0.0,0.0,2.0648,2.048,0.0,1.7535,1.6677,0.0,1.4671,0.0,1.4115,1.4195,1.5104,0.0,0.0,1.7553,1.8154,1.9058,1.9014,1.8672,1.8027,1.7895,1.775,1.7521,1.7092,1.6585,1.5968,1.5748,1.569,1.57,1.5468,1.5526,1.569,1.6265,1.6312,1.6026,1.6528,1.6482,1.5968,1.5968,1.6312,1.6765,1.6765,1.7146,1.7523,0.0,0.0,0.0,0.0,0.0,0.0,0.0,0.0,0.0,0.0,0.0,0.0,0.0,0.0,0.0,0.0,0.0,0.0,0.0,-1.9866,-1.7871,-1.8004,-1.8026,-1.828,-1.8892,-2.1938,-2.3986,-2.4948,-2.7307,0.0,-2.9158,-3.0502,-3.0555,-2.9504,-2.7737,-2.5784,-2.3448,-1.7228,-1.4635,0.0,0.0,-1.0239,-1.2501,-1.2822,-1.3592,0.0,0.0,0.0,0.0,0.0,0.0,1.1745,1.5457,1.7273,1.8238,1.9629,1.9655,1.9177,1.8623,1.887,1.9233,1.8854,1.7677,1.672,1.7052,1.6437,1.5835,1.5774,1.6766,1.7846,1.8605,1.9536,2.0279,0.0,0.0,0.0,1.831,1.725,1.6253,0.0,1.4518,0.0,1.4095,1.547,1.6466,0.0,1.7838,1.8646,1.9234,1.9102,1.8701,1.8037,1.7598,1.7197,1.6807,1.6123,1.5654,1.541,1.541,1.541,1.541,1.541,1.541,1.541,0.0,1.5748,1.541,1.5864,1.5748,1.541,1.541,1.5642,1.6036,1.6036,1.6255,1.6585,0.0,0.0,0.0,0.0,0.0,0.0,0.0,0.0,0.0,0.0,0.0,0.0,0.0,0.0,0.0,0.0,0.0,0.0,0.0,0.0,0.0,0.0,-2.1546,-2.2118,-2.2716,-2.5132,-2.6015,-2.5254,-2.7878,-2.8648,0.0,0.0,0.0,0.0,0.0,0.0,0.0,-1.6284,-1.3948,-1.236,-1.1774,-1.2819,-1.4807,0.0,0.0,0.0,0.0,0.0,0.0,0.0,1.0312,1.338,1.8068,2.0482,2.1758,2.2375,2.194,2.1057,1.9792,1.9497,1.9233,1.8269,1.7285,1.6468,1.6057,1.5489,1.4947,1.4678,1.591,1.7063,1.7316,1.8995,2.0314,1.9976,0.0,1.9916,1.887,1.7473,1.6411,1.5893,1.5005,1.4309,1.4055,1.5853,1.6763,1.6269,1.7608,1.8648,1.9146,1.8848,1.8418,1.7939,1.7568,1.6992,1.6223,1.5771,1.5557,1.5498,1.5498,1.5469,1.541,1.541,1.541,1.541,1.541,1.541,1.541,1.541,1.541,1.541,1.541,1.541,1.541,1.541,1.541,1.541,0.0,0.0,0.0,0.0,0.0,0.0,0.0,0.0,0.0,0.0,-2.4804,0.0,0.0,0.0,0.0,0.0,0.0,0.0,0.0,0.0,0.0,0.0,-2.4392,-2.4822,-2.5484,-2.6714,-2.7108,-2.6571,-2.6766,-2.6657,-2.6261,-2.6307,-2.5681,-2.4456,-2.3191,-2.0643,-1.709,-1.4059,-1.2736,-1.2555,-1.0136,-1.1286,-1.433,0.0,0.0,0.0,0.0,0.0,0.0,0.0,1.315,1.5844,2.0748,2.2334,2.2736,2.438,2.395,2.2598,2.0865,2.0398,2.0009,1.8395,1.7285,1.641,1.5573,1.4617,0.0,0.0,1.5251,1.6473,1.7877,1.8752,1.9387,1.9889,1.9283,1.8396,1.7361,1.6645,1.5789,0.0,1.4025,1.3774,1.3728,1.5283,0.0,0.0,1.8053,1.8981,1.8779,1.8601,1.8281,1.7519,1.7422,1.7139,1.6621,1.6543,1.6318,1.5947,1.5947,1.5762,1.541,1.541,1.541,1.541,1.541,0.0,1.541,1.541,1.541,1.541,1.541,1.541,1.541,1.541,1.541,1.541,0.0,0.0,0.0,0.0,0.0,0.0,0.0,0.0,0.0,-2.4495,-2.4723,-2.512,0.0,0.0,0.0,0.0,0.0,0.0,0.0,0.0,0.0,0.0,0.0,0.0,0.0,-2.6411,-2.6053,-2.4806,0.0,-2.4878,-2.3775,-2.3983,-2.3353,-2.1931,-1.9709,-1.7403,-1.4902,-1.1267,-0.9693,-0.9519,-0.8198,-0.9124,0.0,0.0,0.0,0.0,0.0,0.0,0.0,0.0,1.4487,1.7819,2.2555,2.4059,2.415,2.4676,2.4366,2.3367,2.1197,2.059,2.0204,1.8462,1.7285,1.6296,1.5194,0.0,0.0,0.0,1.4313,1.5559,1.6357,1.7598,0.0,1.8659,1.8752,1.828,1.6961,1.677,1.6082,1.4534,1.4048,1.3912,1.4062,1.5188,1.6013,1.6413,1.761,1.8398,1.8623,1.8428,1.8027,1.7402,1.7383,1.7178,1.6675,1.6665,1.6514,1.6125,1.6125,1.583,1.541,1.541,1.541,1.541,1.541,1.541,1.541,1.541,1.541,1.541,1.541,1.541,1.541,1.541,1.541,1.541,0.0,0.0,0.0,0.0,0.0,0.0,0.0,-2.4247,-2.4321,-2.4478,-2.4719,-2.5324,-2.658,-2.6738,-2.7117,0.0,0.0,0.0,0.0,0.0,0.0,0.0,0.0,0.0,0.0,0.0,0.0,-2.2947,-2.3712,0.0,0.0,0.0,0.0,0.0,-1.649,-1.4415,-1.2854,-0.9377,-0.7736,0.0,0.0,-0.8011,0.0,0.0,0.0,0.0,0.0,0.0,0.0,0.0,1.4856,1.8252,2.2759,2.4478,2.4784,2.4235,2.3929,2.3276,2.1141,2.0462,1.9944,1.8395,1.7285,1.6251,1.4975,1.4206,0.0,1.2519,1.3615,1.4734,1.4877,1.6204,1.7269,0.0,1.7685,1.7611,1.661,1.6357,1.5859,0.0,1.3946,0.0,1.455,1.517,0.0,1.6515,1.7121,1.7627,1.8125,1.8008,1.7686,1.7256,1.7334,1.7217,1.6875,1.6963,1.6738,1.6211,1.6211,1.5928,1.541,1.541,1.541,1.541,1.541,1.541,1.541,1.541,1.541,1.541,1.541,1.541,1.541,1.541,1.541,1.541,0.0,0.0,0.0,0.0,0.0,0.0,0.0,-2.4375,-2.4478,-2.4495,-2.4832,-2.5747,-2.749,-2.7098,-2.7077,0.0,0.0,0.0,0.0,0.0,0.0,0.0,0.0,0.0,0.0,0.0,0.0,-2.3088,-2.2401,0.0,0.0,0.0,0.0,0.0,0.0,-1.2635,-1.0883,-0.9643,0.0,0.0,0.0,0.0,0.0,0.0,0.0,0.0,0.0,0.0,0.0,0.0,0.0,1.5878,1.9955,2.2151,2.3267,2.3437,0.0,0.0,2.0824,2.0009,1.9177,1.8269,1.7285,1.6251,1.4975,0.0,1.3455,1.2519,1.3443,1.4615,1.514,1.5151,1.5374,1.6079,0.0,1.472,1.5157,1.4134,1.3668,1.4375,0.0,0.0,1.4443,1.4964,1.5621,1.6498,1.7121,1.7246,1.686,1.7246,1.7236,1.6807,1.7178,1.7363,1.7324,1.7705,1.748,1.667,1.667,1.623,1.541,1.541,1.541,1.541,1.541,1.541,0.0,1.541,1.541,1.541,1.541,1.541,1.541,1.541,1.541,1.541,0.0,0.0,0.0,0.0,0.0,0.0,0.0,-2.4405,-2.4595,-2.4666,-2.5356,-2.6346,-2.7776,-2.8162,-2.8681,0.0,0.0,0.0,0.0,0.0,0.0,0.0,0.0,0.0,0.0,0.0,-2.3198,-2.2513,-2.1132,0.0,0.0,0.0,0.0,0.0,0.0,-1.3406,-1.2739,-1.1165,0.0,0.0,0.0,0.0,0.0,0.0,0.0,0.0,0.0,0.0,0.2367,0.0,0.0,0.0,1.5625,1.776,0.0,0.0,2.0971,2.0529,1.9987,1.9562,1.8967,1.755,1.6853,1.6113,1.4295,0.0,1.3455,1.2519,1.2907,1.3494,1.374,1.3846,1.3936,1.43,0.0,0.0,1.3885,1.3622,1.3439,1.3625,1.2534,0.0,0.0,0.0,1.5197,1.6205,1.6732,1.668,1.5977,1.6602,1.6914,1.6738,1.6894,1.6992,1.6992,1.7158,1.6934,1.6328,1.6328,1.6006,1.541,1.541,1.541,1.541,1.541,1.541,0.0,1.541,1.541,1.541,1.541,1.541,1.541,1.541,1.541,1.541,0.0,0.0,0.0,0.0,0.0,0.0,-2.4393,-2.4579,-2.4823,-2.511,-2.5869,-2.6887,-2.8151,-2.8958,-2.9762,-3.0683,0.0,0.0,0.0,0.0,0.0,0.0,0.0,0.0,0.0,0.0,-2.2737,-2.2194,-2.0656,-1.9291,0.0,0.0,-1.6025,-1.5094,0.0,0.0,0.0,0.0,0.0,0.0,0.0,0.0,0.0,0.0,0.0,0.0,0.0,0.0,0.0,0.0,0.0,0.0,0.0,0.0,0.0,0.0,1.943,1.9147,1.9304,1.911,1.8566,1.6973,1.6419,1.5661,0.0,0.0,1.259,1.1774,1.1664,1.1866,1.2267,1.2454,1.2732,0.0,0.0,1.3592,1.3046,1.3009,1.3031,1.3053,0.0,1.3271,0.0,1.5677,1.559,1.6062,1.6357,1.6211,1.5449,1.6006,1.6348,1.6348,1.6465,1.6533,1.6533,1.667,1.6514,1.6125,1.6125,1.583,1.541,1.541,1.541,1.541,1.541,1.541,0.0,1.541,1.541,1.541,1.541,1.541,1.541,1.541,1.541,1.541,0.0,0.0,0.0,0.0,0.0,0.0,0.0,-2.4955,-2.5241,-2.5903,-2.6339,-2.7208,-2.8807,-2.9242,-2.9811,-3.0819,0.0,0.0,0.0,0.0,0.0,0.0,0.0,0.0,0.0,0.0,-2.3787,-2.2405,-2.1162,-1.9888,-1.8482,-1.6708,-1.5129,-1.3707,0.0,0.0,0.0,0.0,0.0,0.0,0.0,0.0,0.0,0.0,0.0,0.0,0.0,0.0,0.0,0.0,0.0,0.0,0.0,1.1632,1.3235,0.0,1.8322,1.7724,1.8986,1.8654,1.7794,1.6853,1.593,1.4841,0.0,1.185,1.0642,1.0061,0.9645,0.9748,1.0993,1.1194,1.1763,1.3378,0.0,0.0,1.2774,1.2054,1.1984,0.0,0.0,1.3911,1.623,1.6999,1.7012,1.6133,1.6125,0.0,1.5439,1.542,1.542,1.542,1.584,1.6135,1.6135,1.6514,1.6514,1.6125,1.6125,1.583,1.541,1.541,1.541,1.541,1.541,1.541,0.0,1.541,1.541,1.541,1.541,1.541,1.541,1.541,1.541,1.541,0.0,0.0,0.0,0.0,0.0,0.0,0.0,-2.4949,-2.5436,-2.6116,-2.6941,-2.789,-2.894,-2.9765,-3.035,-3.0663,0.0,0.0,0.0,0.0,0.0,0.0,0.0,0.0,0.0,0.0,-2.3165,-2.1733,-1.9509,-1.7668,-1.6304,-1.5233,-1.4464,-1.4055,-1.4608,-1.4734,0.0,0.0,0.0,0.0,0.0,0.0,0.0,0.0,0.0,0.0,0.0,0.0,0.0,0.0,0.0,0.0,0.0,0.0,0.0,1.2973,1.4132,1.5,1.5896,1.594,1.5549,1.4584,1.4104,1.3515,1.1928,1.107,1.0431,1.0014,0.9567,0.962,1.075,1.0912,1.1478,1.3088,1.2581,0.0,0.0,0.0,0.0,1.2353,1.3278,1.4151,0.0,0.0,1.6017,1.6103,1.5781,1.5557,1.542,1.541,1.541,1.541,1.5547,1.5615,1.5615,1.5762,1.5762,1.5615,1.5615,1.5547,1.541,1.541,1.541,1.541,1.541,1.541,1.541,1.541,1.541,1.541,1.541,1.541,1.541,1.541,1.541,1.541,0.0,0.0,0.0,0.0,0.0,0.0,0.0,-2.5122,-2.5693,-2.6657,-2.7462,-2.8356,-2.9471,-3.0194,-3.0609,-3.0638,0.0,0.0,0.0,0.0,0.0,0.0,0.0,0.0,0.0,-2.4365,-2.2733,-2.1084,-1.8614,-1.6708,-1.5303,-1.4758,-1.4439,-1.4499,-1.5288,-1.5654,0.0,0.0,0.0,0.0,0.0,0.0,-0.8007,0.0,0.0,0.0,0.0,0.0,0.0,0.0,0.0,0.0,0.0,0.0,0.0,0.0,1.0692,1.1869,1.3186,1.385,1.3929,1.2935,1.2927,0.0,0.0,1.0592,1.0143,0.991,0.9486,0.9484,1.0616,1.0638,1.095,1.233,1.1611,0.0,0.0,0.0,0.0,1.3031,0.0,0.0,0.0,1.538,1.582,1.5859,1.5566,1.541,1.541,1.541,1.541,1.541,1.541,1.541,1.541,1.541,1.541,1.541,1.541,1.541,1.541,1.541,1.541,1.541,1.541,1.541,0.0,1.541,1.541,1.541,1.541,1.541,1.541,1.541,1.541,1.541,0.0,0.0,0.0,0.0,0.0,0.0,0.0,0.0,0.0,0.0,-2.7853,-2.8611,-3.023,-3.0521,-3.0619,0.0,0.0,0.0,0.0,0.0,0.0,0.0,0.0,0.0,0.0,-2.4153,-2.2357,-2.0388,-1.8166,-1.6364,-1.5071,-1.4799,-1.471,-1.487,-1.568,-1.6125,0.0,0.0,0.0,0.0,0.0,0.0,0.0,0.0,0.0,0.0,0.0,0.0,0.0,0.0,0.0,0.0,0.0,0.0,0.0,0.0,0.0,0.0,0.0,1.2046,1.2658,1.1648,1.2023,1.2311,0.0,0.0,0.0,0.9852,0.9275,0.9228,1.0587,1.025,1.0251,1.1341,1.0328,0.0,0.0,1.1657,0.0,0.0,1.5442,0.0,1.4807,1.5836,1.6305,1.5518,1.543,1.541,1.541,1.541,1.541,1.541,1.541,1.541,1.541,1.541,1.541,1.541,1.541,1.541,1.541,1.541,1.541,0.0,1.541,1.541,1.541,1.541,1.541,1.541,1.541,1.541,1.541,1.541,1.541,1.541,0.0,0.0,0.0,0.0,0.0,0.0,0.0,0.0,0.0,0.0,-2.8014,-2.8696,-3.0292,-3.0555,-3.0566,0.0,0.0,0.0,0.0,0.0,0.0,0.0,0.0,0.0,0.0,-2.2761,-2.0668,-1.8125,-1.5286,-1.3475,-1.2602,-1.2528,-1.2975,-1.3979,-1.5425,-1.6125,0.0,0.0,0.0,0.0,0.0,0.0,0.0,0.0,0.0,0.0,-0.117,0.0138,0.0,0.0,0.0,0.0,0.0,0.0,0.0,0.0,0.6286,0.6455,0.7041,0.0,0.9769,0.9509,0.9642,0.9749,0.0,0.0,0.0,0.0,0.0,0.0,0.0,0.0,0.0,1.1542,0.0,1.0808,1.2164,1.3073,0.0,1.3605,1.4243,1.4498,1.4301,1.5103,1.5713,1.5947,1.5596,1.541,1.541,1.541,1.541,1.541,1.541,1.541,1.541,1.541,1.541,1.541,1.541,1.541,1.541,1.541,1.541,1.541,1.541,1.541,1.541,1.541,1.541,1.541,1.541,1.541,1.541,1.541,1.541,1.541,0.0,0.0,0.0,0.0,0.0,0.0,0.0,0.0,0.0,0.0,0.0,0.0,0.0,0.0,0.0,0.0,0.0,0.0,0.0,0.0,0.0,0.0,0.0,0.0,-2.329,-2.115,-1.8839,-1.6282,-1.3564,-1.1867,-1.1155,-1.1933,-1.2877,-1.3936,-1.525,-1.5582,0.0,0.0,0.0,0.0,-0.9651,0.0,0.0,0.0,0.0,0.0,0.0692,0.1933,0.0,0.3159,0.3882,0.4619,0.0,0.0,0.0,0.0,0.5691,0.5817,0.5888,0.6976,0.8116,0.8029,0.8293,0.8583,0.8826,0.0,0.0,0.0,0.0,0.0,0.0,0.0,0.0,0.0,1.1327,0.0,0.0,0.0,1.3714,1.3267,1.4087,1.4458,0.0,1.5201,1.5873,1.5811,1.5547,1.541,1.541,1.541,1.541,1.541,1.541,1.541,1.541,1.541,1.541,1.541,1.541,1.541,1.541,1.541,1.541,1.541,1.541,1.541,1.541,1.541,1.541,1.541,1.541,1.541,1.5439,1.5635,1.5703,1.5742,0.0,0.0,0.0,0.0,0.0,0.0,0.0,0.0,0.0,0.0,0.0,0.0,0.0,0.0,0.0,0.0,0.0,0.0,0.0,0.0,0.0,0.0,0.0,-2.3099,-2.2152,-1.9623,-1.7113,-1.464,-1.225,-1.0684,-1.0058,-1.1558,-1.308,-1.4476,-1.5254,-1.5142,0.0,0.0,-1.1361,-1.0628,-0.8675,0.0,0.0,0.0,0.0,0.0,0.0,0.0,0.0,0.4613,0.508,0.5624,0.5624,0.0,0.0,0.0,0.0,0.0,0.5983,0.6593,0.7277,0.7186,0.7654,0.8113,0.8424,0.0,0.0,0.0,0.0,0.0,0.0,1.1874,0.0,0.0,0.0,0.0,1.3156,1.3557,1.3587,1.3253,1.441,0.0,1.4032,1.5606,1.6396,1.5576,1.5449,1.541,1.541,1.541,1.541,1.541,1.541,1.541,1.541,1.541,1.541,1.541,1.541,1.541,1.541,1.541,1.541,1.541,0.0,0.0,1.541,1.541,1.541,1.542,1.5488,1.5508,1.5566,1.6006,1.6162,1.624,0.0,0.0,0.0,0.0,0.0,0.0,0.0,0.0,0.0,0.0,0.0,0.0,0.0,0.0,0.0,0.0,0.0,0.0,0.0,0.0,0.0,0.0,-2.3973,-2.2426,-2.0912,-1.8702,-1.6092,-1.311,-0.9942,-0.8388,-0.8404,-0.8799,-1.1409,-1.5664,-1.5806,-1.5739,-1.5437,-1.2445,-1.1813,-1.2396,-0.8821,0.0,0.0,0.0,0.0,0.0,0.0,0.0,0.0,0.7428,0.6981,0.6527,0.6527,0.0,0.0,0.0,0.0,0.0,0.5956,0.6587,0.719,0.7622,0.7546,0.7789,0.9308,0.0,0.0,0.0,0.0,0.0,0.0,1.2076,1.1642,0.0,0.0,1.3112,0.0,0.0,1.3814,1.328,0.0,1.5141,1.4181,1.567,1.6514,1.6006,1.5615,1.541,1.541,1.541,1.541,1.541,1.541,1.541,1.541,1.541,1.541,1.541,1.541,1.541,1.541,1.541,1.541,1.541,0.0,1.541,1.541,1.541,1.541,1.5449,1.582,1.5957,1.6016,1.6465,1.6631,1.6738,0.0,0.0,0.0,0.0,0.0,0.0,0.0,0.0,0.0,0.0,0.0,0.0,0.0,0.0,0.0,0.0,0.0,0.0,0.0,0.0,0.0,-2.5243,-2.4249,-2.2323,-1.9434,-1.6374,-1.3014,-0.9408,-0.6976,-0.5545,-0.5239,-0.8594,-1.2325,-1.6278,-1.6062,-1.5819,-1.5351,-1.3082,-1.1998,-1.1676,0.0,0.0,0.0,0.0,0.0,0.0,0.0,0.0,0.0,0.0,0.7762,0.7307,0.685,0.0,0.0,0.0,0.0,0.0,0.6309,0.6785,0.7405,0.866,0.8332,0.8009,0.0,0.0,0.0,0.0,0.0,0.0,0.0,0.0,1.2613,1.3401,0.0,1.3873,1.4362,1.4365,1.387,0.0,0.0,1.524,1.3875,1.534,1.5998,1.5125,1.508,1.4897,1.4428,1.484,1.5078,1.5078,1.5293,1.541,1.541,1.541,1.541,1.541,1.541,1.541,1.541,1.541,1.541,1.541,0.0,1.541,1.541,1.541,1.541,1.5459,1.5889,1.6125,1.6233,1.709,1.7568,1.7852,0.0,0.0,0.0,0.0,0.0,0.0,0.0,0.0,0.0,0.0,0.0,0.0,0.0,0.0,0.0,0.0,0.0,0.0,0.0,0.0,-2.6568,-2.5243,-2.4547,-2.2249,-1.8083,-1.4194,-1.0152,-0.5919,-0.3796,-0.2981,-0.3533,-0.9086,-1.3421,-1.6414,-1.6061,-1.5661,-1.5059,-1.3192,-1.1935,-1.1051,0.0,0.0,0.0,0.0,0.0,0.0,0.0,0.0,0.0,0.0,0.0,0.0,0.0,0.0,0.0,0.587,0.5617,0.5698,0.6643,0.7078,0.772,0.9358,0.0,0.0,0.0,0.0,0.0,0.0,0.0,0.0,0.0,1.306,0.0,1.4302,1.4362,1.4182,1.3801,1.408,1.3848,1.2404,1.4312,1.5265,1.3975,1.504,1.5425,1.4436,1.4438,1.4308,1.3762,1.443,1.4834,1.4932,1.5244,1.5361,1.5264,1.5361,1.541,1.541,1.541,1.541,1.541,1.541,1.541,1.541,1.541,1.541,1.542,1.5527,1.5508,1.5478,1.6123,1.6426,1.665,1.7754,1.8359,1.8711,0.0,0.0,0.0,0.0,0.0,0.0,0.0,0.0,0.0,0.0,0.0,0.0,0.0,0.0,0.0,0.0,0.0,0.0,0.0,0.0,-2.6275,-2.5265,-2.4547,-2.1987,-1.7194,-1.3113,-0.8737,-0.4091,-0.071,-0.1246,-0.5516,-0.9752,-1.323,-1.5959,-1.547,-1.5209,-1.5013,-1.2131,-1.1428,-1.1996,-1.0082,0.0,0.0,0.0,0.0,0.0,0.0,0.0,0.0,0.0,0.0,0.0,0.0,0.0,0.6438,0.6538,0.5902,0.5413,0.6574,0.7421,0.8189,0.927,0.9449,0.0,1.0915,1.035,0.0,1.1473,0.0,0.0,0.0,1.322,1.3721,1.4062,1.3888,1.3788,1.4021,0.0,1.3506,1.3433,1.4527,1.5274,1.5156,1.5079,1.4923,1.4825,1.4119,1.3847,1.415,1.4582,1.4961,1.5352,1.5391,1.5225,1.4834,1.5215,1.541,1.541,1.541,1.541,1.541,1.541,1.541,1.541,1.541,1.541,1.5439,1.585,1.5781,1.5537,1.6797,1.7529,1.793,1.8418,1.8613,1.875,0.0,0.0,0.0,0.0,0.0,0.0,0.0,0.0,0.0,0.0,0.0,0.0,0.0,0.0,0.0,0.0,0.0,0.0,0.0,0.0,-2.578,-2.5211,-2.4547,-2.1693,-1.6363,-1.3248,-0.9453,-0.48,-0.2933,-0.3609,-0.685,-1.0706,-1.3564,-1.5506,-1.5687,-1.5437,-1.4739,-1.2921,-1.2056,-1.1959,-1.1222,-0.9919,0.0,0.0,0.0,0.0,0.0,0.0,0.0,0.0,1.0364,0.9977,0.9466,0.8425,0.7274,0.6828,0.6029,0.5621,0.7188,0.8132,0.9099,1.0571,1.1312,0.0,0.0,1.0803,1.0702,1.1441,1.1526,0.0,0.0,0.0,1.3407,1.3527,1.3601,1.3642,1.3733,1.4133,1.4214,1.3502,1.4813,1.5495,1.4682,1.4953,1.48,1.376,1.4108,1.3985,1.3143,1.4175,1.4736,1.4619,1.4883,1.4814,1.4385,1.4805,1.5029,1.5029,1.5283,1.541,1.541,1.541,1.541,1.541,1.541,1.541,1.542,1.5586,1.5723,1.5918,1.6973,1.7637,1.8086,1.8789,1.9043,1.916,0.0,0.0,0.0,0.0,0.0,0.0,0.0,0.0,0.0,0.0,0.0,0.0,0.0,0.0,0.0,0.0,0.0,0.0,-2.4635,-2.4774,-2.483,-2.4852,-2.4091,-2.1181,-1.5902,-1.3663,-1.0037,-0.489,-0.431,-0.5071,-0.7278,-1.0743,-1.3243,-1.4712,-1.4681,-1.4344,-1.3658,-1.2215,-1.1372,-1.0941,-1.0957,-1.0001,0.0,0.0,0.0,0.0,0.0,0.0,0.0,0.0,1.0364,1.0434,0.9594,0.8628,0.7737,0.6963,0.6036,0.5687,0.7488,0.8575,0.9629,1.1377,0.0,0.0,1.1941,1.1761,1.1847,1.2162,1.2199,1.2276,1.2691,0.0,0.0,0.0,1.3705,1.3765,1.3757,1.4453,1.4647,1.3882,1.4998,1.5554,1.4656,1.4874,1.4451,1.313,1.391,1.3919,1.2637,1.3985,1.4648,1.4346,1.4629,1.458,1.4087,1.457,1.4785,1.4785,1.5215,1.541,1.541,1.541,1.541,1.541,1.541,1.541,1.542,1.5557,1.5957,1.6543,1.7148,1.7715,1.8301,1.9023,1.9375,1.959,0.0,0.0,0.0,0.0,0.0,0.0,0.0,0.0,0.0,0.0,0.0,0.0,0.0,0.0,0.0,0.0,0.0,0.0,-2.3873,-2.346,-2.3451,-2.4042,-2.3044,-2.0384,-1.5891,-1.4179,-1.0236,-0.4001,-0.4065,-0.4903,-0.6591,-0.9639,-1.1955,-1.349,-1.2159,-1.1553,-1.1479,-0.9569,-0.8819,-0.884,-0.9006,-0.8385,-0.7132,0.0,0.0,0.0,0.0,0.0,0.0,0.0,0.9919,1.0434,0.9594,0.8576,0.7601,0.6923,0.5952,0.5545,0.745,0.857,0.9629,0.0,0.0,0.0,1.3328,1.341,1.3516,1.3811,1.3227,1.2706,1.2714,1.2898,0.0,1.413,1.4267,1.4267,1.4328,1.4512,1.4675,1.4675,1.5119,1.54,1.54,1.4688,1.3906,1.307,1.3386,1.345,1.3045,1.4133,1.4785,1.4785,1.4785,1.457,1.4087,1.457,1.4785,1.4785,1.5215,1.541,1.541,1.541,1.541,1.541,1.541,1.541,1.5449,1.5889,1.6582,1.7373,1.7393,1.79,1.8691,1.9131,1.9561,1.998,0.0,0.0,0.0,0.0,0.0,0.0,0.0,0.0,0.0,0.0,0.0,0.0,0.0,0.0,0.0,0.0,0.0,0.0,-2.3016,-2.2681,-2.2568,-2.2885,-2.1809,-1.986,-1.69,-1.3213,-0.9456,-0.5698,-0.7026,-0.7757,-0.7854,-1.0058,-1.1147,-1.1263,-1.0597,-1.034,-1.0195,-0.8097,-0.7745,-0.8455,-0.7946,-0.7543,-0.7062,0.0,0.0,0.0,0.0,0.0,0.0,0.0,0.0,0.0,0.9594,0.8749,0.788,0.6937,0.6125,0.5836,0.7531,0.9006,0.0,1.2181,0.0,0.0,0.0,1.4101,0.0,0.0,1.271,1.2117,1.3294,1.2531,0.0,1.3332,1.3534,1.3647,1.4024,1.4162,1.4345,1.4724,1.4868,1.4971,1.4971,1.5003,1.4688,1.3906,1.4458,1.4566,1.3897,1.443,1.4785,1.4785,1.4492,1.4268,1.4077,1.457,1.4785,1.4785,1.5215,1.541,1.541,1.541,1.541,1.541,1.541,1.541,1.5469,1.6221,1.6689,1.7012,1.791,1.8418,1.8721,1.9453,1.9805,1.998,0.0,0.0,0.0,0.0,0.0,0.0,0.0,0.0,0.0,0.0,-2.665,-2.5992,0.0,0.0,0.0,0.0,0.0,0.0,0.0,-2.1632,-2.1579,-2.1962,-2.0917,-1.8883,-1.5919,-1.2398,-0.9389,-0.6943,-0.8499,-0.9074,-0.8728,-0.9848,-0.9999,-0.9332,-0.8424,-0.8022,-0.788,-0.5924,-0.5491,-0.6127,-0.5641,-0.5451,-0.5409,0.0,0.0,0.0,0.0,0.0,0.0,0.0,0.0,0.0,0.8651,0.0,0.6979,0.6336,0.5589,0.5336,0.7034,0.8931,0.0,1.215,1.3939,1.541,1.541,0.0,0.0,0.0,1.297,1.2494,1.3317,1.256,0.0,1.3356,1.3553,1.3652,1.4002,1.4031,1.4176,1.4496,1.4521,1.46,1.4766,1.501,1.4878,1.4255,1.4932,1.505,1.4273,1.4754,1.4961,1.4795,1.4531,1.4394,1.4394,1.4658,1.4873,1.5039,1.5293,1.541,1.541,1.541,1.541,1.541,1.541,1.541,1.5469,1.6172,1.6572,1.6763,1.7773,1.8447,1.8955,1.9473,1.9883,2.0215,0.0,0.0,0.0,0.0,0.0,0.0,0.0,0.0,0.0,0.0,-2.5272,-2.4654,0.0,0.0,0.0,0.0,0.0,0.0,0.0,0.0,-2.0369,-2.0983,-1.9977,-1.756,-1.3616,-1.1704,-0.9721,-0.7654,-0.8673,-0.9041,-0.8856,-0.8843,-0.8345,-0.7432,-0.5782,-0.5061,-0.4926,-0.3205,-0.2476,-0.2547,-0.2543,-0.264,-0.2649,-0.1796,0.0,0.0,0.0,0.0,0.0,0.0,0.0,0.0,0.722,0.6305,0.5516,0.5338,0.4671,0.445,0.6211,0.8447,0.0,1.1596,1.3631,0.0,1.541,1.541,1.5061,1.3992,0.0,1.3474,1.3149,1.2941,1.3041,1.3903,1.4029,1.4029,1.4029,1.4029,1.4029,1.4029,1.4029,1.4228,1.4629,1.4697,1.461,1.4309,1.4934,1.5012,1.4323,1.4953,1.5195,1.4853,1.4805,1.4805,1.4844,1.4844,1.5039,1.541,1.541,1.541,1.541,1.541,1.541,1.541,1.541,1.541,1.5449,1.5928,1.6367,1.6787,1.7334,1.8262,1.9297,1.9375,1.9893,2.0644,0.0,0.0,0.0,0.0,0.0,0.0,0.0,0.0,0.0,0.0,0.0,0.0,0.0,0.0,0.0,0.0,0.0,0.0,0.0,0.0,-1.864,-1.8768,-1.7574,-1.5648,-1.3001,-1.1012,-0.9131,-0.7225,-0.7876,-0.7524,-0.6098,-0.5436,-0.465,-0.3801,-0.3405,-0.3274,-0.3141,-0.1335,-0.1001,-0.1467,-0.0134,-0.0403,-0.1556,-0.0711,-0.0145,0.0,0.0,0.0,0.0,0.0,0.0,0.0,0.7306,0.6482,0.5542,0.4679,0.4301,0.4591,0.6507,0.8225,0.0,0.0,1.4239,1.541,1.541,1.541,1.5323,1.5061,1.4054,1.3451,1.4258,1.3097,1.2397,1.3481,1.3643,1.3643,1.3643,1.3643,1.3643,1.3643,1.3643,1.3682,1.3769,1.4082,1.4344,1.4657,1.4809,1.5002,1.5148,1.4983,1.5029,1.5264,1.4951,1.4941,1.5273,1.5273,1.5322,1.541,1.541,1.541,1.541,1.541,1.541,1.541,1.541,1.541,1.5478,1.6269,1.6641,1.6875,1.8311,1.9043,1.9365,2.0039,2.041,2.0712,0.0,0.0,0.0,0.0,0.0,0.0,0.0,0.0,0.0,0.0,0.0,0.0,0.0,0.0,0.0,0.0,0.0,0.0,0.0,0.0,0.0,-1.8458,-1.7827,-1.6585,-1.4657,-1.244,-0.9687,-0.6355,-0.5283,-0.4234,-0.3316,-0.2888,-0.2248,-0.1395,-0.14,-0.1403,-0.1336,0.0067,0.0601,0.0667,0.1601,0.1401,0.0671,0.1207,0.1449,0.1605,0.2679,0.0,0.0,0.0,0.0,0.0,0.0,0.0,0.3102,0.3372,0.2827,0.2668,0.545,0.0,0.0,1.3145,0.0,1.5226,1.5663,1.5723,1.5664,1.5459,1.4447,1.3645,1.3854,1.3049,1.2518,1.3114,1.3203,1.3203,1.3203,1.3203,1.3203,1.3203,1.3203,1.3281,1.3486,1.3711,1.4014,1.4443,1.4668,1.4785,1.4805,1.4795,1.4893,1.5107,1.4902,1.498,1.541,1.541,1.541,1.541,1.541,1.541,1.541,1.541,1.541,1.541,1.541,1.541,1.5449,1.5908,1.6348,1.6816,1.8161,1.9241,2.0114,2.1001,2.1586,2.2048,0.0,0.0,0.0,0.0,0.0,0.0,0.0,0.0,0.0,0.0,0.0,0.0,0.0,0.0,0.0,0.0,0.0,0.0,0.0,0.0,0.0,-1.8727,-1.8659,-1.8018,-1.6727,-1.3982,-1.0148,-0.5287,-0.2015,0.0065,0.0,0.0195,0.0131,0.066,0.0664,0.06,0.0534,0.1405,0.2209,0.2945,0.3276,0.3209,0.2963,0.327,0.3192,0.2924,0.3071,0.3202,0.3355,0.3188,0.0,0.0,0.0,0.0,0.0308,0.1558,0.0945,0.0573,0.3944,0.0,0.9426,1.3609,1.4791,0.0,1.5953,1.6125,1.5978,1.541,1.4678,1.3926,1.3223,1.2978,1.2881,1.2881,1.2881,1.2881,1.2881,1.2881,1.2881,1.2881,1.2881,1.3018,1.3359,1.3398,1.3574,1.3994,1.4365,1.4443,1.4097,1.4473,1.4707,1.4785,1.4785,1.498,1.541,1.541,1.541,1.541,1.541,1.5371,1.5303,1.5381,1.541,1.541,1.541,1.541,1.542,1.5498,1.5996,1.6811,1.7802,1.927,2.0907,2.1801,2.2741,2.3514,0.0,0.0,0.0,0.0,0.0,0.0,0.0,0.0,0.0,0.0,-2.4476,-2.4063,0.0,0.0,0.0,0.0,0.0,0.0,0.0,0.0,0.0,-1.8185,-1.7818,-1.7434,-1.7117,-1.2997,-0.8702,-0.4359,0.0686,0.0,0.0,0.0,0.0,0.3451,0.3454,0.3064,0.2409,0.3278,0.368,0.3946,0.5529,0.52,0.3904,0.481,0.4193,0.2924,0.3071,0.3671,0.4361,0.3434,0.3687,0.0,0.0,0.0,0.0,-0.0767,-0.0516,0.0423,0.0,0.0,1.1376,0.0,1.4545,1.5414,0.0,0.0,1.59,0.0,1.4473,1.4048,1.3984,1.3369,1.2881,1.2881,1.2881,1.2881,1.2881,1.2881,1.2881,1.2881,1.2881,1.29,1.2959,1.2969,1.3135,1.3555,1.3643,1.3809,1.4058,1.4136,1.4394,1.4775,1.4785,1.498,1.541,1.541,1.541,1.541,1.541,1.5225,1.4883,1.5244,1.541,1.541,1.541,1.541,1.5439,1.582,1.6279,1.687,1.8493,1.9828,2.0938,2.2176,2.2972,2.3599,0.0,0.0,0.0,0.0,0.0,0.0,0.0,0.0,0.0,0.0,0.0,-2.3795,0.0,0.0,0.0,0.0,0.0,0.0,0.0,0.0,0.0,-1.7626,-1.8045,-1.79,-1.718,-1.3442,-0.8824,-0.3332,0.0,0.0,0.0,0.9724,0.8308,0.0,0.0,0.0,0.4201,0.4535,0.5001,0.5599,0.6911,0.6976,0.6288,0.6982,0.6762,0.6018,0.5118,0.5132,0.5206,0.3011,0.256,0.2647,0.0606,0.0,0.0,0.0,-0.2315,0.0,0.1807,0.5696,0.94,0.0,1.3123,1.4113,1.535,0.0,1.5949,1.5264,1.46,1.4009,1.3828,1.3291,1.2881,1.2881,1.2881,1.2881,1.2881,1.2881,1.2881,1.2881,1.2881,1.2881,1.2881,1.2881,1.2959,1.3145,1.3379,1.3486,1.3437,1.3877,1.4165,1.4414,1.4658,1.498,1.541,1.541,1.541,1.541,1.5176,1.4961,1.4795,1.498,1.5059,1.5078,1.5312,1.541,1.543,1.5615,1.6397,1.7554,1.8803,2.052,2.2434,2.3482,2.4429,2.5205,0.0,0.0,0.0,0.0,0.0,0.0,0.0,0.0,0.0,0.0,0.0,0.0,0.0,0.0,0.0,0.0,0.0,0.0,0.0,0.0,0.0,-1.7014,-1.8003,-1.8085,-1.7147,-1.3782,-0.8996,-0.274,0.0,0.0,1.1962,1.1872,1.1326,0.0,0.7344,0.5982,0.0,0.0,0.6183,0.7111,0.7962,0.8221,0.8067,0.0,0.0,0.8388,0.724,0.0,0.0,0.0,0.2178,0.1557,-0.0905,-0.2242,0.0,0.0,0.0,0.0,0.0,0.0,0.6539,0.9775,1.1276,1.2506,0.0,0.0,1.5718,0.0,1.4658,1.4004,1.3584,1.3164,1.2881,1.2881,1.2881,1.2881,1.2881,1.2881,1.2881,1.2881,1.2881,1.2881,1.2881,1.2881,1.2881,1.2881,1.3174,1.3213,1.29,1.3574,1.397,1.4077,1.4561,1.498,1.541,1.541,1.541,1.541,1.498,1.4727,1.4629,1.4736,1.4727,1.4648,1.5186,1.541,1.542,1.5751,1.6716,1.8118,1.9317,2.1327,2.358,2.4471,2.5523,2.6533,0.0,0.0,0.0,0.0,0.0,0.0,0.0,0.0,0.0,0.0,0.0,0.0,0.0,-2.1661,-2.0436,-1.8979,-1.8377,-1.737,-1.556,-1.5071,-1.5283,-1.6212,-1.7041,0.0,-1.72,-1.3293,-0.8504,0.0,0.0,0.0,1.2379,1.1984,1.1951,1.2121,0.915,0.7827,0.7827,0.0,0.0,0.0,0.0,0.0,0.0,0.0,0.0,0.0,0.0,0.0,0.0,0.0,0.0,0.0,0.0,-0.2764,-0.3125,0.0,0.0,0.0,0.0,0.1463,0.0,0.6871,0.898,0.0,0.0,0.0,1.4958,1.4867,1.4453,1.4004,1.3584,1.3164,1.2881,1.2881,1.2881,1.2881,1.2881,1.2881,1.2881,1.2881,1.2881,1.2881,1.2881,1.2881,1.2881,1.2881,1.29,1.29,1.2881,1.3301,1.3721,1.4068,1.4561,1.498,1.541,1.541,1.541,1.541,1.498,1.457,1.4126,1.46,1.4561,1.4165,1.5049,1.541,1.5498,1.6767,1.7592,1.8211,2.0306,2.2083,2.358,2.4471,2.5523,2.6533,0.0,0.0,0.0,0.0,0.0,0.0,0.0,0.0,0.0,0.0,0.0,0.0,0.0,-2.1364,-2.0119,-1.7956,-1.6223,-1.5014,-1.4325,-1.416,-1.4242,-1.4564,-1.6329,-1.6827,-1.5863,-1.3661,-0.9566,0.0,0.0,0.6199,1.1055,1.1321,1.1691,1.1944,0.9804,0.8549,0.7962,0.7697,0.0,0.0,0.0,0.0,0.0,0.0,0.0,0.0,0.0,0.0,0.0,0.0,0.0,0.0,0.0,0.0,0.0,0.0,0.0,0.0,0.0,0.0,0.0,0.3939,0.6751,0.9415,1.1386,1.3206,1.4588,1.5071,1.4629,1.4038,1.3936,1.335,1.2881,1.2881,1.2881,1.3164,1.3906,1.3561,1.3571,1.4276,1.3971,1.3682,1.3682,1.3682,1.3682,1.3682,1.3682,1.3682,1.3682,1.4092,1.4394,1.4551,1.4961,1.5127,1.501,1.501,1.4873,1.459,1.417,1.3887,1.375,1.417,1.4277,1.4126,1.5039,1.541,1.5498,1.6857,1.797,1.8999,2.0581,2.2504,2.4341,2.4678,2.5523,2.6533,0.0,0.0,0.0,0.0,0.0,0.0,0.0,0.0,0.0,0.0,0.0,0.0,0.0,0.0,-1.9581,-1.7124,-1.4756,-1.327,-1.306,-1.283,-1.283,-1.3022,-1.4893,-1.559,-1.4882,-1.3709,-1.0174,0.0,0.0,0.0,0.0,1.0133,1.0611,1.0648,0.9308,0.8593,0.0,0.0,0.0,0.7242,0.0,0.0,0.935,0.0,0.0,0.0,0.0,0.0,0.0,0.0,0.0,0.0,0.0,0.0,0.0,0.0,0.0,0.0,-0.3989,0.0,0.0,0.0,0.0,0.6902,0.9496,0.0,1.3681,1.4744,1.4648,1.4307,1.4107,1.3682,1.3303,1.3192,1.3017,1.335,1.4693,1.4083,1.4012,1.545,1.4694,1.4184,1.443,1.4228,1.4077,1.4077,1.4077,0.0,1.4077,1.4551,1.4785,1.4785,1.4912,1.4853,1.457,1.457,1.4424,1.4077,1.3711,1.3506,1.3525,1.3945,1.4053,1.3922,1.498,1.5526,1.5846,1.7207,1.85,1.9831,2.1068,2.2788,2.4569,2.4757,2.5385,2.6201,0.0,0.0,0.0,0.0,0.0,0.0,0.0,0.0,0.0,-2.3988,0.0,0.0,0.0,0.0,0.0,-1.6494,-1.4139,-1.2415,-1.1702,-1.1099,-1.1048,-1.1661,-1.2805,-1.3721,-1.4411,-1.3489,-1.0235,0.0,0.0,0.0,0.0,0.0,0.8782,0.8487,0.7774,0.8099,0.9116,0.0,0.7957,0.8027,0.0,0.9268,0.9274,0.0,0.0,0.0,1.0206,0.9466,0.0,0.6764,0.0,0.0,0.0,0.0,0.0,0.0,0.0,0.0,0.0,0.0,0.0,0.0,0.0,0.0,0.7575,0.0,1.2122,1.3708,1.4457,1.4612,1.4184,1.4087,1.4056,1.3872,1.3375,1.3585,1.5319,1.4424,1.4297,1.6227,1.5102,1.4417,1.5226,1.4566,1.417,1.417,1.417,1.4116,1.4116,1.4561,1.4785,1.4785,1.4355,1.4077,1.4058,1.4058,1.4058,1.4038,1.3682,1.3496,1.3525,1.3945,1.3863,1.3613,1.4863,1.5864,1.6637,1.7966,1.9264,2.0541,2.1795,2.3,2.4067,2.4594,2.5134,2.5674,0.0,0.0,0.0,0.0,0.0,0.0,0.0,0.0,-2.3775,0.0,0.0,0.0,-1.9099,-1.7183,-1.556,-1.4473,-1.2503,-1.1057,-1.0348,-1.0159,-1.0356,-1.0998,-1.2664,-1.4013,-1.4984,-1.428,-1.2075,0.0,0.0,0.0,0.0,0.0,0.0,0.0,0.6139,0.5957,0.6301,0.6647,0.0,0.6207,0.7051,0.7767,0.0,0.0,0.0,0.0,0.0,1.0588,0.8524,0.0,0.486,0.2514,0.0,0.0,0.0,0.0,0.0,0.0,-0.5624,0.0,0.0,0.0,0.0,0.0,0.5424,0.8206,1.0798,1.288,1.3794,1.4108,1.382,1.3955,1.4265,1.4686,1.4624,1.5025,1.6383,1.5827,1.5935,1.7862,1.625,1.5548,1.6787,1.5761,1.5276,0.0,1.5332,1.5059,1.5059,1.4883,1.4785,1.4785,1.4355,1.3984,1.3682,1.3682,1.3525,1.3232,1.3105,1.3213,1.3525,1.3945,1.4238,1.4527,1.5685,1.6585,1.7346,1.8182,1.9264,2.0541,2.1795,2.3,2.4017,2.4167,2.4808,2.5624,0.0,0.0,0.0,0.0,0.0,0.0,0.0,0.0,-2.3092,0.0,0.0,0.0,-1.7502,-1.5245,-1.3742,-1.3314,-1.176,-1.0517,-0.9865,-0.9562,-0.9814,-1.0762,-1.2022,-1.3501,-1.5163,-1.5038,-1.3638,0.0,0.0,0.0,0.0,0.0,0.0,0.0,0.0,0.0,0.0,0.0,0.0,0.0,0.6689,0.0,0.0,0.9615,1.0238,0.0,0.0,0.0,0.7861,0.5657,0.3086,0.0,0.0,0.0,0.0,0.0,0.0,0.0,0.0,0.0,0.0,0.0,0.0,0.0,0.3641,0.6429,0.9023,1.1684,1.2937,1.3545,1.3388,1.3796,1.4316,1.4949,1.5573,1.6342,1.7231,1.6523,1.6688,1.8919,1.7501,1.68,1.795,1.6743,1.6036,1.6492,1.5806,1.541,1.541,1.4844,1.4512,1.4512,1.3926,1.3496,1.3252,1.3242,1.3125,1.2881,1.2881,1.3105,1.3525,1.3945,1.4268,1.4541,1.5592,1.6536,1.7375,1.7924,1.9169,2.0929,2.1661,2.2648,2.3665,2.3916,2.4393,2.4996,0.0,0.0,0.0,0.0,0.0,0.0,0.0,0.0,0.0,0.0,-1.9209,-1.7633,-1.5345,-1.369,-1.2745,-1.258,-1.1499,-1.0466,-0.971,-0.9106,0.0,-1.0762,-1.1179,-1.2613,-1.5192,-1.5521,-1.4805,0.0,0.0,0.0,0.0,0.0,0.0,0.0,0.0,0.0,0.0,0.0,0.0,0.5118,0.709,0.8259,0.0,0.0,1.0251,1.1321,0.9019,0.772,0.651,0.3499,0.0141,0.0,0.0,0.0,0.0,0.0,-0.6137,0.0,0.0,0.0,0.0,0.0,-0.3336,0.0,0.2025,0.4532,0.6958,1.0,1.173,1.2744,1.2704,1.3485,1.4219,1.4683,1.5965,1.7179,1.7785,1.6861,1.7004,1.9344,1.8468,1.791,1.862,1.7512,1.6705,1.6606,1.5864,1.541,1.541,1.4648,1.4209,1.4209,1.3389,1.2949,1.2949,1.29,1.29,1.2949,1.29,1.3154,1.3662,1.3984,1.4189,1.4424,1.5239,1.6242,1.724,1.7671,1.9254,2.1393,2.1393,2.2071,2.3113,2.3615,2.3929,2.423,0.0,0.0,0.0,0.0,0.0,0.0,0.0,0.0,0.0,-1.9713,-1.6691,-1.4125,-1.2676,-1.2199,-1.1774,-1.1258,-1.0965,-1.0269,-0.9061,-0.8857,0.0,-1.0762,-1.0887,-1.2337,-1.5366,-1.479,0.0,0.0,0.0,0.0,0.0,0.0,0.0,0.0,0.0,0.0,0.0,0.0,0.0,0.4232,0.6197,0.0,0.7358,0.8742,0.8756,0.8,0.8255,0.6979,0.4474,0.0275,-0.2747,-0.5102,0.0,0.0,0.0,-0.685,0.0,0.0,0.0,0.0,0.0,0.0,0.0,0.0,0.0131,0.2261,0.4442,0.6948,0.9496,1.1212,1.1031,1.2243,1.3308,1.3668,1.4604,1.5962,1.7592,1.7564,1.7696,1.8487,1.8189,1.8112,1.8637,1.8338,1.7912,1.7446,1.613,1.541,1.541,1.4932,1.4658,1.4658,1.3828,1.3389,1.3389,1.3047,1.3047,1.3379,1.3037,1.3467,1.4531,1.4258,1.4829,1.6063,1.6837,1.762,1.8413,1.9101,1.9977,2.0882,2.0882,2.1493,2.2485,2.2598,2.3502,2.4695,0.0,0.0,0.0,0.0,0.0,0.0,0.0,0.0,0.0,0.0,-1.4958,-1.2329,0.0,0.0,-1.1015,-1.0364,-1.0312,-0.9865,-0.8857,0.0,0.0,0.0,0.0,0.0,0.0,0.0,0.0,0.0,0.0,0.0,0.0,0.0,0.0,0.0,0.0,0.0,0.0,0.0,0.2339,0.4046,0.5841,0.0,0.7414,0.828,0.8138,0.7281,0.6955,0.4336,0.0477,-0.3147,-0.569,0.0,0.0,-0.8597,-0.8447,0.0,-0.7046,-0.6322,0.0,0.0,0.0,-0.348,0.0,0.0,0.0,0.1136,0.2887,0.5446,0.7485,0.8964,0.9204,1.0786,1.2151,1.2445,1.4128,1.5845,1.7031,1.7569,1.8002,1.853,1.848,1.8633,1.9014,1.8908,1.8425,1.7584,1.6206,1.541,1.541,1.501,1.4785,1.4785,1.416,1.3721,1.3506,1.3301,1.3193,1.3193,1.357,1.3972,1.4463,1.519,1.5659,1.6036,1.7135,1.7797,1.8244,1.9281,2.0122,2.0743,2.0966,2.1581,2.2347,2.2623,2.3439,2.4456,-2.4444,0.0,0.0,0.0,0.0,0.0,0.0,0.0,0.0,0.0,0.0,0.0,0.0,0.0,0.0,0.0,0.0,-0.9591,0.0,0.0,0.0,0.0,0.0,-1.3687,0.0,0.0,0.0,0.0,0.0,0.0,0.0,0.0,0.0,0.0,0.0,0.0,0.0,0.0,0.0,0.3372,0.0,0.654,0.7469,0.7687,0.744,0.677,0.4622,0.0908,-0.3445,-0.6225,-0.8112,-0.9424,-0.9675,-0.9675,0.0,0.0,0.0,0.0,0.0,0.0,0.0,0.0,0.0,-0.2062,0.0,0.0,0.0,0.4257,0.0,0.0,0.0,0.0,0.0,0.0,0.0,0.0,0.0,1.7071,0.0,1.8531,1.884,1.9037,1.908,1.8924,1.8544,1.7886,1.6502,1.5645,1.5594,1.5223,1.499,1.4912,1.4482,1.4102,1.376,1.3672,1.3496,1.3302,1.4273,1.4574,1.4385,1.6031,1.6417,1.5911,1.7079,1.7731,1.8093,1.919,1.9993,2.0564,2.123,2.1832,2.2372,2.2811,2.3477,2.4217,-2.4266,-2.4209,0.0,0.0,0.0,0.0,0.0,0.0,0.0,0.0,0.0,0.0,0.0,0.0,0.0,0.0,0.0,0.0,-1.0286,0.0,0.0,0.0,0.0,0.0,-1.5437,0.0,0.0,0.0,0.0,0.0,0.0,0.0,0.0,0.0,-0.7802,0.0,0.0,0.0,-0.062,0.0,0.3136,0.4755,0.0,0.6527,0.583,0.3895,0.0062,-0.2694,-0.4914,0.0,-0.9458,-1.01,0.0,-1.1252,-1.0713,-0.883,0.0,0.0,0.0,0.0,0.0,0.0,-0.1448,0.0,-0.1199,0.0,0.0667,0.2606,0.0,0.0,0.0,0.0,0.0,0.0,0.0,0.0,1.5184,1.6131,1.6917,1.753,1.8585,1.8923,1.8036,1.7943,1.8316,1.928,1.7627,1.6475,1.6363,1.6137,1.5742,1.5352,1.4932,1.4687,1.4639,1.4258,1.4228,1.4561,1.4976,1.5147,1.5254,1.5784,1.6515,1.7357,1.7523,1.8328,1.9579,1.9706,1.9847,2.0012,2.1079,2.1832,2.2322,2.2385,2.3389,2.4745,-2.4209,-2.419,0.0,0.0,0.0,0.0,0.0,0.0,0.0,0.0,0.0,0.0,0.0,0.0,0.0,0.0,0.0,-0.947,0.0,0.0,0.0,0.0,0.0,0.0,0.0,0.0,0.0,0.0,-1.7193,0.0,0.0,0.0,0.0,0.0,-1.0079,0.0,-0.5701,0.0,-0.2221,0.0,0.0,0.0,0.0,0.5445,0.4408,0.1924,-0.2246,-0.4707,-0.6452,0.0,-1.086,0.0,0.0,0.0,0.0,0.0,0.0,0.0,0.0,0.0,0.0,0.0,0.0,0.0,0.0067,0.0,0.1271,0.0,0.0,0.0,0.0,0.0,0.0,0.0,1.1706,0.0,0.0,0.0,1.6867,0.0,0.0,0.0,1.8635,1.8166,1.8118,1.8983,1.7606,1.6687,1.6618,1.6533,1.625,1.5801,1.5615,1.5293,1.4785,1.46,1.4473,1.4404,1.5669,1.6063,1.5741,1.7424,1.7959,1.7633,1.8489,1.8992,1.9226,1.9992,2.03,2.0413,2.1531,2.1907,2.1907,2.2548,2.3653,2.482,-2.4209,0.0,0.0,0.0,0.0,0.0,0.0,0.0,0.0,0.0,0.0,0.0,-0.786,-0.8156,0.0,0.0,-0.8374,-0.9194,0.0,0.0,-1.2157,0.0,0.0,0.0,0.0,0.0,0.0,0.0,0.0,0.0,0.0,0.0,0.0,0.0,0.0,-0.9726,-0.7448,0.0,-0.3886,-0.1077,0.0337,0.2063,0.3916,0.4281,0.3038,0.0481,-0.3306,-0.5644,-0.7271,-0.9869,-1.1516,0.0,-1.2126,0.0,0.0,0.0,0.0,0.0,-0.4314,0.0,0.0,0.0,0.0,0.0,0.0,0.0,0.0,0.0,0.0,0.0,0.0,0.0,0.0,0.0,0.0,1.3603,0.0,1.573,0.0,0.0,0.0,0.0,0.0,1.8516,1.8133,1.8828,1.7738,1.6988,1.6812,1.6904,1.665,1.6145,1.6125,1.5703,1.4961,1.4951,1.4907,1.4755,1.6407,1.6893,1.6461,1.8536,1.8927,1.7961,1.9044,1.9319,1.9069,2.0039,2.0426,2.0539,2.1644,2.1845,2.1619,2.2723,2.3853,2.482,-2.4247,-2.3937,0.0,0.0,0.0,0.0,0.0,0.0,0.0,0.0,0.0,0.0,0.0,0.0,0.0,0.0,0.0,-0.9542,-1.1325,0.0,-1.2987,0.0,0.0,-1.694,0.0,0.0,0.0,0.0,0.0,0.0,0.0,0.0,0.0,0.0,-1.3614,-1.2094,-1.0549,-0.7875,-0.5784,-0.4005,-0.1248,0.1391,0.3572,0.0,0.1742,-0.0173,-0.3284,0.0,0.0,-0.9858,-1.1137,0.0,0.0,0.0,0.0,0.0,0.0,0.0,0.0,0.0,0.0,-0.231,0.0,0.0,0.0,0.0,0.2702,0.0,0.0,0.0,0.0,0.0,0.0,0.0,0.0,0.0,0.0,0.0,0.0,0.0,0.0,0.0,0.0,1.8751,1.8431,1.9552,1.8623,1.774,1.7217,1.7339,1.6963,1.6154,1.6125,1.585,1.54,1.5391,1.5718,1.6451,1.7224,1.7556,1.7556,1.8382,1.8715,1.8661,1.8715,1.915,1.9747,1.9823,1.9823,1.9949,2.1079,2.1506,2.1619,2.2723,2.3853,2.482,0.0,0.0,0.0,0.0,0.0,0.0,0.0,-1.6291,0.0,0.0,0.0,0.0,0.0,-0.8156,-0.8215,0.0,0.0,-1.0061,-1.1394,-1.2761,0.0,0.0,0.0,-1.7804,0.0,0.0,0.0,0.0,0.0,0.0,0.0,0.0,0.0,0.0,0.0,-1.2903,0.0,0.0,0.0,0.0,0.0,0.2183,0.4302,0.0,0.1599,-0.0336,-0.3304,-0.5954,0.0,-1.0179,-1.1787,-1.3076,-1.3402,-1.3105,-1.2417,-1.1106,-1.0066,0.0,0.0,0.0,-0.4288,-0.2604,0.0,0.0,0.0,0.0,0.0,0.0,0.0,0.0,0.0,0.0,0.0,0.0,0.0,0.0,0.0,0.0,0.0,0.0,0.0,0.0,0.0,0.0,1.7784,1.8124,1.7551,1.7229,1.7326,1.7347,1.7119,1.6523,1.6504,1.6152,1.542,1.541,1.5748,1.6482,1.7257,1.7841,1.8328,1.9097,1.9423,1.9423,1.9423,1.9579,1.9798,1.9798,2.0024,2.0451,2.1192,2.1707,2.2121,2.2862,2.3853,2.4921,-2.458,0.0,0.0,0.0,0.0,0.0,0.0,0.0,0.0,0.0,-1.1006,0.0,-0.8234,0.0,-0.8321,0.0,-0.9138,-1.041,-1.1791,-1.3317,0.0,-1.692,-1.7866,0.0,0.0,0.0,0.0,0.0,0.0,-2.139,0.0,0.0,0.0,0.0,0.0,-1.3822,-1.2396,0.0,-0.8801,0.0,0.0,0.2262,0.0,0.0,0.1352,-0.0386,0.0,-0.6105,-0.858,-1.023,-1.1805,-1.3188,-1.3674,-1.3521,-1.2956,-1.2067,-1.1122,-0.9913,-0.7612,-0.6061,0.0,-0.2991,-0.0769,0.0,0.2415,0.0,0.4752,0.0,0.0,0.0,0.0,0.0,0.0,0.0,0.0,0.0,0.0,1.6418,0.0,0.0,0.0,0.0,0.0,1.7852,1.7607,1.7607,1.7344,1.7246,0.0,1.7529,1.7412,1.6973,1.6816,1.6387,1.5654,1.5488,1.5921,1.6922,1.7357,1.8112,1.9097,1.9579,1.9798,1.9798,1.9798,1.9798,1.9823,2.0024,2.0213,2.0451,2.1405,2.1882,2.2108,2.2862,2.3853,2.4971,0.0,0.0,0.0,0.0,-2.278,0.0,0.0,0.0,-1.5256,0.0,-1.0806,-0.9275,-0.8937,-0.8256,-0.815,-0.8857,-0.9562,-1.0697,-1.2534,-1.3727,0.0,0.0,-1.956,-2.0455,-2.1744,0.0,0.0,0.0,0.0,0.0,0.0,0.0,0.0,0.0,-1.6105,0.0,-1.3761,-1.0957,-0.8876,-0.7005,-0.1339,0.155,0.2429,0.1796,0.0821,-0.0496,-0.34,-0.5855,-0.8022,-1.0077,-1.1316,-1.211,-1.3426,-1.3815,-1.3815,-1.3815,-1.286,-1.1495,-1.0089,-0.7161,-0.4368,-0.3561,-0.0407,0.0,0.0,0.0,0.5831,0.0,0.0,0.0,0.0,0.0,0.0,0.0,0.0,0.0,0.0,0.0,1.6885,0.0,1.7705,0.0,0.0,1.8223,1.7978,1.7978,1.7978,1.7803,0.0,1.7783,1.7822,1.7393,1.6982,1.6553,1.6103,1.5743,1.6249,1.7667,1.7667,1.8417,1.9798,1.9798,1.9798,1.9798,1.9798,1.9798,1.9849,2.0401,2.0326,2.0049,2.1644,2.1983,2.1707,2.2811,2.3904,2.4971,-2.6519,-2.7266,-2.7994,0.0,-2.5485,-2.362,0.0,0.0,0.0,0.0,-1.3322,-1.1486,-1.0423,-1.01,-1.01,-1.0261,-1.1349,0.0,0.0,0.0,0.0,-1.8857,-2.0738,-2.2204,-2.304,-2.304,0.0,-2.3719,0.0,0.0,-2.2175,0.0,0.0,0.0,0.0,0.0,-1.3961,-1.2775,-0.9158,-0.4069,-0.1916,0.0405,0.2361,0.0,-0.0352,-0.1977,-0.4334,-0.6924,-0.932,-1.0434,-1.1895,-1.3426,-1.4236,-1.4468,-1.4365,-1.3867,-1.349,-1.2764,-1.0391,-0.8287,-0.6294,-0.4542,-0.125,0.1946,0.0,0.0,0.0,0.0,0.0,0.0,0.0,0.0,0.0,0.0,0.0,0.0,0.0,0.0,0.0,1.6885,0.0,0.0,1.8096,1.7793,1.7539,1.7539,1.7539,1.75,1.7393,0.0,1.7822,1.7393,1.7275,1.7002,1.6562,1.7104,1.7626,1.8125,1.8756,1.9324,1.9798,1.9798,1.9798,1.9798,1.9798,1.9798,1.9811,1.9962,2.0426,2.1104,2.1531,2.2121,2.2849,2.3979,2.4569,2.4971,-2.8288,0.0,0.0,-2.9875,0.0,0.0,-2.5041,-2.2112,0.0,-1.7276,-1.4789,0.0,-1.2054,-1.1519,-1.1332,-1.1603,-1.259,0.0,-1.4564,0.0,0.0,-1.9931,-2.1758,-2.3092,-2.3733,-2.4066,0.0,-2.4752,0.0,0.0,-2.301,0.0,0.0,0.0,0.0,-1.6899,-1.4694,-1.2631,-0.8754,-0.4072,-0.2812,-0.1011,0.0,-0.0369,-0.1767,-0.3345,-0.5612,-0.8032,-1.0261,-1.1323,-1.2822,-1.4283,-1.4915,-1.5264,-1.5297,-1.4733,-1.4345,-1.3512,-1.0898,-0.841,-0.6168,-0.4389,-0.1062,0.2073,0.3438,0.5009,0.6502,0.0,0.7991,0.808,0.0,0.0,0.0,0.0,0.0,0.0,0.0,0.0,0.0,0.0,1.6894,0.0,1.7949,1.7461,1.7256,1.7627,1.7656,1.7656,0.0,0.0,1.8086,1.7666,1.7295,1.7254,1.7557,1.7646,1.8126,1.8895,1.9356,1.9685,1.9798,1.9798,1.9798,1.9798,1.9798,1.9798,1.9849,2.0338,2.0778,2.1179,2.1656,2.2535,2.3615,2.4494,2.482,2.4971,-3.0082,0.0,0.0,0.0,0.0,0.0,0.0,-2.2994,0.0,-1.8497,0.0,-1.3928,-1.3758,-1.2763,-1.2329,-1.2914,0.0,-1.4662,-1.613,-1.7493,-1.9197,-2.1367,-2.2639,-2.3636,-2.4324,-2.4992,-2.5259,0.0,0.0,0.0,0.0,0.0,0.0,0.0,0.0,0.0,0.0,-1.1612,-0.8308,-0.5372,-0.3873,-0.2476,-0.1392,-0.2217,-0.3318,-0.4703,-0.7047,-0.913,-1.1047,-1.2347,-1.3643,-1.4789,-1.541,-1.5971,-1.6305,-1.584,-1.5271,-1.4213,-1.1634,-0.8339,-0.5259,-0.3684,-0.0442,0.2581,0.3579,0.5318,0.6981,0.797,0.8689,0.9196,0.0,0.0,0.0,0.0,0.0,0.0,0.0,0.0,0.0,0.0,0.0,0.0,1.7715,1.7236,1.7207,1.7949,1.8115,0.0,0.0,0.0,1.8506,1.8027,1.7295,1.7382,1.8498,1.8076,1.8364,1.9506,1.9742,1.9812,1.9798,1.9798,1.9798,1.9798,1.9798,1.9849,1.9987,2.0978,2.1179,2.0991,2.202,2.3075,2.4067,2.4619,2.4908,2.5184,0.0,0.0,0.0,0.0,0.0,-2.9157,-2.6613,-2.3585,-2.1119,-1.9842,-1.7472,-1.5736,-1.5209,-1.4584,-1.4204,-1.4343,-1.5318,0.0,0.0,0.0,0.0,-2.1594,-2.3496,-2.4857,-2.5655,-2.5786,-2.5652,0.0,0.0,0.0,0.0,0.0,0.0,0.0,0.0,0.0,-1.4128,-1.2264,0.0,-0.5306,-0.5145,-0.3906,-0.241,-0.3732,-0.4691,-0.5634,-0.8371,-1.0277,-1.1644,-1.2512,-1.3643,-1.4789,-1.541,-1.5971,-1.6391,-1.6305,-1.6151,-1.5501,-1.2899,-0.9669,-0.6431,-0.3908,-0.0055,0.3516,0.5178,0.6553,0.7852,0.9144,0.9293,0.9256,0.9559,0.0,0.0,0.0,0.0,0.0,0.0,0.0,0.0,0.0,0.0,1.5928,0.0,0.0,1.7852,1.7998,1.8662,0.0,0.0,0.0,1.8818,0.0,1.7861,0.0,0.0,0.0,1.9722,1.9025,2.0451,2.0682,1.9798,1.9798,1.9798,1.9798,1.9798,2.0075,2.058,2.0781,2.1292,2.2083,2.2736,2.3401,2.4067,2.4619,2.5398,2.6264,0.0,0.0,0.0,0.0,0.0,0.0,0.0,-2.4023,-2.1775,-2.0525,-1.8526,-1.7231,-1.7273,-1.6516,-1.6139,-1.6451,-1.6957,-1.7477,-1.8048,-1.9669,-2.097,-2.1888,-2.3606,-2.4832,-2.5473,-2.5847,-2.5914,-2.5615,0.0,0.0,0.0,0.0,0.0,0.0,0.0,-1.8378,0.0,0.0,0.0,-0.7265,-0.6461,-0.5406,-0.4409,-0.5132,-0.6129,-0.7376,-0.9099,-1.1031,-1.2821,-1.3527,-1.4619,-1.5732,-1.6275,-1.6857,-1.7259,-1.7259,-1.6847,-1.5868,-1.3623,-0.9984,-0.629,-0.3899,0.0,0.3715,0.5397,0.6742,0.8009,0.9,0.9118,0.9152,0.9599,0.9806,0.0,0.0,0.0,0.0,0.0,0.0,1.5498,0.0,0.0,0.0,0.0,0.0,0.0,0.0,0.0,0.0,0.0,0.0,1.8896,0.0,0.0,0.0,1.8654,0.0,1.9765,1.9574,2.0599,2.0614,1.9798,1.9798,1.9798,1.9798,1.9798,2.0125,2.0756,2.128,2.1995,2.2799,2.3364,2.3929,2.4494,2.5021,2.5937,2.6917,0.0,-3.4205,0.0,0.0,-3.014,0.0,-2.633,-2.4208,-2.2377,-2.1143,-1.9511,-1.8645,-1.9027,-1.8166,-1.7746,-1.8196,-1.8352,-1.8821,-1.9758,-2.0575,-2.1434,-2.2411,-2.3789,-2.4787,-2.523,-2.5855,-2.6064,0.0,0.0,0.0,0.0,0.0,0.0,0.0,0.0,0.0,0.0,0.0,-1.1836,-0.9307,-0.7757,-0.6773,-0.6284,-0.6534,-0.7566,-0.9016,-1.003,-1.1941,-1.4174,-1.4846,-1.5776,-1.6752,-1.7146,-1.7747,-1.8263,-1.8263,-1.741,-1.6033,-1.4003,-0.997,-0.5763,-0.3243,0.0599,0.4136,0.5612,0.6988,0.815,0.885,0.9008,0.9119,0.9549,0.9836,0.0,0.0,0.0,0.0,0.0,0.0,0.0,0.0,0.0,0.0,1.6768,0.0,0.0,0.0,0.0,0.0,1.7422,0.0,0.0,0.0,0.0,1.8128,1.9111,0.0,1.944,1.9925,2.0453,2.0363,1.9798,1.9798,1.9798,1.9798,1.9798,2.02,2.0928,2.2033,2.2811,2.3364,2.3816,2.4406,2.5059,2.5586,2.649,2.7469,0.0,0.0,0.0,0.0,0.0,0.0,-2.4927,-2.3735,-2.2851,-2.1993,-2.0783,-1.9869,-1.9588,-1.9022,-1.8664,-1.8717,-1.9192,-1.9778,-2.0527,-2.146,-2.2434,-2.3515,-2.4734,-2.5577,-2.5996,-2.6309,-2.608,0.0,0.0,-2.5152,0.0,0.0,0.0,0.0,0.0,0.0,0.0,-1.5377,-1.3186,-1.0273,-0.9098,-0.8055,-0.7264,-0.8306,-0.9025,-0.9758,-1.1782,-1.3715,-1.5354,-1.5985,-1.6701,-1.7229,-1.7271,-1.7987,-1.8817,-1.8817,-1.8011,-1.6552,-1.3961,-0.9787,-0.5285,-0.1287,0.2499,0.5666,0.7165,0.8096,0.8903,0.9562,0.9718,0.9619,0.9329,0.9559,1.0303,0.0,0.0,0.0,0.0,0.0,1.5283,1.4951,0.0,0.0,1.5059,1.6103,0.0,0.0,1.7334,0.0,0.0,0.0,0.0,1.8027,1.834,1.8535,1.8635,1.9308,1.9415,1.903,2.0164,2.0363,1.9798,1.9798,1.9798,1.9798,1.9798,2.0413,2.1493,2.2598,2.3401,2.3916,2.3979,2.4619,2.5598,2.6163,2.708,2.795,0.0,0.0,0.0,0.0,0.0,0.0,0.0,-2.3832,-2.3093,-2.2754,-2.1526,-2.0618,-2.0467,-2.0268,-2.0187,-2.0377,-2.0621,-2.1066,-2.1799,-2.2443,-2.3071,-2.3667,-2.4483,-2.4937,-2.5005,-2.5269,-2.5129,0.0,0.0,0.0,0.0,0.0,0.0,0.0,0.0,-2.0848,-1.7662,-1.6862,-1.4735,-1.1836,-1.0685,-1.0062,-0.9833,-1.0082,-1.0943,-1.2214,-1.3424,-1.4767,-1.6089,-1.668,-1.73,-1.7827,-1.8185,-1.8341,-1.8405,-1.8363,-1.7046,-1.4861,-1.1649,-0.7678,-0.3472,0.0376,0.3752,0.6533,0.7947,0.8869,0.9614,1.0261,1.0225,0.9943,0.9322,0.9501,1.0159,1.1347,0.0,0.0,0.0,0.0,0.0,1.4775,0.0,1.4775,0.0,1.5869,0.0,0.0,0.0,0.0,0.0,0.0,0.0,1.8779,0.0,1.7734,1.8252,1.8678,1.8736,1.8536,1.9625,2.0024,1.9798,1.9798,1.9798,1.9836,2.0514,2.1066,2.1568,2.2686,2.3477,2.4029,2.4356,2.4946,2.5699,2.6615,2.7444,2.8025,-3.1137,0.0,-2.9912,0.0,-2.6766,-2.5823,-2.4715,-2.3858,-2.3323,-2.3212,-2.2283,-2.1589,-2.1469,-2.1469,-2.1573,-2.1802,-2.1814,-2.216,-2.2976,-2.3318,-2.3664,-2.4023,-2.456,0.0,-2.4402,-2.4826,-2.4738,-2.4084,-2.4764,0.0,0.0,0.0,0.0,0.0,-2.3059,-2.1636,-1.9382,-1.8377,-1.6644,-1.4371,-1.2998,-1.2567,-1.2724,-1.231,-1.3112,-1.453,-1.5089,-1.6095,-1.7192,-1.7732,-1.8207,-1.8574,-1.865,-1.8405,-1.7972,-1.7598,-1.5611,-1.2858,-0.9483,-0.547,-0.1433,0.1999,0.5061,0.7553,0.8731,0.9585,1.0218,1.0712,1.0769,1.0531,0.9789,1.0031,1.0591,1.1295,0.0,0.0,0.0,1.4053,0.0,0.0,1.4434,1.4561,1.5166,1.5732,0.0,0.0,0.0,0.0,0.0,0.0,0.0,0.0,0.0,0.0,1.8008,1.8112,1.8112,1.798,1.8802,1.915,1.915,1.9371,1.9562,1.9825,2.1011,2.1581,2.1807,2.2749,2.3577,2.428,2.4669,2.5347,2.6214,2.7168,2.7871,2.8188,-3.0155,-2.9425,-2.8241,-2.6344,-2.5843,-2.5264,-2.3904,-2.3692,-2.3566,-2.3236,-2.3189,-2.3034,-2.2625,-2.2574,-2.2574,-2.2599,-2.2599,-2.2976,-2.3912,-2.3988,-2.4227,0.0,0.0,-2.5335,-2.4617,-2.5452,-2.5308,-2.4084,0.0,0.0,-2.4582,0.0,-2.5196,-2.4462,-2.3929,-2.28,-2.1299,-1.9946,-1.8914,-1.8071,-1.6321,-1.5646,-1.5643,-1.5367,-1.5636,-1.6254,-1.6948,-1.7879,-1.8954,-1.9405,-1.963,-1.9479,-1.8458,-1.8051,-1.7771,-1.6558,-1.3939,-1.0828,-0.7888,-0.3628,0.0747,0.3641,0.6536,0.8894,0.9599,1.032,1.0813,1.0813,1.1316,1.1575,1.0922,1.1325,1.1774,1.1774,0.0,0.0,0.0,0.0,0.0,1.4087,1.4521,1.4785,1.4795,1.5566,0.0,0.0,0.0,0.0,0.0,0.0,0.0,1.8037,1.8408,0.0,1.8018,1.7879,1.7622,1.7242,1.7476,1.7633,1.7633,1.8382,1.9066,1.9658,2.0952,2.1794,2.2347,2.2912,2.3803,2.4808,2.482,2.5824,2.7331,2.7896,2.8448,2.8673,-2.7934,-2.7546,-2.6941,-2.5571,-2.527,-2.5049,-2.4524,-2.4336,-2.4211,-2.4099,-2.3961,-2.3837,-2.3699,-2.327,-2.3106,0.0,-2.348,-2.3775,0.0,-2.4542,-2.471,-2.4804,-2.5069,-2.48,-2.3873,-2.4314,-2.4139,-2.3363,0.0,0.0,0.0,-2.4897,-2.4833,-2.4954,-2.4792,-2.3933,-2.2542,-2.2381,-2.1323,-1.9669,-1.9112,-1.882,-1.8655,-1.8258,-1.8346,-1.8796,-1.9376,-1.9687,-1.9843,-2.0385,-2.0348,-1.9834,-1.8351,-1.7384,-1.6386,-1.4344,-1.1334,-0.7841,-0.4007,-0.0369,0.3108,0.6506,0.839,0.974,1.0914,1.1733,1.2098,1.1566,1.1665,1.1616,1.0914,1.0965,1.1266,1.1715,1.2081,0.0,1.3406,0.0,1.3962,1.4062,1.4811,1.5153,1.4838,1.6233,0.0,0.0,0.0,0.0,0.0,0.0,0.0,0.0,1.7725,0.0,1.7139,1.7287,1.7172,1.6712,1.7323,1.7757,1.8081,1.8306,1.8692,1.9192,2.0593,2.1281,2.1511,2.307,2.4155,2.4858,2.5209,2.6138,2.7344,2.7896,2.8448,2.8686,-2.6829,-2.6472,-2.5955,-2.5179,-2.5027,-2.4949,-2.4814,-2.47,-2.4607,-2.4607,-2.4445,-2.4321,-2.4321,-2.3943,0.0,-2.3983,-2.4118,-2.4334,-2.4663,-2.491,-2.5019,-2.4994,-2.5015,-2.4652,-2.382,-2.4046,0.0,-2.3435,-2.4268,-2.4972,-2.5536,-2.5132,-2.5277,-2.5919,-2.582,-2.5373,-2.4712,-2.4595,-2.3733,-2.2417,-2.1848,-2.1535,-2.135,-2.0703,-2.0632,-2.0914,-2.1084,-2.1059,-2.0998,-2.1315,-2.099,-2.0128,-1.799,-1.6294,-1.4598,-1.2161,-0.8973,-0.534,-0.133,0.2088,0.5186,0.7998,0.9622,1.0821,1.1981,1.2559,1.2774,1.2295,1.2187,1.2089,1.1683,1.1584,1.1733,1.2138,1.2187,1.2487,1.3182,0.0,1.3969,0.0,0.0,0.0,0.0,1.6751,1.7086,0.0,0.0,0.0,0.0,0.0,0.0,1.8408,1.7627,1.7061,1.6675,1.694,1.6716,1.6093,1.6707,1.7169,1.7467,1.7932,1.8387,1.8844,2.0,2.0734,2.1191,2.2844,2.3907,2.4698,2.5578,2.6603,2.7657,2.821,2.8775,2.8984,-2.6641,-2.6053,-2.5351,0.0,-2.5094,0.0,-2.4861,-2.4832,-2.4814,-2.4799,-2.4639,-2.4528,-2.4528,-2.4528,-2.451,-2.4526,0.0,0.0,0.0,-2.5088,-2.5168,-2.5293,-2.5197,-2.4858,-2.4304,-2.4452,-2.4423,-2.4214,-2.4857,-2.5378,-2.5804,-2.5804,-2.6236,-2.6983,-2.6723,-2.6877,-2.725,-2.6346,-2.5928,-2.5764,-2.4353,-2.3749,-2.3601,-2.2722,-2.2482,-2.2574,-2.2186,-2.2168,-2.2279,-2.2224,-2.1611,-2.0336,-1.751,-1.5014,-1.263,-0.9968,-0.6732,-0.3222,0.0378,0.3899,0.6919,0.8449,1.0375,1.208,1.2725,1.2881,1.2881,1.2881,1.2881,1.2881,1.2881,1.2881,1.2881,1.2881,1.2881,1.2881,1.2881,1.3467,1.4211,0.0,0.0,0.0,1.6567,1.7302,1.7157,0.0,0.0,0.0,0.0,0.0,1.8848,1.7998,1.7969,1.7549,1.6699,1.6689,1.6269,1.5459,1.5898,1.6184,1.6223,1.7226,1.7957,1.851,1.925,2.0092,2.1097,2.222,2.3261,2.4257,2.5864,2.711,2.8149,2.8662,2.9213,2.9378,0.0,0.0,-2.5524,-2.5416,-2.5379,-2.5348,-2.5278,-2.5133,-2.5011,-2.4962,-2.4809,-2.4731,-2.4731,-2.4731,-2.4771,-2.4872,-2.4885,-2.4936,-2.5082,-2.5233,-2.5341,-2.5379,-2.5359,-2.501,-2.4323,-2.41,-2.4088,-2.4289,-2.4595,-2.5145,-2.588,-2.588,-2.5929,-2.6035,-2.5964,-2.6098,-2.6409,-2.6434,-2.6122,-2.5584,-2.5532,-2.511,-2.4498,-2.4272,-2.4104,-2.3933,-2.3768,-2.351,-2.3187,-2.3173,-2.2332,-2.0827,-1.7855,-1.4809,-1.1563,-0.759,-0.3858,-0.0324,0.2769,0.5462,0.7894,0.982,1.1475,1.2666,1.2871,1.2881,1.2881,1.2881,1.2881,1.2881,1.2881,1.2881,1.2881,1.2881,1.2881,1.2881,1.2881,1.3836,1.4679,0.0,1.6715,1.7597,1.7368,1.8501,1.8709,0.0,0.0,0.0,1.7752,1.8398,1.8398,1.7559,1.7529,1.7109,1.623,1.6221,1.6113,1.5918,1.6357,1.6748,1.707,1.659,1.6637,1.7098,1.7992,1.8627,1.932,2.1349,2.2729,2.3682,2.5349,2.6588,2.7617,2.8561,2.8716,2.8347,-2.5644,-2.5625,-2.5581,-2.5552,-2.5525,-2.5488,-2.5449,-2.5339,-2.5264,-2.519,-2.5034,-2.493,-2.4891,-2.4891,-2.493,-2.4979,-2.501,-2.5061,-2.5241,-2.5369,-2.5446,-2.5446,-2.5451,-2.5209,-2.4674,-2.4345,-2.4253,-2.4452,-2.4807,-2.5321,-2.5967,-2.6047,-2.6161,-2.6304,-2.6489,-2.6656,-2.6776,-2.6713,-2.645,-2.6032,-2.5851,-2.5513,-2.5102,-2.4955,-2.4874,-2.4826,-2.4603,-2.4391,-2.4149,-2.3838,-2.2876,-2.1263,-1.8025,-1.4764,-1.1067,-0.5977,-0.2107,0.1137,0.4095,0.6518,0.8639,1.0746,1.2098,1.2881,1.2881,1.2881,1.2881,1.2881,1.2881,1.2881,1.2881,1.2881,1.2881,1.2881,1.2881,1.2881,1.2881,1.3695,1.4536,1.512,1.6416,1.7384,1.7587,1.8608,1.883,1.7617,1.8631,0.0,1.7762,1.7939,1.7852,1.7402,1.7383,1.6963,1.6135,1.6125,1.6125,1.6135,1.6719,1.6944,1.6675,1.6373,1.6154,1.6,1.6453,1.7278,1.8366,2.0062,2.1635,2.3221,2.4767,2.6206,2.7424,2.8232,2.868,2.8688,-2.5703,-2.5644,-2.5625,-2.5625,-2.5564,-2.5539,-2.552,-2.5512,-2.5481,-2.5427,-2.5255,-2.5128,-2.5077,-2.5065,-2.5065,-2.5065,-2.5084,-2.5168,-2.5399,-2.5471,-2.5526,-2.5527,-2.5507,-2.537,-2.5111,-2.4733,-2.4608,-2.4733,-2.5249,-2.5673,-2.6,-2.6185,-2.6438,-2.6718,-2.7064,-2.7244,-2.7252,-2.678,-2.6556,-2.6447,-2.5691,-2.5447,-2.5465,-2.518,-2.5229,-2.5379,-2.5032,-2.4943,-2.4917,-2.4327,-2.3307,-2.1685,-1.8165,-1.4768,-1.0873,-0.4912,-0.1017,0.206,0.4877,0.7329,0.9452,1.1349,1.2344,1.2881,1.2881,1.2881,1.2881,1.2881,1.2881,1.2881,1.2881,1.2881,1.29,1.2969,1.292,1.293,1.3047,0.0,1.4258,1.5174,1.5869,1.6699,1.7652,1.8221,1.8221,1.7435,1.8175,1.8254,1.7321,1.7285,1.7256,1.7187,1.7178,1.6787,1.5977,1.6094,1.6162,1.6172,1.6922,1.6835,1.6004,1.6191,1.5771,1.4958,1.5064,1.6113,1.7775,1.8718,2.0482,2.2731,2.4213,2.5644,2.6995,2.7599,2.8359,2.8791,-2.5703,-2.5684,-2.5684,-2.5684,-2.5683,-2.5642,-2.5584,-2.558,-2.5559,-2.5493,-2.5418,-2.538,-2.5417,-2.5379,-2.536,-2.5417,-2.5417,-2.5447,-2.5486,-2.5543,-2.5577,-2.5586,-2.5532,-2.5369,-2.5111,-2.4606,-2.4681,-2.5356,-2.5449,-2.5671,-2.5993,-2.6026,-2.5803,-2.5409,-2.5473,-2.5608,-2.5816,-2.5673,-2.56,-2.5588,-2.5444,-2.5443,-2.5488,-2.5442,-2.5474,-2.5563,-2.5358,-2.5205,-2.5039,-2.4771,-2.3841,-2.2148,-1.8563,-1.4794,-1.0578,-0.4888,-0.0268,0.3485,0.5783,0.841,1.0704,1.1557,1.2344,1.2881,1.2881,1.2881,1.2881,1.2881,1.2881,1.2881,1.2881,1.2881,1.2998,1.335,1.3115,1.3135,1.3838,0.0,1.4681,1.5658,1.6308,1.7164,1.8389,1.807,1.789,1.8109,1.7707,1.7255,1.6807,1.6836,1.666,1.6279,1.6331,1.6025,1.5518,1.625,1.6631,1.6641,1.6654,1.6615,1.6486,1.5162,1.4375,1.3992,1.4479,1.5454,1.6707,1.7948,1.9844,2.2177,2.3322,2.4335,2.5344,2.6356,2.6213,2.5535,-2.5684,-2.5703,-2.5703,-2.5703,-2.5668,-2.5656,-2.5643,-2.5625,-2.5585,-2.5568,-2.5535,-2.5504,-2.5495,-2.5468,-2.5478,-2.5498,-2.5522,-2.5543,-2.5543,-2.5582,-2.5631,-2.5659,-2.5593,-2.5468,-2.5274,-2.4896,-2.4902,-2.5238,-2.5152,-2.5208,-2.5374,-2.5437,-2.5351,-2.5162,-2.5264,-2.539,-2.5495,-2.5477,-2.5406,-2.5341,-2.5341,-2.5409,-2.5495,-2.5469,-2.5505,-2.5591,-2.5493,-2.5363,-2.5302,-2.5573,-2.451,-2.2629,-2.0154,-1.6335,-1.1659,-0.5887,0.0473,0.5993,0.7829,0.982,1.1408,1.1715,1.2344,1.2881,1.2881,1.2881,1.2881,1.2881,1.2881,1.2881,1.2881,1.2881,1.3018,1.3437,1.334,0.0,1.4,1.4156,1.4518,1.5229,1.5519,1.6189,1.7423,1.7202,1.7183,1.7658,1.7419,1.7042,1.6709,1.6504,1.6279,1.6135,1.583,1.5723,1.5762,1.6406,1.6855,1.709,1.6782,1.6349,1.5799,1.4551,1.3697,1.3219,1.3501,1.4804,1.6679,1.7329,1.9097,2.1634,2.2331,2.3361,2.4535,2.5282,2.563,2.563,-2.5684,-2.5703,-2.5703,-2.5703,-2.5652,-2.5635,-2.569,-2.566,-2.5625,-2.5625,-2.5605,-2.559,-2.5543,-2.5525,-2.5535,-2.5547,-2.5588,-2.562,-2.562,-2.5614,-2.5648,-2.5703,-2.5644,-2.555,-2.5434,-2.5255,-2.5137,-2.5096,-2.4975,-2.4929,-2.4929,-2.5037,-2.5151,-2.5272,-2.5428,-2.5507,-2.5503,-2.547,-2.5409,-2.5303,-2.5303,-2.539,-2.5485,-2.5434,-2.5627,-2.5917,-2.5846,-2.5921,-2.6118,-2.6554,-2.5532,-2.3707,-2.1642,-1.7827,-1.2935,-0.687,0.0932,0.7976,0.9577,1.0914,1.1814,1.2021,1.2501,1.2881,1.2881,1.2881,1.2881,1.2881,1.2881,1.2881,1.2881,1.2881,1.3018,1.3437,0.0,1.3691,0.0,1.4287,1.4443,1.4883,1.4932,1.5332,1.6394,1.6322,1.6467,1.6994,1.685,1.6647,1.6406,1.6103,1.5908,1.5908,1.5586,1.5625,1.6115,1.6514,1.6953,1.7393,1.667,1.5912,1.5215,1.4068,1.3308,1.2936,1.2926,1.4358,1.6553,1.6962,1.8585,2.0947,2.1734,2.2782,2.3846,2.4302,2.4967,2.5557,-2.5684,-2.5703,-2.5703,-2.5703,-2.5703,-2.5696,-2.5699,-2.5699,-2.5684,-2.5684,-2.5644,-2.5625,-2.5682,-2.5634,-2.5622,-2.5678,-2.5685,-2.5688,-2.5688,-2.5691,-2.5683,-2.5703,-2.5643,-2.5568,-2.5498,-2.5429,-2.538,-2.537,-2.5302,-2.5253,-2.5253,-2.5351,-2.5408,-2.5476,-2.5483,-2.5497,-2.5503,-2.5432,-2.537,-2.5303,-2.5303,-2.539,-2.5495,-2.5498,-2.6083,-2.6894,-2.6816,-2.7304,-2.7957,-2.7694,-2.7166,-2.5978,-2.2194,-1.8226,-1.3701,-0.703,0.0932,0.8075,1.0187,1.1266,1.1972,1.2666,1.2871,1.2881,1.2881,1.2881,1.2881,1.2881,1.2881,1.2881,1.2881,1.2881,1.3018,1.3437,0.0,0.0,1.4619,1.4736,1.4893,1.5312,1.5371,1.5661,1.6425,1.5864,1.5768,1.6477,1.5914,1.5527,1.5508,1.5478,1.5459,1.5459,1.543,1.5625,1.6115,1.6514,1.6953,1.7383,1.5973,1.5408,1.5512,1.3669,1.2963,1.3193,1.346,1.423,1.5583,1.7195,1.8659,1.9871,2.17,2.2575,2.2644,2.3065,2.3309,2.3299,-2.5613,-2.5671,-2.5684,-2.5644,-2.5644,-2.5641,-2.5697,-2.5659,-2.5654,-2.5683,-2.5684,-2.5664,-2.5703,-2.5683,-2.5662,-2.5707,-2.5707,-2.5707,-2.5707,-2.5698,-2.5686,-2.5647,-2.5609,-2.557,-2.5496,-2.5489,-2.5432,-2.5409,-2.537,-2.5341,-2.5303,-2.537,-2.5403,-2.5434,-2.5483,-2.5473,-2.5437,-2.5408,-2.537,-2.5303,-2.5303,-2.537,-2.5447,-2.5446,-2.6033,-2.686,-2.6841,-2.7401,-2.8105,-2.7931,-2.7281,-2.5857,-2.2029,-1.7676,-1.2113,-0.2677,0.3664,0.8075,1.023,1.1266,1.1972,1.2725,1.2881,1.2881,1.2881,1.2881,1.2881,1.2881,1.2881,1.2881,1.2881,1.2881,1.3018,1.3437,0.0,1.3809,1.4668,1.4785,1.4941,1.5361,1.541,1.5526,1.5806,1.5584,1.5526,1.5806,1.5584,1.541,1.541,1.4932,1.4874,1.5352,1.4932,1.5131,1.6064,1.6514,1.6953,1.7393,1.6464,1.5797,1.5297,1.4216,1.3523,1.3227,1.3514,1.4703,1.6589,1.727,1.8609,2.0315,2.1613,2.2129,2.2207,2.2891,2.3135,2.3135,-2.5615,-2.5668,-2.5698,-2.5644,-2.5625,-2.5644,-2.5684,-2.5664,-2.5654,-2.5682,-2.5703,-2.5703,-2.5703,-2.5703,-2.5703,-2.5703,-2.5703,-2.57,-2.5707,-2.5684,-2.564,-2.5601,-2.5582,-2.5557,-2.5525,-2.5503,-2.5478,-2.5421,-2.5408,-2.539,-2.5322,-2.5409,-2.5421,-2.543,-2.5488,-2.5457,-2.5409,-2.539,-2.5341,-2.5303,-2.5303,-2.5341,-2.5438,-2.5699,-2.6393,-2.7249,-2.7493,-2.8152,-2.8883,-2.8745,-2.7692,-2.571,-2.1513,-1.521,-0.7596,0.1351,0.5699,0.8094,1.0238,1.1166,1.1724,1.2666,1.2881,1.2881,1.2881,1.2881,1.2881,1.2881,1.2881,1.2881,1.2881,1.2881,1.2978,1.3262,1.3418,1.376,1.4482,1.4697,1.4941,1.5361,1.541,1.541,1.541,1.541,1.541,1.541,1.541,1.5294,1.505,1.4273,1.4085,1.4628,1.4392,1.4703,1.5741,1.6379,1.7021,1.7588,1.694,1.6132,1.5336,1.4859,1.4401,1.3898,1.4415,1.564,1.7359,1.7992,1.8923,2.0272,2.1744,2.2119,2.1992,2.2832,2.3135,2.3135,-2.5696,-2.5707,-2.5693,-2.5697,-2.5703,-2.5703,-2.5703,-2.5703,-2.5703,-2.5703,-2.5703,-2.5703,-2.5703,-2.5703,-2.5703,-2.5703,-2.5703,-2.569,-2.5697,-2.564,-2.5601,-2.5601,-2.5524,-2.5524,-2.5601,-2.5538,-2.5497,-2.5493,-2.5429,-2.5409,-2.5409,-2.5466,-2.5499,-2.5508,-2.5511,-2.5466,-2.5409,-2.5322,-2.5303,-2.5303,-2.5303,-2.5341,-2.5495,-2.6379,-2.7283,-2.8198,-2.9021,-2.9906,-3.0637,-3.0297,-2.8644,-2.5833,-2.056,-1.054,0.0052,0.4294,0.6567,0.8137,1.0254,1.0813,1.1124,1.2569,1.2881,1.2881,1.2881,1.2881,1.2881,1.2881,1.2881,1.2881,1.2881,1.2881,1.2881,1.2881,1.3232,1.3652,1.4019,1.4502,1.4941,1.5352,1.541,1.541,1.541,1.541,1.541,1.541,1.541,1.505,1.4204,1.3433,1.3009,1.3009,1.3795,1.4412,1.4879,1.6065,1.7158,1.8008,1.707,1.6272,1.5618,1.5773,1.5643,1.5378,1.6466,1.7067,1.7473,1.9371,1.9743,1.9288,2.2026,2.2627,2.1992,2.2832,2.3135,2.3135,-2.5637,-2.5673,-2.5683,-2.5635,-2.5665,-2.5673,-2.5647,-2.5668,-2.5684,-2.5644,-2.5664,-2.5703,-2.5703,-2.5703,-2.5703,-2.5703,-2.5703,-2.5671,-2.564,-2.5563,-2.5505,-2.5466,-2.5447,-2.5447,-2.5466,-2.5496,-2.5494,-2.5499,-2.5536,-2.5524,-2.5466,-2.5543,-2.5553,-2.5489,-2.5504,-2.5466,-2.5409,-2.5322,-2.5214,-2.5088,-2.5088,-2.547,-2.6063,-2.6312,-2.7397,-2.8832,-2.9083,-2.938,-2.9483,-2.8398,-2.5933,-2.1601,-1.1881,-0.3932,0.2464,0.6026,0.7374,0.8137,1.0254,1.0813,1.1124,1.2569,1.2881,1.2881,1.2881,1.2881,1.2881,1.2881,1.2881,1.2881,1.2881,1.2881,1.2881,1.2881,1.3232,1.3652,1.4019,1.4502,1.4834,1.4951,1.5234,1.5293,1.5,1.5234,1.541,1.541,1.4874,1.4213,1.3425,1.2573,1.2499,1.3247,1.363,1.4052,1.4621,1.5337,1.6327,1.7578,1.7167,1.6543,1.5634,1.6983,1.6738,1.5385,1.6661,1.7861,1.8965,1.9533,1.9732,1.9933,2.193,2.2007,2.1228,2.2573,2.3135,2.3135,-2.5642,-2.5646,-2.5667,-2.5651,-2.5654,-2.5657,-2.5643,-2.5668,-2.5687,-2.5644,-2.5664,-2.5703,-2.5703,-2.5703,-2.5703,-2.5703,-2.5703,-2.5664,-2.5573,-2.5523,-2.5427,-2.525,-2.5231,-2.5301,-2.5409,-2.5472,-2.5503,-2.5508,-2.5578,-2.5576,-2.5498,-2.5578,-2.5556,-2.5463,-2.5485,-2.5443,-2.5341,-2.5233,-2.5111,-2.5018,-2.5285,-2.5754,-2.6333,-2.6657,-2.7553,-2.8621,-2.8659,-2.8698,-2.8554,-2.7508,-2.2772,-1.5486,-0.4979,0.1379,0.5448,0.7824,0.8712,0.9221,1.0458,1.1015,1.1475,1.2618,1.2881,1.2881,1.2881,1.2881,1.2881,1.2881,1.2881,1.2881,1.2881,1.2881,1.2881,1.2881,1.3232,1.3594,1.3848,1.4258,1.4521,1.4521,1.4902,1.5068,1.4805,1.4869,1.4805,1.4451,1.3717,1.3053,1.2573,1.1836,1.1809,1.2451,1.2977,1.3513,1.4,1.4269,1.5152,1.6523,1.6581,1.5993,1.5141,1.731,1.7415,1.6015,1.7809,1.9263,2.0233,2.0391,2.0338,2.0174,2.154,2.1479,2.0848,2.197,2.2677,2.3135,-2.5703,-2.5649,-2.5626,-2.5689,-2.5644,-2.5625,-2.5684,-2.5698,-2.5698,-2.5693,-2.5703,-2.5703,-2.5703,-2.5703,-2.5703,-2.5703,-2.5683,-2.5648,-2.5517,-2.5484,-2.5358,-2.5034,-2.501,-2.5118,-2.538,-2.5447,-2.5479,-2.5507,-2.5564,-2.5563,-2.5506,-2.5571,-2.5533,-2.5408,-2.5473,-2.5401,-2.5273,-2.5077,-2.4967,-2.5006,-2.563,-2.6034,-2.6359,-2.7094,-2.7586,-2.7928,-2.7984,-2.7942,-2.7641,-2.6301,-1.8706,-0.8315,0.0259,0.5496,0.8648,0.9611,1.036,1.0854,1.0821,1.1316,1.207,1.2813,1.3017,1.3065,1.2968,1.2968,1.2968,1.2968,1.2929,1.2881,1.2881,1.2881,1.2891,1.293,1.3262,1.3516,1.3555,1.3896,1.4068,1.4029,1.4492,1.4775,1.4615,1.432,1.3786,1.294,1.2228,1.1809,1.1755,1.1309,1.1042,1.1069,1.22,1.2914,1.3234,1.3171,1.387,1.5163,1.5405,1.5083,1.4306,1.697,1.7778,1.7075,1.9381,2.0632,2.1157,2.1501,2.0913,1.9865,2.0925,2.0988,2.0631,2.1255,2.2129,2.3047,-2.5703,-2.5698,-2.5678,-2.5698,-2.5694,-2.5664,-2.5625,-2.5677,-2.5675,-2.5626,-2.5662,-2.5703,-2.5703,-2.5703,-2.5703,-2.5703,-2.5649,-2.5589,-2.5508,-2.5445,-2.537,-2.5243,-2.5088,-2.5099,-2.5322,-2.5284,-2.5337,-2.5508,-2.5577,-2.5596,-2.5577,-2.5544,-2.551,-2.5479,-2.5445,-2.5331,-2.5151,-2.5037,-2.4858,-2.4623,-2.4781,-2.5324,-2.6071,-2.6261,-2.7007,-2.7984,-2.8003,-2.7465,-2.5593,-1.8003,-1.0527,-0.3237,0.3421,0.814,1.1146,1.0501,1.0828,1.1289,1.0896,1.1648,1.2735,1.3437,1.3967,1.4201,1.3684,1.3589,1.3589,1.3589,1.3238,1.2881,1.2881,1.2881,1.2988,1.332,1.3447,1.3623,1.3955,1.4029,1.3961,1.3682,1.4316,1.4426,1.3415,1.3275,1.294,1.2143,1.2067,1.184,1.1214,1.1236,1.1436,1.167,1.2639,1.296,1.249,1.3208,1.4101,1.5171,1.5072,1.4843,1.4565,1.6571,1.7379,1.7235,1.8099,1.9138,2.0198,1.9739,1.9018,1.8383,2.0506,2.0703,2.0022,2.2003,2.2862,2.296,-2.5703,-2.5664,-2.5659,-2.5697,-2.5664,-2.5648,-2.5643,-2.5684,-2.5697,-2.5654,-2.5685,-2.5697,-2.5706,-2.5673,-2.5636,-2.5601,-2.556,-2.5522,-2.5452,-2.5425,-2.529,-2.5068,-2.4956,-2.4904,-2.4923,-2.4972,-2.5159,-2.5457,-2.5511,-2.5545,-2.5505,-2.5505,-2.5474,-2.5406,-2.5407,-2.5258,-2.5038,-2.478,-2.4606,-2.4497,-2.4464,-2.5023,-2.5906,-2.6247,-2.6744,-2.7251,-2.7353,-2.5377,-2.1429,-1.299,-0.6108,0.0052,0.6925,1.0684,1.2405,1.2087,1.2068,1.2052,1.1427,1.2239,1.3369,1.3721,1.4457,1.496,1.4376,1.4236,1.4143,1.3862,1.3552,1.3298,1.3184,1.3018,1.3018,1.3437,1.3506,1.3584,1.3799,1.3786,1.375,1.3535,1.4082,1.409,1.3067,1.2658,1.215,1.1496,1.1531,1.1497,1.1189,1.1476,1.171,1.1864,1.2639,1.2799,1.2305,1.3105,1.3626,1.405,1.4033,1.3967,1.3988,1.5728,1.6605,1.6771,1.7462,1.8439,1.9462,1.9669,1.9256,1.8772,2.0576,2.0935,2.0486,2.1756,2.2589,2.296,-2.5703,-2.5664,-2.5625,-2.5684,-2.5658,-2.5641,-2.5681,-2.5703,-2.5703,-2.5703,-2.5699,-2.5703,-2.5687,-2.562,-2.555,-2.5504,-2.5496,-2.5453,-2.5399,-2.537,-2.5176,-2.4842,-2.479,-2.4685,-2.4543,-2.4724,-2.4965,-2.5355,-2.5434,-2.5459,-2.5409,-2.5447,-2.5399,-2.5253,-2.5311,-2.5187,-2.4879,-2.4439,-2.4296,-2.4358,-2.4369,-2.4882,-2.5688,-2.6487,-2.6723,-2.663,-2.6681,-2.3073,-1.7202,-1.0192,-0.3784,0.2561,1.0115,1.2815,1.3268,1.3601,1.3362,1.2812,1.2039,1.2939,1.4063,1.3978,1.4937,1.5775,1.5291,1.4903,1.4582,1.4157,1.3894,1.3682,1.3539,1.3281,1.3232,1.3662,1.3662,1.3643,1.3721,1.3559,1.3407,1.3407,1.3487,1.3372,1.2903,1.2166,1.1496,1.1108,1.1116,1.1249,1.149,1.183,1.1997,1.1944,1.2518,1.2679,1.2378,1.2933,1.308,1.2903,1.3133,1.3287,1.33,1.4796,1.5632,1.6182,1.6931,1.7746,1.8596,1.9727,1.9664,1.9031,2.0657,2.1203,2.1025,2.148,2.212,2.2677,-2.5703,-2.5684,-2.5684,-2.5703,-2.5681,-2.5699,-2.5703,-2.5703,-2.5703,-2.5703,-2.5703,-2.5676,-2.5611,-2.5543,-2.5515,-2.5495,-2.5456,-2.5408,-2.5409,-2.5179,-2.5041,-2.4974,-2.4712,-2.4607,-2.476,-2.4785,-2.4898,-2.5139,-2.5312,-2.5399,-2.5409,-2.5341,-2.5233,-2.5034,-2.5053,-2.4858,-2.454,-2.4191,-2.3947,-2.3831,-2.4177,-2.4703,-2.537,-2.634,-2.7044,-2.7458,-2.6959,-2.2319,-1.5529,-0.9588,-0.2413,0.5139,1.1673,1.4098,1.4489,1.4198,1.3805,1.3179,1.2063,1.3488,1.5141,1.4671,1.5865,1.7115,1.7024,1.5808,1.4821,1.5199,1.4328,1.3539,1.3496,1.376,1.4102,1.4541,1.4297,1.418,1.4561,1.367,1.2951,1.2951,1.2093,1.1707,1.2251,1.1567,1.1181,1.1343,1.1603,1.1764,1.1804,1.2405,1.2587,1.2251,1.2832,1.2999,1.2768,1.3033,1.3186,1.3153,1.3447,1.3587,1.3594,1.4095,1.4979,1.6026,1.5556,1.6045,1.7274,1.785,1.736,1.6655,2.0017,2.0666,2.0034,2.2129,2.2306,2.148,-2.5703,-2.5703,-2.5703,-2.5703,-2.5703,-2.5703,-2.5703,-2.5703,-2.5703,-2.5703,-2.5704,-2.5659,-2.5601,-2.5505,-2.5428,-2.539,-2.537,-2.5563,-2.6043,-2.5398,-2.5171,-2.5536,-2.4879,-2.4495,-2.4461,-2.4685,-2.4795,-2.4761,-2.516,-2.5292,-2.5179,-2.5141,-2.5041,-2.4891,-2.4891,-2.464,-2.421,-2.3855,-2.3608,-2.344,-2.3694,-2.4282,-2.5175,-2.6624,-2.7279,-2.7396,-2.6754,-2.1227,-1.3402,-0.826,-0.0457,0.8034,1.3566,1.491,1.4686,1.5994,1.5007,1.3506,1.3649,1.4469,1.5221,1.4956,1.5793,1.6714,1.7008,1.5935,1.5203,1.6296,1.5703,1.4995,1.4882,1.4427,1.4277,1.4717,1.4424,1.4287,1.4727,1.3682,1.2917,1.283,1.2007,1.1692,1.2416,1.1699,1.1356,1.165,1.1797,1.2083,1.2412,1.2681,1.2766,1.2806,1.3227,1.3307,1.3006,1.3467,1.3621,1.3454,1.3754,1.3801,1.3572,1.3948,1.4586,1.5455,1.5164,1.5484,1.6364,1.7345,1.7412,1.7124,1.9397,2.0395,2.0666,2.1667,2.1756,2.1114]}]]